[[[{"header":{"parameterUnit":"kt","parameterCategory":2,"dx":1,"dy":1,"la1":29.587661999999998,"la2":31.0,"lo1":-88.76705300000003,"lo2":-86.6583820000003,"nx":115,"ny":88,"refTime":"2022-10-14T06:00:00:Z","depth":0,"parameterNumber":1,"parameterNumberName":"U-component_of_WINDS"},"data":[17.9772,17.9937,18.1213,18.1085,18.0181,18.1472,18.1205,17.9833,17.9954,17.9882,17.9773,17.9749,17.9824,17.9648,17.9648,17.9594,17.9621,17.967,17.967,17.967,17.967,17.967,17.967,17.967,17.967,17.967,17.967,17.967,17.967,17.967,17.967,17.967,17.967,17.967,17.967,17.967,17.967,17.967,17.967,17.967,17.967,17.967,17.967,17.967,17.967,17.967,17.9897,18.0958,18.164,18.3003,18.52,18.7396,18.8533,18.9138,18.9441,18.9517,18.9517,18.9744,19.035,19.0426,19.1411,19.2244,19.2547,19.2471,19.2547,19.2547,19.2244,19.1411,19.0729,19.0956,19.0578,19.0199,18.9564,18.9183,18.8895,18.8539,18.8169,18.7923,18.7864,18.7531,18.7394,18.7143,18.6799,18.6797,18.709,18.6993,18.6806,18.6184,18.4975,18.4241,18.3526,18.1905,18.0211,17.778,17.6085,17.6527,17.638,17.6232,17.6652,17.7412,17.7845,17.7723,17.7914,17.8166,17.7576,17.6785,17.6385,17.6375,17.5993,17.5456,17.5738,17.5583,17.495,17.4316,17.3471,17.9847,17.9772,18.0088,17.999,18.0102,18.1624,18.1398,18.0218,18.1137,18.1,18.0013,18.1163,18.0758,18.003,17.9598,17.9645,17.9723,18.0026,17.9746,17.967,17.967,17.967,17.967,17.967,17.967,17.967,17.967,17.967,17.967,17.967,17.967,17.967,17.967,17.967,17.967,17.967,17.967,17.967,17.967,17.967,17.967,17.967,17.967,17.967,17.967,17.967,17.967,18.0125,18.0806,18.2473,18.4669,18.6336,18.7321,18.8457,18.8911,18.9441,18.9441,19.0502,19.1184,19.1562,19.2774,19.3683,19.4062,19.4213,19.4289,19.4289,19.4289,19.3532,19.2471,19.1941,19.1411,19.0805,19.0123,18.9578,18.922,18.8949,18.8588,18.83,18.8188,18.8073,18.7998,18.7998,18.7694,18.7368,18.7311,18.732,18.6941,18.636,18.5592,18.4815,18.3793,18.2125,18.0825,18.0064,17.8885,17.8516,17.8222,17.8001,17.7411,17.7338,17.7388,17.7754,17.8079,17.817,17.7964,17.7413,17.7034,17.6812,17.5448,17.441,17.4469,17.4457,17.4105,17.4105,17.2837,18.0682,17.9999,18.0834,18.0708,18.0209,18.1575,18.1916,18.1399,18.192,18.184,18.1384,18.1828,18.2343,18.2552,18.2389,18.2261,18.1151,18.1054,18.0555,17.9849,17.967,17.9621,17.967,17.967,17.9594,17.967,17.967,17.967,17.967,17.967,17.967,17.967,17.967,17.967,17.967,17.967,17.967,17.967,17.967,17.967,17.967,17.967,17.967,17.967,17.967,17.967,17.967,17.9746,18.0125,18.1261,18.3079,18.4366,18.5881,18.7321,18.8078,18.8608,18.9896,19.1259,19.2017,19.3002,19.4289,19.535,19.5956,19.5956,19.5956,19.6713,19.6713,19.5804,19.4668,19.3759,19.3153,19.2017,19.1184,19.0472,19.0118,18.9599,18.9209,18.8689,18.8408,18.83,18.8131,18.8206,18.8223,18.7844,18.8016,18.7974,18.8508,18.8138,18.6604,18.5358,18.3962,18.2651,18.1903,18.1119,18.0358,17.999,17.999,17.9401,17.8737,17.8664,17.8664,17.8516,17.8566,17.9534,17.9596,17.8546,17.7919,17.7853,17.6742,17.5022,17.4217,17.3553,17.4105,17.4457,17.2345,18.22,18.1137,18.1972,18.1365,18.0151,18.1593,18.2097,18.1758,18.2138,18.2517,18.2979,18.3374,18.4132,18.5189,18.5569,18.5009,18.3579,18.302,18.174,18.0868,17.9765,17.971,17.9621,17.9621,17.9648,17.9621,17.967,17.967,17.967,17.967,17.967,17.967,17.967,17.967,17.967,17.967,17.967,17.967,17.967,17.967,17.967,17.967,17.967,17.967,17.967,17.967,17.967,17.967,17.967,17.9746,18.0958,18.2321,18.3912,18.5985,18.7018,18.8078,19.0426,19.2244,19.3532,19.4744,19.5956,19.7092,19.7622,19.7622,19.7925,19.891,19.891,19.7925,19.7016,19.6107,19.5228,19.3759,19.2547,19.1836,19.1168,19.0538,18.9862,18.9284,18.8588,18.8386,18.8245,18.8264,18.8357,18.8465,18.8719,18.897,18.93,18.8957,18.7168,18.6112,18.4744,18.417,18.3187,18.2323,18.1611,18.1242,18.1611,18.1242,18.0506,18.0211,18.0064,17.9548,17.9032,18.0281,18.0929,17.9815,17.9011,17.8893,17.7924,17.6029,17.503,17.366,17.4005,17.5074,17.2373,18.4552,18.4249,18.2883,18.1517,18.0227,18.1593,18.1593,18.024,18.1922,18.32,18.4806,18.6172,18.6755,18.7239,18.8002,18.7626,18.6167,18.4864,18.3558,18.1964,18.0796,18.0075,18.0013,17.9617,17.9655,17.9673,17.9621,17.9697,17.9621,17.967,17.967,17.967,17.967,17.967,17.967,17.967,17.967,17.967,17.967,17.9822,17.9822,17.967,17.967,17.9746,17.967,17.967,17.967,17.967,17.967,17.967,18.0049,18.0731,18.27,18.4849,18.7349,18.9138,19.1184,19.3305,19.535,19.6486,19.7698,19.8531,19.9213,19.8986,19.8834,19.9288,19.944,19.8758,19.8077,19.7243,19.6637,19.5425,19.4592,19.388,19.2941,19.2001,19.1446,19.0846,19.0115,18.9258,18.8941,18.8188,18.8339,18.8357,18.854,18.8555,18.8669,18.8709,18.7685,18.7016,18.6201,18.5734,18.4764,18.3908,18.3106,18.2642,18.3084,18.2937,18.2274,18.1905,18.1684,18.08,17.9695,18.0481,18.1485,18.0499,18.0071,17.99,17.9304,17.7525,17.6017,17.4322,17.4249,17.5602,17.4036,18.5766,18.4856,18.4097,18.349,18.2883,18.2503,18.2655,18.3035,18.3566,18.478,18.6374,18.7132,18.7918,18.8938,18.9546,18.9123,18.755,18.6563,18.5346,18.3667,18.2048,18.1433,18.074,18.034,17.9937,17.9772,17.9742,17.9692,17.9614,17.9621,17.967,17.967,17.967,17.967,17.9594,17.9594,17.9594,17.9594,17.9746,18.0276,18.0352,18.02,18.0579,18.0731,17.9973,17.9746,17.967,17.967,17.967,17.967,17.967,18.0049,18.0882,18.2852,18.52,18.9441,19.179,19.4592,19.6637,19.7774,19.8683,19.9213,19.9364,19.944,19.944,19.944,19.944,19.944,19.8834,19.8304,19.7774,19.7243,19.6637,19.6031,19.4895,19.3653,19.3136,19.2581,19.1565,19.0541,18.9681,18.8838,18.8264,18.8131,18.8281,18.8298,18.8344,18.8669,18.8681,18.8541,18.8284,18.7172,18.6157,18.5312,18.4532,18.3821,18.3821,18.36,18.3232,18.3158,18.3305,18.2716,18.2053,18.1979,18.2053,18.1632,18.1326,18.1166,18.0755,17.9646,17.8299,17.7094,17.6912,17.7619,17.6369,18.7436,18.6298,18.5766,18.5615,18.5463,18.4856,18.4856,18.5539,18.5615,18.6146,18.7436,18.7891,18.9181,19.0623,19.1154,19.0359,18.9336,18.8136,18.6939,18.5422,18.3752,18.3144,18.238,18.1465,18.0701,18.0385,18.0074,17.9744,17.9757,17.9614,17.9621,17.9621,17.9597,17.9648,17.9648,17.9648,17.9597,17.9621,17.9621,18.0125,18.0428,18.0731,18.1261,18.1791,18.1488,18.164,18.1488,18.1412,18.1412,18.1261,18.1109,18.1034,18.1034,18.2246,18.4063,18.8684,19.232,19.5319,19.6986,19.8531,19.944,19.944,19.944,19.944,19.944,19.944,19.944,19.944,19.9213,19.8986,19.8607,19.838,19.8001,19.7243,19.6334,19.5471,19.5016,19.4315,19.3262,19.2246,19.1792,19.0934,18.9599,18.9334,18.9241,18.8507,18.8582,18.9501,18.9968,19.0684,19.0432,18.8367,18.7155,18.6348,18.5574,18.4805,18.4584,18.4337,18.4042,18.3968,18.3895,18.3895,18.4116,18.3895,18.3305,18.2937,18.2569,18.2458,18.2229,18.138,18.0802,18.0154,17.9645,17.9522,17.8786,18.9788,18.9485,18.8043,18.736,18.7588,18.8802,18.865,18.7436,18.736,18.736,18.7588,18.9105,19.0244,19.2141,19.3659,19.3066,19.1485,19.0119,18.8689,18.7171,18.5523,18.5016,18.4193,18.3139,18.2386,18.1621,18.1156,18.0785,17.9922,18.0164,17.9882,17.9645,17.9655,18.009,18.0069,18.0034,17.9786,17.9902,17.9938,18.0024,18.0607,18.1113,18.1618,18.2451,18.2879,18.3155,18.3458,18.3533,18.3685,18.3836,18.3988,18.4063,18.4215,18.4291,18.5427,18.7927,19.1911,19.4714,19.694,19.8531,19.9288,19.944,19.944,19.944,19.944,19.944,19.944,19.944,19.944,19.944,19.944,19.9213,19.9061,19.8455,19.7622,19.7243,19.6789,19.6152,19.5072,19.4239,19.3751,19.2692,19.1345,19.0728,19.0728,19.052,19.1064,19.1891,19.3109,19.3738,19.2057,19.008,18.8887,18.7729,18.6589,18.5838,18.5494,18.5147,18.4926,18.4705,18.4263,18.4189,18.4263,18.4263,18.4263,18.4116,18.36,18.3472,18.3426,18.3472,18.3106,18.2547,18.2474,18.2141,18.1501,18.9864,18.9864,18.9257,18.903,18.9333,19.0851,19.123,19.0547,18.9485,18.903,18.9105,18.9561,19.032,19.0775,19.1382,19.1078,19.0851,19.0092,18.9181,18.8954,18.7284,18.6704,18.5957,18.4905,18.4098,18.387,18.3194,18.238,18.1476,18.1396,18.0909,18.0177,17.9809,18.0771,18.1467,18.0784,18.0123,18.072,18.0088,18.0046,18.0713,18.1134,18.1606,18.295,18.3562,18.3637,18.4215,18.4442,18.4442,18.4366,18.4366,18.4366,18.4821,18.5351,18.6412,18.7699,19.0805,19.3986,19.6562,19.838,19.891,19.9137,19.944,19.944,19.944,19.944,19.944,19.944,19.944,19.944,19.944,19.944,19.9288,19.9288,19.8758,19.8758,19.838,19.8304,19.7408,19.6348,19.5635,19.4345,19.3131,19.2927,19.3418,19.3604,19.3846,19.5274,19.6703,19.5665,19.4126,19.2692,19.1505,19.0053,18.8622,18.7362,18.6527,18.5958,18.5737,18.5589,18.5221,18.4926,18.4484,18.4263,18.4779,18.5,18.4631,18.4337,18.4208,18.4265,18.4861,18.5301,18.5261,18.4788,18.4205,18.9333,18.9864,18.9333,18.9712,19.1003,19.2596,19.3279,19.3127,19.2141,19.0927,19.0092,18.9864,18.9864,18.9864,19.0016,19.0092,18.994,18.9864,18.9864,18.9712,18.8802,18.8271,18.7739,18.6691,18.578,18.5539,18.4856,18.3918,18.3194,18.2304,18.1703,18.1475,18.1465,18.2,18.2538,18.1624,18.0634,18.1621,18.0923,18.0233,18.1061,18.0947,18.1593,18.349,18.4034,18.468,18.5514,18.6519,18.6687,18.6718,18.6694,18.6569,18.679,18.7093,18.7851,18.8533,18.9441,19.2774,19.5577,19.7016,19.7774,19.7925,19.8077,19.8455,19.8758,19.9061,19.9364,19.944,19.944,19.944,19.944,19.944,19.944,19.944,19.944,19.944,19.9516,19.9516,19.944,19.8304,19.7894,19.6704,19.6729,19.7159,19.8122,19.8627,19.8658,19.9711,19.9485,19.807,19.6342,19.5148,19.3599,19.208,19.0493,18.8914,18.7901,18.7652,18.7284,18.6915,18.6326,18.5884,18.5516,18.5295,18.5589,18.5884,18.5737,18.5589,18.5221,18.5663,18.6931,18.7563,18.7342,18.6974,18.6322,18.8498,18.9637,18.8195,18.9637,19.2976,19.4417,19.51,19.4949,19.4797,19.2976,19.0092,18.9864,18.9864,18.9864,18.9864,19.0092,19.0244,19.0092,19.0092,19.0092,18.9712,18.9712,18.9105,18.8422,18.7436,18.6981,18.6449,18.5691,18.4869,18.3938,18.371,18.365,18.3218,18.2993,18.2454,18.0841,18.0933,18.2,18.0864,18.033,18.063,18.1156,18.1524,18.2959,18.4232,18.535,18.6109,18.7019,18.736,18.7523,18.7657,18.7878,18.8134,18.8561,18.8911,18.9138,18.9593,19.1259,19.4091,19.4441,19.4971,19.535,19.6562,19.694,19.7319,19.8304,19.9061,19.8834,19.9288,19.944,19.944,19.944,19.944,19.944,19.944,19.9516,19.9667,19.9667,20.0046,19.9667,19.9636,19.9983,20.0676,20.1353,20.2356,20.3126,20.3307,20.2944,20.2117,20.0613,19.8658,19.7008,19.5316,19.3969,19.2817,19.085,18.9625,18.9376,18.9052,18.8684,18.8168,18.7431,18.6915,18.6547,18.6473,18.6252,18.6473,18.6768,18.7284,18.7726,18.9052,18.9568,18.9347,18.8949,18.8192,18.9485,18.9788,18.9333,19.2444,19.7377,19.8212,19.768,19.677,19.6542,19.4114,18.994,18.9864,18.9864,18.9864,18.994,19.0395,19.0927,19.0623,19.0851,19.0775,19.0471,18.994,18.9712,18.9409,18.8878,18.9105,18.8422,18.7588,18.6677,18.6172,18.5641,18.5414,18.5361,18.5598,18.5311,18.4439,18.4211,18.4677,18.333,18.1668,18.1379,18.1241,18.102,18.2615,18.3515,18.4725,18.5864,18.6471,18.6755,18.6727,18.6587,18.6974,18.7423,18.7958,18.8409,18.9063,18.9744,19.0502,19.2168,19.2926,19.3305,19.3835,19.4895,19.5274,19.5728,19.6789,19.7849,19.7925,19.891,19.944,19.944,19.944,19.944,19.9516,19.9516,19.9894,20.0046,20.0803,20.1031,20.1227,20.2136,20.2741,20.3214,20.3164,20.43,20.5616,20.5083,20.3997,20.3019,20.1064,19.956,19.8031,19.6578,19.5915,19.5169,19.3595,19.2236,19.182,19.108,19.0583,19.001,18.9052,18.8389,18.7947,18.7431,18.6768,18.6915,18.7579,18.8536,18.9568,19.0304,19.082,19.0673,19.0495,18.9883,19.1306,19.1837,19.1837,19.419,19.7984,19.8591,19.7908,19.6618,19.6997,19.4797,19.0927,19.0168,18.9864,18.9864,19.0016,19.0547,19.123,19.0851,19.1078,19.1154,19.1154,19.0547,18.994,18.9864,18.994,18.9788,18.9788,18.9181,18.8271,18.7374,18.6829,18.7208,18.7829,18.7967,18.7739,18.6981,18.6843,18.6677,18.478,18.3338,18.3124,18.2258,18.22,18.3422,18.36,18.4816,18.5424,18.5651,18.5727,18.5717,18.5219,18.5539,18.6064,18.6064,18.6515,18.7093,18.8078,18.929,19.0653,19.0502,19.0578,19.1714,19.3002,19.3911,19.4819,19.5425,19.6183,19.7168,19.8001,19.8304,19.8758,19.9137,19.9516,19.9667,19.997,20.0425,20.1106,20.2318,20.2741,20.2717,20.3736,20.4871,20.4916,20.4724,20.6232,20.7611,20.6196,20.4673,20.2418,20.0312,19.9335,19.802,19.7172,19.6439,19.6291,19.5672,19.489,19.4002,19.3175,19.2557,19.2029,19.0968,18.9936,18.942,18.8831,18.8168,18.8021,18.8463,18.8905,18.9494,19.0378,19.141,19.1925,19.2146,19.1894,19.3659,19.5252,19.5252,19.548,19.5783,19.6922,19.6618,19.5328,19.6694,19.5328,19.2217,19.1154,19.0699,19.0395,19.0471,19.0168,19.0547,19.1685,19.161,19.1458,19.1458,19.1306,19.1154,19.0699,19.032,19.032,19.0471,19.032,18.9561,18.865,18.9105,18.9637,18.9333,18.865,18.8422,18.865,18.8726,18.7664,18.5615,18.4628,18.4552,18.3883,18.3883,18.449,18.5856,18.7057,18.7132,18.6704,18.6509,18.6476,18.542,18.5085,18.5489,18.5211,18.53,18.5861,18.6644,18.7624,18.894,18.8712,18.7727,18.8381,19.035,19.3002,19.4365,19.4697,19.5501,19.7016,19.7774,19.7925,19.838,19.8531,19.9591,19.997,20.0349,20.0803,20.1637,20.3,20.3921,20.4159,20.4915,20.5934,20.623,20.4919,20.5833,20.7292,20.6315,20.3621,20.1365,20.0087,19.9109,19.8234,19.7541,19.7327,19.711,19.674,19.6038,19.5244,19.4392,19.3891,19.3637,19.2736,19.1631,19.0968,19.0157,18.9568,18.9199,18.9494,18.9715,18.9789,19.0083,19.0968,19.1557,19.1999,19.2441,19.6011,19.8591,19.8667,19.8591,19.8667,19.897,19.7605,19.5328,19.6618,19.548,19.3279,19.3279,19.3583,19.3279,19.1382,19.1382,19.3279,19.1458,19.1913,19.2217,19.2065,19.1989,19.2368,19.2217,19.1837,19.1837,19.1837,19.1306,19.0775,19.0623,19.0547,18.9864,19.0395,18.9788,18.9561,18.9788,18.9864,18.8878,18.6525,18.5311,18.478,18.2883,18.2579,18.2959,18.349,18.4173,18.5235,18.5463,18.5539,18.5523,18.4882,18.5196,18.5873,18.5304,18.5046,18.578,18.5178,18.6061,18.72,18.8489,18.9726,19.0585,19.2017,19.2699,19.4289,19.588,19.6865,19.7016,19.7849,19.9213,20.0122,19.9591,20.0046,20.0349,20.0652,20.1182,20.1788,20.3303,20.4299,20.4727,20.5549,20.6672,20.5882,20.4777,20.5164,20.6739,20.5337,20.2568,20.0989,19.9861,19.8959,19.8207,19.7806,19.7731,19.76,19.7327,19.7039,19.6355,19.5366,19.4723,19.4433,19.3692,19.284,19.2146,19.1336,19.082,19.0378,19.0599,19.0747,19.0304,19.0083,19.0747,19.1262,19.1631,19.222,19.8136,19.9805,19.9805,19.9426,19.8895,19.9578,19.7984,19.5783,19.6542,19.5859,19.4114,19.4645,19.5024,19.4569,19.3127,19.29,19.3355,19.2824,19.2748,19.2065,19.2596,19.2824,19.3659,19.3659,19.3507,19.3507,19.3355,19.2748,19.2748,19.2976,19.3203,19.2293,19.2217,19.1685,19.1078,19.1078,19.0623,18.9561,18.8271,18.7057,18.6525,18.5387,18.4401,18.4628,18.4704,18.478,18.478,18.4325,18.4021,18.4718,18.3946,18.4582,18.5496,18.5493,18.4965,18.6031,18.4598,18.4671,18.6101,18.7672,18.8513,18.9697,19.1184,19.2471,19.3456,19.4895,19.6031,19.7016,19.8001,19.8607,19.9137,19.9516,20.0046,20.0576,20.0803,20.1334,20.2091,20.3574,20.4534,20.5329,20.5947,20.5331,20.4617,20.3845,20.4029,20.4736,20.3245,20.1515,20.0613,19.9485,19.8658,19.8057,19.8057,19.8057,19.787,19.7741,19.7397,19.6964,19.603,19.5425,19.5059,19.4581,19.3681,19.2957,19.2619,19.2177,19.1704,19.1557,19.1336,19.082,19.0231,19.082,19.1483,19.1852,19.2662,19.9805,19.9805,19.9805,19.8895,19.7756,19.8819,19.768,19.5328,19.6618,19.6466,19.5252,19.5556,19.5707,19.548,19.5328,19.4569,19.3962,19.3962,19.3431,19.2217,19.3203,19.3659,19.3659,19.4569,19.4721,19.5252,19.5252,19.5252,19.51,19.51,19.51,19.4645,19.4266,19.4038,19.2217,19.2065,19.1534,19.0168,18.9788,18.9561,18.9181,18.8574,18.7815,18.736,18.6981,18.6753,18.5994,18.478,18.4249,18.5097,18.3718,18.351,18.4416,18.4666,18.4414,18.4257,18.389,18.3561,18.5262,18.7068,18.8261,18.9318,19.0956,19.2168,19.3759,19.5047,19.6455,19.7319,19.7622,19.8152,19.8986,19.9061,19.944,20.0197,20.0803,20.1106,20.1952,20.2944,20.3553,20.4254,20.3168,20.2979,20.3126,20.278,20.2505,20.2054,20.1666,20.0989,20.0162,19.9034,19.8132,19.8057,19.8057,19.8057,19.7933,19.7933,19.7666,19.7322,19.6664,19.6105,19.5603,19.5059,19.4309,19.4006,19.4006,19.3637,19.312,19.2575,19.1925,19.1483,19.1041,19.1262,19.1778,19.2441,19.3178,19.9805,19.9805,19.9805,19.8895,19.7529,19.768,19.677,19.5556,19.6618,19.7073,19.6997,19.7984,19.7832,19.7453,19.7832,19.7832,19.6314,19.51,19.4645,19.3659,19.3659,19.4569,19.5252,19.5783,19.5632,19.6542,19.677,19.6846,19.6846,19.6846,19.6087,19.5632,19.51,19.4114,19.2824,19.252,19.1382,19.0471,18.9864,18.9105,18.7891,18.6677,18.6222,18.7208,18.736,18.7815,18.7815,18.6374,18.5994,18.6008,18.5262,18.4439,18.4503,18.3503,18.349,18.4718,18.5826,18.6335,18.7008,18.8028,18.9091,18.9876,19.2623,19.4441,19.5577,19.6334,19.8152,19.891,19.8986,19.9213,19.9894,19.997,20.0122,20.0652,20.05,20.0318,20.1279,20.1852,20.2415,20.1833,20.0493,20.0342,20.09,20.0777,20.0852,20.0538,20.0312,19.9711,19.9711,19.8583,19.8057,19.8057,19.8057,19.8057,19.8057,19.8057,19.7858,19.76,19.711,19.6587,19.6105,19.5515,19.5244,19.4891,19.4945,19.4655,19.4556,19.4087,19.312,19.2294,19.1852,19.1925,19.2441,19.3104,19.3767,19.9805,19.9805,19.9805,19.935,19.8591,19.8515,19.7605,19.6314,19.6922,19.7301,19.7605,19.8136,19.8439,19.8819,19.9578,19.8895,19.7453,19.6314,19.5707,19.5176,19.4873,19.5632,19.5632,19.7225,19.7377,19.7453,19.8136,19.8515,19.8515,19.8439,19.8212,19.7225,19.639,19.5252,19.3962,19.2824,19.1534,19.032,18.9864,18.9485,18.865,18.8043,18.7208,18.7512,18.7512,18.736,18.736,18.5842,18.5766,18.6601,18.5008,18.4856,18.4856,18.4173,18.2731,18.349,18.4262,18.5092,18.6167,18.7617,18.8831,18.9878,19.1949,19.3718,19.4773,19.6183,19.7092,19.8152,19.8758,19.9819,20.0576,19.9894,19.9894,20.0425,20.0046,19.9874,20.0224,20.0376,20.0463,20.0191,19.9363,19.9095,19.9335,19.941,19.9335,19.9109,19.8884,19.8959,19.9109,19.8583,19.8057,19.8057,19.8057,19.8057,19.8057,19.8057,19.7995,19.7795,19.7458,19.711,19.6587,19.6105,19.5777,19.6074,19.5589,19.541,19.5301,19.5538,19.4135,19.3135,19.3356,19.3577,19.3546,19.3694,19.4283,19.9805,19.9805,19.9805,19.9805,19.9805,19.9805,19.897,19.7832,19.7832,19.7756,19.7832,19.7756,19.8743,19.9426,19.9805,19.9122,19.8212,19.7756,19.6997,19.5935,19.6314,19.6466,19.6314,19.7605,19.8212,19.806,19.8819,19.9578,19.9653,19.9805,19.9426,19.935,19.7984,19.639,19.4721,19.3279,19.161,19.0168,18.9864,18.9864,18.9637,18.9409,18.903,18.8119,18.8119,18.7588,18.607,18.4552,18.4401,18.6677,18.4325,18.4628,18.5387,18.3869,18.2352,18.2124,18.2503,18.3415,18.4421,18.5948,18.6727,18.7486,18.9741,19.1545,19.2225,19.3532,19.5425,19.6637,19.7698,19.8607,19.8986,19.891,19.9061,19.944,19.9409,19.9496,19.9317,19.9275,19.9209,19.8969,19.8552,19.8282,19.8432,19.8583,19.8583,19.8583,19.8432,19.8508,19.8658,19.8357,19.8057,19.8057,19.8057,19.8057,19.8057,19.8057,19.8057,19.7933,19.7731,19.7466,19.7182,19.6739,19.6957,19.7787,19.7633,19.7463,19.7042,19.6763,19.6246,19.6427,19.5935,19.5629,19.582,19.6115,19.641,19.9805,19.9805,19.9805,19.9805,19.9805,19.9805,19.9653,19.935,19.9426,19.9274,19.9426,19.9426,19.935,19.9805,19.9805,19.9729,19.935,19.9198,19.8439,19.7073,19.7453,19.7149,19.6997,19.7605,19.7908,19.7605,19.9046,19.9729,19.9805,19.9805,19.9729,19.9426,19.806,19.639,19.4949,19.3279,19.1761,19.0699,19.0471,19.0395,19.032,19.0092,19.0016,18.9485,18.9409,18.8954,18.8422,18.7208,18.6753,18.7208,18.5539,18.4932,18.4704,18.3262,18.182,18.0303,18.1289,18.2048,18.2839,18.4112,18.5143,18.5154,18.8007,18.9725,19.0606,19.2396,19.4062,19.4895,19.535,19.6031,19.7243,19.7471,19.8077,19.8986,19.9364,19.9276,19.9007,19.8877,19.8491,19.8084,19.7906,19.8057,19.8057,19.8057,19.8057,19.8132,19.8132,19.8132,19.8207,19.8057,19.8057,19.8057,19.8057,19.8057,19.8057,19.8057,19.8057,19.7995,19.7995,19.7933,19.787,19.7997,19.868,19.9415,20.0165,20.048,20.0327,19.9328,19.9139,19.9871,19.9512,19.8478,19.8402,19.8538,19.7664,19.9805,19.9805,19.9805,19.9805,19.9805,19.9805,19.9805,19.9805,19.9805,19.9805,19.9805,19.9805,19.9805,19.9805,19.9805,19.9805,19.9805,19.9805,19.935,19.8819,19.8591,19.8136,19.768,19.806,19.8667,19.8819,19.9502,19.9805,19.9805,19.9729,19.9426,19.8439,19.6846,19.5859,19.4797,19.3279,19.252,19.2368,19.2596,19.2596,19.2368,19.1761,19.123,19.123,19.0395,18.9864,18.9788,18.8271,18.7967,18.8119,18.7057,18.5159,18.2731,18.22,18.0986,17.924,17.9468,17.9981,18.1227,18.2447,18.3753,18.4666,18.6898,18.8362,18.9849,19.0805,19.2244,19.3002,19.338,19.3911,19.5501,19.5728,19.6562,19.7698,19.8152,19.8443,19.8543,19.7861,19.7156,19.703,19.738,19.7831,19.8057,19.8057,19.8057,19.8057,19.8057,19.8057,19.8057,19.8057,19.8057,19.8057,19.8057,19.8057,19.8057,19.8057,19.8057,19.8057,19.8282,19.8432,19.8733,19.9511,20.0294,20.1035,20.1776,20.2478,20.2723,20.1754,20.1145,20.1425,20.1385,20.1164,20.0696,20.0304,19.9409,19.9805,19.9805,19.9805,19.9805,19.9805,19.9805,19.9805,19.9805,19.9805,19.9805,19.9805,19.9805,19.9805,19.9805,19.9805,19.9805,19.9805,19.9805,19.9805,19.9805,19.9805,19.897,19.8515,19.9046,19.9729,19.9729,19.9805,19.9805,19.9805,19.9729,19.9122,19.7908,19.6846,19.548,19.5328,19.4114,19.3734,19.4721,19.4797,19.4721,19.4341,19.3507,19.2748,19.2217,19.1154,19.0395,18.9712,18.8271,18.7891,18.8195,18.7208,18.4704,18.182,18.1365,18.0303,17.8254,17.7419,17.7723,17.9102,18.0427,18.1916,18.3194,18.4841,18.6783,18.8258,18.876,18.982,19.1108,19.1487,19.2017,19.3153,19.3729,19.4895,19.6001,19.65,19.6743,19.7215,19.6254,19.5391,19.5317,19.6026,19.7079,19.738,19.7305,19.7681,19.8057,19.8057,19.8057,19.8057,19.8057,19.8057,19.8057,19.8057,19.8057,19.8057,19.8057,19.8057,19.8057,19.8733,19.9184,19.9786,20.0551,20.2292,20.3182,20.3621,20.402,20.458,20.3844,20.3847,20.3099,20.2783,20.3207,20.3235,20.1979,20.1144,19.9805,19.9805,19.9805,19.9805,19.9805,19.9805,19.9805,19.9805,19.9805,19.9805,19.9805,19.9805,19.9805,19.9805,19.9805,19.9805,19.9805,19.9805,19.9805,19.9805,19.9805,19.9729,19.9274,19.9729,19.9729,19.9578,19.9805,19.9729,19.9578,19.9729,19.9653,19.8819,19.7605,19.7073,19.6466,19.548,19.4873,19.5328,19.5556,19.5556,19.548,19.5024,19.4038,19.2976,19.2141,19.1306,18.9864,18.8347,18.6677,18.5463,18.5235,18.3869,18.22,18.0455,17.9164,17.7647,17.6357,17.6205,17.7584,17.8342,17.8892,18.0771,18.2213,18.3295,18.5205,18.6639,18.8002,18.9593,18.9744,19.0047,19.0578,19.1562,19.2972,19.4304,19.4508,19.4245,19.4115,19.3764,19.3583,19.3453,19.3395,19.4372,19.5274,19.5951,19.6402,19.7229,19.7906,19.7981,19.8057,19.8057,19.8057,19.8057,19.8057,19.8057,19.8057,19.8057,19.8057,19.8132,19.8884,19.9485,20.0087,20.1966,20.3921,20.535,20.5651,20.6038,20.6209,20.6509,20.6951,20.6306,20.5123,20.5572,20.5709,20.3905,20.1905,19.9805,19.9805,19.9805,19.9805,19.9805,19.9805,19.9805,19.9805,19.9805,19.9805,19.9805,19.9805,19.9805,19.9805,19.9805,19.9805,19.9805,19.9805,19.9805,19.9805,19.9805,19.9805,19.9805,19.9805,19.9274,19.8591,19.935,19.9198,19.8667,19.9426,19.9198,19.8363,19.7605,19.7301,19.7225,19.6618,19.677,19.7529,19.7756,19.7756,19.768,19.6846,19.5556,19.4114,19.2824,19.1685,18.994,18.8271,18.607,18.4021,18.3262,18.22,17.9847,17.8785,17.8178,17.7495,17.5901,17.6129,17.8139,17.8814,17.9498,18.0937,18.1695,18.2954,18.4314,18.5103,18.626,18.7775,18.8002,18.8533,18.9366,19.0123,19.1305,19.2422,19.1675,19.0843,19.0649,19.1345,19.1706,19.1949,19.2417,19.3395,19.3921,19.5049,19.5801,19.6553,19.7229,19.7756,19.7981,19.8057,19.8057,19.8057,19.8057,19.8057,19.8057,19.8057,19.8057,19.8057,19.8583,19.9184,20.0613,20.2869,20.4824,20.6478,20.738,20.7831,20.7467,20.7542,20.7681,20.7316,20.7702,20.7136,20.6171,20.4708,20.252,19.9805,19.9805,19.9805,19.9805,19.9805,19.9805,19.9805,19.9805,19.9805,19.9805,19.9805,19.9805,19.9805,19.9805,19.9805,19.9805,19.9805,19.9805,19.9805,19.9805,19.9805,19.9805,19.9805,19.935,19.8287,19.6997,19.768,19.7908,19.6846,19.7756,19.7756,19.6694,19.6618,19.6846,19.7225,19.7225,19.8212,19.9578,19.9805,19.9729,19.9502,19.8515,19.7225,19.5632,19.4038,19.2368,19.0623,18.8574,18.5918,18.3262,18.2276,18.0455,17.8633,17.7874,17.7571,17.7191,17.6053,17.6205,17.8431,17.9035,17.9881,18.1398,18.1365,18.2246,18.3806,18.3966,18.4697,18.5881,18.6307,18.6959,18.8352,18.8745,18.947,19.0428,18.9241,18.8187,18.8687,18.9373,19.0011,19.0086,19.0913,19.1665,19.2417,19.3319,19.4146,19.4974,19.6101,19.7229,19.7305,19.738,19.8057,19.8057,19.7906,19.7981,19.8057,19.8057,19.8057,19.8057,19.8357,19.8959,20.0688,20.2493,20.4448,20.6328,20.5876,20.5726,20.6328,20.6854,20.6628,20.5952,20.6189,20.6124,20.5494,20.4891,20.2589,19.9805,19.9805,19.9805,19.9805,19.9805,19.9805,19.9805,19.9805,19.9805,19.9805,19.9805,19.9805,19.9805,19.9805,19.9805,19.9805,19.9805,19.9805,19.9729,19.9426,19.935,19.9426,19.935,19.8287,19.6922,19.548,19.548,19.5328,19.51,19.5556,19.5176,19.5328,19.5404,19.5783,19.6846,19.7225,19.7908,19.9122,19.9502,19.9426,19.9426,19.935,19.8667,19.6922,19.5404,19.381,19.1913,18.9181,18.6677,18.4628,18.2048,18.0455,17.9544,17.8254,17.7647,17.7571,17.5901,17.6357,17.7191,17.8139,17.8691,18.0022,18.0254,18.0579,18.1927,18.2321,18.2852,18.4366,18.4474,18.5199,18.6561,18.6837,18.7368,18.8605,18.7278,18.6879,18.7887,18.8281,18.8582,18.8582,18.8432,18.9033,19.0688,19.1064,19.1966,19.3094,19.4598,19.55,19.5876,19.6477,19.7681,19.7831,19.753,19.7681,19.8057,19.8057,19.8057,19.8057,19.8207,19.8884,20.0087,20.0914,20.2267,20.317,20.347,20.3395,20.3621,20.4072,20.4222,20.4448,20.4523,20.4373,20.4047,20.3701,20.2403,19.9805,19.9805,19.9805,19.9805,19.9805,19.9805,19.9805,19.9805,19.9805,19.9805,19.9805,19.9805,19.9805,19.9805,19.9805,19.9805,19.9805,19.9805,19.8743,19.6997,19.677,19.7377,19.806,19.7529,19.6466,19.5252,19.5024,19.4417,19.3507,19.4417,19.5024,19.4949,19.5024,19.5252,19.5707,19.5859,19.6011,19.6618,19.677,19.677,19.6997,19.768,19.7453,19.6011,19.5252,19.4114,19.2444,19.0244,18.8195,18.6374,18.4325,18.2503,18.1365,17.9847,17.8937,17.8633,17.7647,17.7191,17.8709,17.8785,17.9266,17.9686,17.9805,18.015,18.048,18.0599,18.1212,18.2473,18.2701,18.3324,18.4668,18.4926,18.5121,18.5787,18.4821,18.4989,18.6383,18.7454,18.8056,18.8056,18.8131,18.8432,18.9259,18.9861,19.0988,19.159,19.2943,19.3921,19.4146,19.4598,19.55,19.6177,19.6553,19.7229,19.7831,19.7981,19.8057,19.8057,19.8057,19.8733,19.9184,19.9786,20.0312,20.1215,20.1966,20.1966,20.2117,20.2342,20.2267,20.2944,20.332,20.3107,20.2838,20.2498,20.1967,19.9805,19.9805,19.9805,19.9805,19.9805,19.9805,19.9805,19.9805,19.9805,19.9805,19.9805,19.9805,19.9805,19.9729,19.9274,19.9046,19.9046,19.8439,19.7149,19.5328,19.51,19.5632,19.6314,19.6011,19.5176,19.4266,19.3659,19.2748,19.2065,19.2748,19.3431,19.3355,19.3355,19.3659,19.4114,19.419,19.4569,19.4873,19.5024,19.5252,19.5783,19.6314,19.6694,19.6314,19.548,19.419,19.252,19.032,18.865,18.736,18.5311,18.3262,18.1745,18.0455,17.9847,17.9696,17.8785,17.8633,17.9089,17.9468,17.9544,17.9277,17.9571,17.9798,17.9771,17.971,18.0127,18.0882,18.1036,18.162,18.2862,18.3186,18.3008,18.2923,18.2642,18.3018,18.4597,18.58,18.6702,18.7229,18.7379,18.768,18.8206,18.8958,18.9785,19.0011,19.1289,19.2267,19.2417,19.2868,19.362,19.4598,19.535,19.6101,19.6929,19.738,19.7756,19.8057,19.8057,19.8432,19.8583,19.8884,19.9335,20.0011,20.0613,20.0914,20.1064,20.1064,20.0763,20.1064,20.129,20.139,20.1561,20.1152,20.0536,19.9805,19.9805,19.9805,19.9805,19.9805,19.9805,19.9805,19.9805,19.9729,19.9502,19.9426,19.9578,19.9274,19.9274,19.7908,19.7225,19.6846,19.5556,19.4721,19.4493,19.4569,19.4721,19.4873,19.3659,19.2824,19.2672,19.1003,19.0244,19.0168,19.032,19.0395,19.0168,19.0395,19.123,19.2444,19.252,19.3203,19.419,19.4417,19.5328,19.6846,19.5783,19.639,19.8515,19.6314,19.4038,19.2444,18.9485,18.7891,18.7132,18.4401,18.1745,18.0758,17.9999,17.9696,17.9468,17.9544,17.8861,17.7874,17.8785,17.8937,17.8191,17.8943,17.9805,17.9784,17.9696,17.9635,17.9773,17.9674,18.0073,18.1506,18.1431,18.1004,18.0762,18.0837,18.1439,18.2717,18.3168,18.377,18.533,18.5875,18.6402,18.7605,18.8357,18.8507,18.8733,18.971,19.0688,19.0763,19.159,19.2718,19.3244,19.3846,19.4823,19.5876,19.6853,19.738,19.7906,19.7681,19.7906,19.7981,19.8282,19.8808,19.8884,19.9485,19.9485,19.9636,19.9636,19.941,19.9335,19.8822,19.891,19.9326,19.9507,19.8962,19.9805,19.9805,19.9805,19.9805,19.9805,19.9805,19.9805,19.9653,19.8591,19.8136,19.7908,19.6997,19.6542,19.639,19.6011,19.5176,19.3886,19.2293,19.1534,19.1534,19.1534,19.2141,19.2976,19.2672,19.2444,19.2293,19.1837,19.1003,19.0092,18.9864,18.9864,18.9864,18.9864,19.0244,19.0623,19.0699,19.0927,19.1382,19.1534,19.2368,19.3886,19.4569,19.548,19.6011,19.4417,19.2976,19.2444,19.1382,18.9864,18.7664,18.6374,18.5008,18.3186,18.1062,17.8861,17.6812,17.6509,17.6281,17.5977,17.7343,17.8026,17.7571,17.886,17.9805,17.9784,17.9709,17.9503,17.9394,17.922,17.923,17.9658,17.9599,17.9422,17.9313,17.9183,17.971,18.1213,18.1514,18.2266,18.3544,18.4672,18.565,18.6477,18.7454,18.7981,18.8206,18.8582,18.8958,18.8958,18.9485,19.0011,19.1289,19.2041,19.3303,19.4823,19.4748,19.4823,19.5951,19.6177,19.7004,19.7455,19.7906,19.8207,19.8132,19.8132,19.8132,19.8132,19.8132,19.8207,19.8207,19.8132,19.8146,19.7975,19.7934,19.755,19.9805,19.9805,19.9198,19.8895,19.8819,19.8287,19.806,19.7984,19.6922,19.6466,19.6239,19.5404,19.5024,19.4873,19.3734,19.252,19.1458,19.0395,18.9864,18.9864,18.9864,19.0471,19.1458,19.1534,19.1534,19.1534,19.1534,19.0927,18.994,18.9864,18.9864,18.9864,18.9864,18.9864,18.9864,18.9864,18.9864,18.9864,18.9864,19.0775,19.2444,19.29,19.3431,19.3962,19.2976,19.2217,19.1534,19.1534,19.032,18.7512,18.6829,18.5463,18.311,18.0455,17.7723,17.5294,17.4915,17.4915,17.5143,17.6509,17.7495,17.7571,17.8918,17.9795,17.9798,17.9657,17.9446,17.9318,17.9155,17.8977,17.8713,17.8618,17.8669,17.8486,17.8356,17.8732,17.9559,17.986,18.0236,18.1364,18.2792,18.4146,18.4766,18.6251,18.7229,18.7304,18.783,18.8131,18.8206,18.8206,18.8657,18.956,19.0312,19.1498,19.3771,19.2718,19.2718,19.3921,19.4748,19.5425,19.5575,19.5801,19.6026,19.5801,19.6628,19.6778,19.6929,19.7079,19.8057,19.8057,19.8057,19.7995,19.7731,19.7189,19.6493,19.9653,19.9274,19.7832,19.7225,19.7073,19.5707,19.51,19.5252,19.4949,19.4873,19.4797,19.4645,19.4721,19.4341,19.1534,18.994,18.9788,18.9712,18.9561,18.9409,18.9561,18.9788,18.9788,18.9864,18.994,19.0168,19.0168,19.0016,18.994,18.9864,18.9864,18.9864,18.9864,18.9864,18.9864,18.9864,18.9864,18.9864,18.9864,19.0699,19.2065,19.0851,19.0927,19.2141,19.2141,19.123,19.0016,18.9788,18.8954,18.7208,18.5766,18.3338,18.0075,17.8254,17.6584,17.4991,17.4763,17.4763,17.4915,17.6433,17.7495,17.7647,17.8886,17.9762,17.9728,17.9505,17.9407,17.9311,17.9015,17.8755,17.8568,17.8544,17.8544,17.8335,17.8281,17.8281,17.8356,17.8507,17.8281,17.8732,17.9935,18.1439,18.2886,18.4465,18.5424,18.6026,18.7003,18.7981,18.8056,18.8206,18.8206,18.8657,18.9409,19.0595,19.0612,19.0537,19.1289,19.2417,19.3019,19.3094,19.3019,19.3019,19.3169,19.3545,19.4673,19.5425,19.5726,19.6327,19.7305,19.7756,19.7681,19.7933,19.7666,19.6815,19.5807,19.6314,19.6239,19.5859,19.5632,19.5556,19.5176,19.5024,19.4873,19.3659,19.3127,19.2976,19.1837,19.1306,19.1154,19.0395,18.9181,18.8195,18.8043,18.7436,18.6449,18.7512,18.8043,18.8195,18.9257,18.9864,18.9864,18.9788,18.9864,18.9864,18.9864,18.9864,18.9864,18.9864,18.9864,18.9864,18.9864,18.9864,18.9864,18.9864,19.0775,19.1989,19.0775,19.0168,19.0471,18.9409,18.8574,18.8119,18.8043,18.6753,18.3945,18.4476,18.2807,17.8406,17.6584,17.4915,17.3321,17.3094,17.3094,17.3094,17.5826,17.7495,17.7584,17.8721,17.95,17.9516,17.9276,17.9112,17.8951,17.8594,17.8342,17.8356,17.8335,17.8389,17.8281,17.8281,17.8281,17.8206,17.8281,17.8281,17.8281,17.8732,17.9559,18.1213,18.2717,18.4146,18.5199,18.5951,18.6627,18.783,18.8131,18.8206,18.8206,18.8507,18.8808,18.8883,18.9033,18.9635,19.0688,19.1289,19.1665,19.2868,19.2943,19.3019,19.2116,19.3094,19.3771,19.3921,19.5049,19.6177,19.6402,19.7154,19.792,19.7666,19.6815,19.574,19.5024,19.5024,19.5024,19.4569,19.3886,19.3203,19.29,19.2824,19.1837,19.1458,19.1154,18.8878,18.7815,18.7815,18.7891,18.7284,18.6374,18.6374,18.5766,18.5084,18.5842,18.6374,18.6374,18.6753,18.6829,18.6829,18.6829,18.7208,18.7891,18.8574,18.9257,18.9788,18.9864,18.9864,18.9864,18.9864,18.9864,18.9864,18.9864,19.0395,19.1154,19.0395,18.9864,18.9712,18.8271,18.7132,18.6449,18.6374,18.4476,18.091,18.2579,18.1289,17.575,17.5143,17.3853,17.1652,17.2031,17.3018,17.4384,17.6281,17.7723,17.8406,17.9039,17.9405,17.9418,17.9041,17.8447,17.774,17.7379,17.7529,17.8055,17.7604,17.7228,17.7228,17.7228,17.7153,17.7228,17.783,17.8281,17.8281,17.8281,17.8732,17.9634,18.0537,18.174,18.3319,18.4973,18.5951,18.6928,18.7755,18.8056,18.8056,18.753,18.7454,18.8131,18.8206,18.8582,18.9334,18.971,18.9785,19.0763,19.1064,19.1064,19.0913,19.159,19.2041,19.1966,19.3395,19.4522,19.4823,19.5801,19.7244,19.7656,19.689,19.4404,19.4493,19.4493,19.4341,19.3583,19.2065,19.0395,18.9637,18.9485,18.9409,18.9409,18.8726,18.5994,18.4628,18.4401,18.4401,18.4401,18.4325,18.4401,18.4325,18.4249,18.4552,18.4628,18.4476,18.3338,18.2579,18.2807,18.2959,18.3869,18.5159,18.6298,18.7739,18.9257,18.9409,18.9333,18.9409,18.9561,18.9637,18.9637,18.9561,18.9561,18.9637,18.9637,18.9788,18.9864,18.8119,18.6374,18.4704,18.4628,18.2352,17.8026,18.0303,17.9164,17.3549,17.3701,17.3094,17.021,17.1121,17.3473,17.6509,17.7191,17.7723,17.9102,17.8894,17.87,17.8735,17.8326,17.7335,17.6008,17.5499,17.61,17.7454,17.6401,17.5574,17.552,17.5499,17.5499,17.5649,17.6927,17.783,17.783,17.7454,17.783,17.7905,17.8131,17.8807,18.0612,18.2943,18.4823,18.5424,18.6402,18.7154,18.7154,18.6402,18.6176,18.7379,18.7906,18.7981,18.8206,18.8206,18.8432,18.8657,18.8582,18.8131,18.8733,18.9184,18.971,19.0086,19.1214,19.2041,19.1816,19.3094,19.4927,19.5822,19.5092,19.2452,19.1078,19.1078,19.1078,19.0851,19.032,18.865,18.7208,18.5994,18.5994,18.5235,18.4097,18.3262,18.2124,18.0986,18.091,18.0986,18.0986,18.091,18.091,18.1062,18.2276,18.2883,18.2959,18.3945,18.4325,18.4325,18.4325,18.4476,18.4704,18.3869,18.4325,18.5842,18.5994,18.5994,18.5994,18.7284,18.7967,18.7891,18.6677,18.6677,18.7891,18.7967,18.8574,18.9561,18.6981,18.4628,18.3035,18.2883,18.0606,17.6129,17.8633,17.795,17.2866,17.1576,17.0741,16.9982,16.9072,16.9982,17.3245,17.4763,17.5674,17.5977,17.5645,17.5329,17.5353,17.4893,17.4352,17.4025,17.3973,17.4016,17.4467,17.4145,17.392,17.392,17.392,17.392,17.392,17.4221,17.4521,17.4446,17.4446,17.5048,17.595,17.6326,17.7003,17.8582,18.0537,18.2341,18.3394,18.392,18.4221,18.4146,18.392,18.4372,18.5875,18.6176,18.6702,18.8056,18.8056,18.783,18.7906,18.8056,18.7755,18.6477,18.6627,18.6477,18.5349,18.6327,18.7304,18.7755,18.9109,19.0027,19.0447,18.978,18.7379,18.7588,18.7588,18.7588,18.7588,18.7512,18.6601,18.5691,18.478,18.3262,18.2048,18.1137,18.0455,17.9999,17.9772,17.9089,17.9089,17.9772,17.9772,17.9772,17.9847,17.9999,18.0151,18.0151,18.0227,18.0303,18.0379,18.1062,18.182,18.2503,18.2428,18.3186,18.478,18.4856,18.4856,18.4932,18.5766,18.6222,18.6222,18.607,18.6449,18.736,18.7436,18.7815,18.865,18.4704,18.2124,18.1213,18.0455,17.8557,17.5067,17.7343,17.6812,17.2638,17.0817,16.9527,16.8768,16.7844,16.8148,16.9969,17.1676,17.2598,17.2684,17.2838,17.2355,17.0852,17.0233,17.0588,17.2017,17.219,17.2566,17.3318,17.2717,17.2266,17.219,17.2266,17.2266,17.2266,17.2867,17.3393,17.3393,17.3446,17.3747,17.4521,17.4618,17.5069,17.595,17.7379,17.9409,18.1665,18.0837,18.0161,18.1665,18.2041,18.2717,18.4146,18.4447,18.4823,18.565,18.5875,18.58,18.58,18.58,18.5424,18.4672,18.4447,18.4071,18.3469,18.392,18.4296,18.4597,18.58,18.6853,18.7021,18.691,18.4932,18.4856,18.4856,18.4856,18.4856,18.4856,18.4628,18.4476,18.4249,18.0682,17.9013,17.8709,17.7343,17.7419,17.833,17.6964,17.7267,17.8709,17.8785,17.8937,17.9089,17.795,17.7495,17.7419,17.6205,17.5598,17.575,17.7116,17.8482,17.9772,18.1062,18.2503,18.3869,18.3945,18.3869,18.4173,18.4401,18.4401,18.4173,18.5615,18.6449,18.6677,18.6677,18.6905,18.7132,18.2731,18.0151,18.0151,17.8709,17.6888,17.5067,17.6509,17.5901,17.2638,17.0589,16.892,16.7478,16.6934,16.6706,16.6719,16.8206,16.9066,16.8921,16.9924,16.9191,16.5849,16.5498,16.6677,16.946,16.9935,17.0762,17.2017,17.1138,17.0536,17.0461,17.0536,17.0536,17.0536,17.1664,17.2416,17.2416,17.2694,17.2619,17.2942,17.3039,17.319,17.3619,17.4897,17.6401,17.8356,17.7228,17.6852,17.8958,17.971,18.0386,18.1289,18.1965,18.1965,18.2341,18.2642,18.3018,18.3018,18.3319,18.3319,18.2868,18.2792,18.2642,18.2266,18.2416,18.2266,18.2266,18.3168,18.4221,18.4221,18.4566,18.3359,18.4856,18.4856,18.4856,18.4856,18.478,18.3338,18.2807,18.2428,17.7874,0.0,0.0,17.3397,17.2714,17.1652,17.1348,17.2107,17.3701,17.3701,17.446,17.5826,17.6964,17.7495,17.7495,17.8482,17.8937,17.8937,17.924,17.9544,17.9772,17.8785,17.9089,18.0455,17.9392,17.9468,18.0682,18.2048,18.2124,18.0834,18.0986,18.182,18.3186,18.3262,18.4552,18.7284,18.3793,18.1896,18.1896,18.0303,17.8026,17.5143,17.6509,17.5901,17.2562,16.9451,16.7706,16.7251,16.4746,16.3229,16.338,16.4834,16.5149,16.3924,16.4898,16.4122,16.0761,16.2566,16.4145,16.4671,16.5949,16.68,16.7101,16.8055,16.8807,16.8807,16.8807,16.8807,16.8807,16.9107,16.9333,16.9258,16.9333,16.9709,17.1138,17.131,17.1761,17.3017,17.3544,17.4145,17.4446,17.4221,17.407,17.4822,17.5348,17.5499,17.6627,17.7228,17.7604,17.8958,18.0236,18.1138,18.1364,18.2266,18.2492,18.1138,18.1138,18.0537,17.9484,17.9183,17.9108,17.9108,17.9334,17.9559,17.9504,17.8977,17.7993,18.182,18.1137,18.1137,18.0606,0.0,17.8937,17.8557,17.8406,17.5977,17.446,17.3625,17.279,17.2411,17.2411,17.1576,17.2107,17.3701,17.3701,17.4156,17.4915,17.4915,17.4915,17.4915,17.575,17.6053,17.6129,17.6964,17.7799,17.8557,17.7799,17.8254,17.9772,17.9013,17.9013,17.9772,18.0606,18.0606,17.9772,18.0682,18.1441,18.2276,18.2352,18.311,18.4628,18.1593,0.0,0.0,0.0,0.0,0.0,0.0,0.0,0.0,16.7175,16.5202,16.596,16.2166,15.989,15.989,15.9131,15.8676,15.8676,15.846,15.7898,15.6953,16.0235,16.2314,16.2239,16.3694,16.4569,16.4644,16.5372,16.5874,16.5874,16.5874,16.5874,16.5949,16.6551,16.7077,16.7077,16.7754,16.8581,16.9483,16.9559,16.9935,17.0686,17.1514,17.2115,17.2115,17.2115,17.2115,17.2115,17.2717,17.3619,17.4371,17.4521,17.4972,17.5574,17.6476,17.7003,17.7003,17.7679,17.798,17.7228,17.7003,17.7153,17.6852,17.7003,17.7098,17.7622,17.7788,17.7112,17.4426,17.4074,17.3818,17.8178,17.704,17.6964,17.6205,17.4839,17.3549,17.3018,17.3018,17.3018,17.3018,17.2942,17.1576,17.1728,17.2866,17.1576,17.1728,17.3018,17.3018,17.3245,17.3473,17.2411,17.1955,17.1955,17.2259,17.2259,17.2031,17.3321,17.4839,17.6509,17.6509,17.7343,17.8861,17.8861,17.9013,17.9316,0.0,0.0,0.0,18.1062,18.182,18.182,18.182,18.1972,18.2276,17.9772,0.0,18.0075,17.7419,17.6357,17.7267,17.3245,0.0,0.0,0.0,0.0,0.0,0.0,0.0,0.0,0.0,0.0,0.0,15.0814,15.1315,15.3044,15.6992,15.9417,15.9128,16.0912,16.1938,16.1638,16.214,16.2516,16.2566,16.2566,16.2641,16.3017,16.407,16.5047,16.5348,16.6777,16.7829,16.7904,16.8205,16.8356,16.8581,16.9559,17.0311,17.0386,17.0386,17.0386,17.0461,17.1363,17.2266,17.2416,17.2341,17.2266,17.2491,17.2642,17.3017,17.3093,17.3318,17.3544,17.3093,17.2942,17.3318,17.3995,17.4296,17.4337,17.5356,17.5606,17.4504,16.9987,16.9942,17.0685,17.5446,17.5294,17.5218,17.5143,17.446,16.8616,16.6112,16.6112,16.6112,16.6112,16.6112,16.596,16.5885,16.6112,16.5885,16.596,16.6112,16.6112,16.6947,16.8389,16.9603,17.021,17.0286,17.1728,17.1652,17.0286,17.0438,17.1424,17.3018,17.3094,17.3928,17.5522,17.5598,17.6281,17.7647,17.6281,17.6281,17.7799,17.9316,18.0151,18.0151,18.0151,18.0834,18.2276,18.1896,18.182,18.1896,18.0227,17.8633,17.7495,17.5446,17.2942,17.0058,16.7858,16.4898,0.0,15.7234,0.0,0.0,0.0,0.0,0.0,0.0,0.0,0.0,15.0989,15.2794,15.2311,15.5074,15.6303,15.495,15.743,15.9133,15.9107,15.9107,15.9708,16.1062,16.1438,16.2115,16.3618,16.5173,16.615,16.6175,16.7453,16.8356,16.828,16.8506,16.8656,16.8581,16.8656,16.8807,16.8656,16.8882,16.9408,16.9333,16.9183,16.9183,16.9258,17.0235,17.1213,17.1213,17.2266,17.2792,17.1514,17.1062,17.0686,16.9483,16.9408,16.9431,16.9775,17.0258,16.9471,16.6573,16.6741,16.7808,17.1576,17.0741,17.0741,17.021,16.9148,16.6112,16.4898,16.4898,16.4898,16.4291,16.3532,16.4443,16.4291,16.3532,16.4443,16.4367,16.3532,16.4443,16.5278,16.596,16.5733,16.6188,16.7099,16.6871,16.6947,16.7099,16.7099,16.8009,16.9603,17.0514,17.188,17.3549,17.446,17.4384,17.3321,17.2562,17.2942,17.4687,17.7191,17.8937,17.9772,17.9772,18.0151,18.091,18.091,18.053,17.9696,17.7116,17.537,17.4611,17.0362,16.763,16.7023,16.2014,15.9662,0.0,0.0,0.0,0.0,0.0,0.0,0.0,0.0,0.0,0.0,0.0,14.5886,14.8272,15.1348,15.183,14.8384,15.1842,15.3946,15.3016,15.2941,15.3543,15.5272,15.625,15.7829,16.0385,16.2089,16.3491,16.437,16.5949,16.6875,16.6927,16.6927,16.6626,16.5949,16.7303,16.8356,16.8356,16.8356,16.8356,16.8356,16.8356,16.8356,16.8431,16.8957,16.9483,16.9483,16.9333,16.8957,16.8205,16.7303,16.6777,16.6927,16.6927,16.7016,16.6915,16.5633,16.3532,16.1745,16.2422,16.3339,16.7933,16.6568,16.376,16.1863,16.0649,16.0649,16.118,16.1863,16.1939,16.1407,16.0649,16.1939,16.1559,15.9966,16.0421,16.0421,15.9966,16.0876,16.2166,16.3532,16.1939,16.209,16.3608,16.2318,16.2242,16.3001,16.3077,16.4139,16.6112,16.7099,16.8768,17.1197,17.2487,17.1424,16.8237,16.892,17.0134,17.1804,17.4384,17.6812,17.9164,17.962,17.962,17.9316,17.962,17.8709,17.6357,17.3777,17.188,17.0589,16.4974,16.1787,16.1863,15.5476,0.0,0.0,0.0,0.0,0.0,0.0,0.0,0.0,0.0,13.1389,13.1508,0.0,13.9192,0.0,14.6621,14.7142,14.3392,14.6429,0.0,0.0,14.6625,14.7076,14.9557,15.061,15.264,15.625,15.815,15.9955,16.1964,16.3643,16.447,16.4145,16.4746,16.4972,16.4295,16.625,16.7829,16.8205,16.798,16.7754,16.7679,16.7453,16.7077,16.7152,16.7152,16.7152,16.7152,16.61,16.5122,16.4596,16.3618,16.3242,16.3844,16.407,16.3829,16.2774,15.9971,15.7152,15.6712,15.7856,15.8992,16.5202,16.4139,15.3439,14.8886,14.8735,14.8735,15.0556,15.3364,15.3364,15.4198,15.5488,15.564,15.473,15.2984,15.0101,0.0,15.3136,15.1694,15.4426,16.0269,15.86,15.8751,16.0345,16.0193,15.9434,15.8068,15.8068,15.9662,16.2546,16.1407,16.3153,16.7706,16.7933,16.6264,16.3229,16.6036,16.8389,17.0058,17.0362,17.279,17.7495,17.9089,17.9164,17.7723,17.9089,17.7571,17.3094,17.2487,17.0286,16.5657,16.209,15.8068,15.3667,0.0,0.0,0.0,0.0,0.0,0.0,0.0,0.0,0.0,0.0,0.0,0.0,0.0,0.0,13.4792,13.9161,0.0,14.1318,14.1694,0.0,0.0,0.0,14.1211,14.5873,14.5196,14.6324,15.1061,0.0,0.0,15.843,16.026,16.0711,15.9257,16.1663,16.4145,16.5423,16.5724,16.6551,16.7904,16.7002,16.6025,16.5949,16.4972,16.4145,16.4145,16.3844,16.3919,16.3844,16.3543,16.2942,16.1588,16.1212,16.0761,15.9257,15.8983,15.7697,15.365,15.2409,15.1895,15.1574,15.3697,15.5603,15.5488,15.2301,14.6686,14.4409,14.4333,14.3347,14.4789,14.7824,14.7824,14.8203,14.8886,14.9873,14.8886,14.6306,14.5016,0.0,0.0,0.0,14.9797,15.2377,15.2681,15.3819,15.5337,15.5412,15.5564,15.5944,15.5944,15.6551,15.7841,15.9283,15.951,15.8372,0.0,15.9662,15.9434,16.2697,16.4139,16.4063,16.7858,17.1348,17.4384,17.6053,17.6584,17.5977,17.5522,17.3928,17.0969,16.7933,16.4898,16.2014,15.6778,15.2984,0.0,0.0,0.0,0.0,0.0,0.0,0.0,0.0,0.0,0.0,0.0,11.3299,11.2597,0.0,0.0,0.0,12.5681,12.7415,13.0459,13.5154,0.0,0.0,0.0,0.0,0.0,0.0,0.0,14.1737,14.6112,14.9873,15.2142,15.2996,15.357,15.3919,15.7678,16.0686,16.1287,0.0,16.4671,16.5273,16.4822,16.437,16.437,16.3844,16.3468,16.3468,16.2641,16.1663,16.0611,15.9558,15.8731,15.793,15.6878,15.5799,15.5224,15.4175,15.2869,15.151,15.1227,15.071,14.9281,15.0741,15.2067,14.5016,0.0,0.0,0.0,0.0,13.7579,13.8642,14.1298,14.1753,14.1981,14.2133,14.3802,0.0,0.0,0.0,0.0,0.0,0.0,14.5244,14.6686,14.79,14.9342,15.0935,15.0935,15.1542,15.2757,15.2757,15.2757,15.2832,15.4274,15.3136,14.9721,0.0,0.0,0.0,0.0,16.1787,16.1028,16.6264,17.021,17.2335,17.3625,17.446,17.4915,17.3321,17.0969,16.7782,16.3836,16.0041,15.6475,15.0859,0.0,0.0,0.0,0.0,0.0,0.0,0.0,0.0,0.0,0.0,0.0,0.0,0.0,0.0,0.0,0.0,0.0,0.0,0.0,12.1397,12.7336,13.1429,0.0,0.0,0.0,0.0,0.0,0.0,0.0,0.0,0.0,14.4233,14.5435,14.736,0.0,0.0,15.7377,15.828,16.046,16.219,16.2716,16.1964,0.0,16.1287,16.0912,16.0611,16.0611,15.9633,15.8156,15.6403,15.48,15.3721,15.3624,15.2497,15.1118,14.9945,14.8172,14.6934,14.7302,14.7526,14.6934,14.5588,14.6909,14.8015,0.0,0.0,0.0,0.0,13.0295,0.0,0.0,0.0,13.4392,13.4999,0.0,13.6745,0.0,0.0,0.0,0.0,13.5151,13.6821,0.0,0.0,14.4789,14.5851,14.7293,14.7445,14.752,14.752,14.752,14.7445,14.7141,14.4485,14.2967,0.0,0.0,0.0,0.0,0.0,16.2318,16.2166,16.5581,16.9072,17.2259,17.2487,17.3245,17.4763,17.3321,16.9375,16.2925,16.0876,15.6247,14.8203,14.4561,0.0,0.0,0.0,0.0,0.0,0.0,0.0,0.0,0.0,0.0,0.0,0.0,0.0,0.0,0.0,0.0,0.0,0.0,0.0,0.0,11.8279,0.0,0.0,0.0,0.0,0.0,0.0,0.0,0.0,0.0,13.761,13.4574,13.8404,14.3152,14.7903,0.0,0.0,0.0,0.0,15.9107,16.0686,15.8205,15.6174,15.6174,15.4896,15.3919,15.3919,0.0,0.0,15.0915,14.9545,14.8638,14.8291,14.8418,14.7313,14.3212,14.0513,13.8881,13.8874,13.8953,13.8659,13.8731,14.1163,14.3152,0.0,0.0,0.0,0.0,0.0,0.0,0.0,0.0,0.0,12.2478,12.3541,12.4148,0.0,0.0,0.0,0.0,0.0,0.0,0.0,0.0,13.7959,13.9173,13.7731,14.0994,14.1981,14.0918,14.0918,13.7504,0.0,0.0,0.0,0.0,0.0,0.0,0.0,0.0,15.693,15.6171,16.1256,16.6264,17.0514,17.0817,17.1576,17.3245,17.2714,16.9224,16.2546,15.6551,15.2074,0.0,0.0,0.0,0.0,0.0,0.0,0.0,0.0,0.0,0.0,0.0,0.0,0.0,0.0,0.0,0.0,0.0,0.0,0.0,0.0,0.0,0.0,0.0,11.779,0.0,0.0,0.0,0.0,0.0,0.0,0.0,0.0,0.0,12.4555,13.1989,13.8944,14.1662,14.6775,15.1061,15.3317,0.0,0.0,0.0,0.0,0.0,0.0,0.0,15.1512,15.046,14.9332,14.8008,14.6214,14.4655,14.3648,14.3557,0.0,0.0,13.7788,13.5281,13.4442,13.63,13.4974,13.3795,13.4827,13.5932,13.7037,0.0,0.0,0.0,0.0,0.0,0.0,0.0,0.0,0.0,11.2765,11.3296,0.0,0.0,0.0,0.0,0.0,0.0,0.0,0.0,0.0,0.0,0.0,13.0067,13.3406,0.0,0.0,0.0,0.0,0.0,0.0,0.0,0.0,0.0,0.0,0.0,0.0,15.3819,15.3591,15.9814,16.5353,16.9679,16.9375,16.9603,17.0665,17.0741,16.7858,16.1711,0.0,0.0,0.0,0.0,0.0,0.0,0.0,0.0,0.0,0.0,0.0,0.0,0.0,0.0,0.0,0.0,0.0,0.0,0.0,0.0,0.0,0.0,0.0,0.0,0.0,10.9972,0.0,0.0,0.0,0.0,0.0,0.0,0.0,0.0,0.0,0.0,12.632,13.274,13.7151,14.2038,14.6399,14.9708,15.0685,15.1212,0.0,0.0,0.0,0.0,0.0,0.0,0.0,0.0,0.0,0.0,0.0,0.0,0.0,13.6105,13.3724,13.1276,12.8492,12.7486,13.0403,0.0,0.0,0.0,0.0,0.0,0.0,0.0,0.0,0.0,0.0,0.0,0.0,0.0,0.0,0.0,10.4797,0.0,0.0,10.2445,0.0,0.0,0.0,0.0,0.0,0.0,0.0,0.0,0.0,0.0,0.0,0.0,0.0,0.0,0.0,0.0,0.0,0.0,0.0,0.0,0.0,0.0,15.2984,15.4881,16.118,16.6264,16.9603,16.8237,16.7402,16.7402,16.7402,16.505,16.0041,0.0,0.0,0.0,0.0,0.0,0.0,0.0,0.0,0.0,0.0,0.0,0.0,0.0,0.0,0.0,0.0,0.0,0.0,0.0,0.0,0.0,0.0,0.0,0.0,0.0,0.0,9.7911,10.5737,11.2713,0.0,0.0,0.0,0.0,0.0,0.0,0.0,0.0,0.0,13.4444,13.7376,14.091,14.7151,14.6926,14.655,14.8054,14.5647,14.3016,14.1362,14.1136,14.0459,0.0,0.0,0.0,0.0,0.0,0.0,0.0,0.0,0.0,0.0,0.0,0.0,0.0,0.0,0.0,0.0,0.0,0.0,0.0,0.0,0.0,0.0,0.0,0.0,0.0,0.0,0.0,0.0,0.0,0.0,0.0,0.0,0.0,0.0,0.0,0.0,0.0,0.0,0.0,0.0,0.0,0.0,0.0,0.0,0.0,0.0,0.0,0.0,0.0,0.0,0.0,0.0,0.0,0.0,14.8507,15.1391,15.7993,16.3608,16.8009,16.763,16.6795,16.5657,16.6719,16.4519,0.0,0.0,0.0,0.0,0.0,0.0,0.0,0.0,0.0,0.0,0.0,0.0,0.0,0.0,0.0,0.0,0.0,0.0,0.0,0.0,0.0,0.0,0.0,0.0,0.0,0.0,0.0,0.0,10.7868,11.0006,11.0984,0.0,0.0,0.0,0.0,0.0,0.0,0.0,0.0,0.0,0.0,13.6324,13.9331,14.1437,14.2715,14.3241,14.1512,13.9106,13.6399,13.685,13.6624,13.3842,0.0,0.0,0.0,0.0,0.0,0.0,0.0,0.0,0.0,0.0,0.0,0.0,0.0,0.0,0.0,0.0,0.0,0.0,0.0,0.0,0.0,0.0,0.0,0.0,0.0,0.0,0.0,0.0,0.0,0.0,0.0,0.0,0.0,0.0,0.0,0.0,0.0,0.0,0.0,0.0,0.0,0.0,0.0,0.0,0.0,0.0,0.0,0.0,0.0,0.0,0.0,0.0,0.0,14.5244,14.7976,15.5261,16.1407,16.6112,16.5733,16.4595,16.3001,16.3987,16.0497,0.0,0.0,0.0,0.0,0.0,0.0,0.0,0.0,0.0,0.0,0.0,0.0,0.0,0.0,0.0,0.0,0.0,0.0,0.0,0.0,0.0,0.0,0.0,0.0,0.0,0.0,0.0,0.0,10.2036,10.3465,10.4066,0.0,0.0,0.0,0.0,0.0,0.0,0.0,0.0,0.0,0.0,13.2113,13.5572,13.7376,0.0,0.0,13.7602,13.5045,13.309,13.309,13.2338,12.9782,12.9632,0.0,0.0,0.0,0.0,0.0,0.0,0.0,0.0,0.0,0.0,0.0,0.0,0.0,0.0,0.0,0.0,0.0,0.0,0.0,0.0,0.0,0.0,0.0,0.0,0.0,0.0,0.0,0.0,0.0,0.0,0.0,0.0,0.0,0.0,0.0,0.0,0.0,0.0,0.0,0.0,0.0,0.0,0.0,0.0,0.0,0.0,0.0,0.0,0.0,0.0,0.0,0.0,14.3195,14.5016,15.3136,15.9814,16.4443,16.3153,16.1559,15.989,15.9814,15.4426,0.0,0.0,0.0,0.0,0.0,0.0,0.0,0.0,0.0,0.0,0.0,0.0,0.0,0.0,0.0,0.0,0.0,0.0,0.0,0.0,0.0,0.0,0.0,0.0,0.0,0.0,0.0,0.0,0.0,0.0,0.0,0.0,0.0,0.0,0.0,0.0,0.0,0.0,0.0,0.0,0.0,12.8203,13.4669,13.4444,13.4669,0.0,13.3993,13.0835,13.0383,12.9291,12.7863,12.5947,0.0,0.0,0.0,0.0,0.0,0.0,0.0,0.0,0.0,0.0,0.0,0.0,0.0,0.0,0.0,0.0,0.0,0.0,0.0,0.0,0.0,0.0,0.0,0.0,0.0,0.0,0.0,0.0,0.0,0.0,0.0,0.0,0.0,0.0,0.0,0.0,0.0,0.0,0.0,0.0,0.0,0.0,0.0,0.0,0.0,0.0,0.0,0.0,0.0,0.0,0.0,0.0,0.0,0.0,14.494,15.3136,15.9283,16.2925,16.2697,16.1028,15.822,15.8068,0.0,0.0,0.0,0.0,0.0,0.0,0.0,0.0,0.0,0.0,0.0,0.0,0.0,0.0,0.0,0.0,0.0,0.0,0.0,0.0,0.0,0.0,0.0,0.0,0.0,0.0,0.0,8.266,0.0,0.0,0.0,0.0,0.0,0.0,0.0,0.0,0.0,0.0,0.0,0.0,0.0,0.0,12.3015,12.9632,13.1286,13.1662,0.0,0.0,12.7601,12.2714,12.4669,12.512,0.0,0.0,0.0,0.0,0.0,0.0,0.0,0.0,0.0,0.0,0.0,0.0,0.0,0.0,0.0,0.0,0.0,0.0,0.0,0.0,0.0,0.0,0.0,0.0,0.0,0.0,0.0,0.0,0.0,0.0,0.0,0.0,0.0,0.0,0.0,0.0,0.0,0.0,0.0,0.0,0.0,0.0,0.0,0.0,0.0,0.0,0.0,0.0,0.0,0.0,0.0,0.0,0.0,0.0,13.9411,14.2836,15.1011,15.7234,16.1213,16.1375,15.9781,15.6431,15.6381,15.0998,0.0,0.0,0.0,0.0,0.0,0.0,0.0,0.0,0.0,0.0,0.0,0.0,0.0,0.0,0.0,0.0,0.0,0.0,0.0,0.0,0.0,0.0,0.0,0.0,0.0,0.0,0.0,0.0,0.0,0.0,0.0,0.0,0.0,0.0,0.0,0.0,0.0,0.0,0.0,0.0,0.0,0.0,12.5045,12.8128,0.0,0.0,0.0,12.6136,12.1586,0.0,0.0,0.0,0.0,0.0,0.0,0.0,0.0,0.0,0.0,0.0,0.0,0.0,0.0,0.0,0.0,0.0,0.0,0.0,0.0,0.0,0.0,0.0,0.0,0.0,0.0,0.0,0.0,0.0,0.0,0.0,0.0,0.0,0.0,0.0,0.0,0.0,0.0,0.0,0.0,0.0,0.0,0.0,0.0,0.0,0.0,0.0,0.0,0.0,0.0,0.0,0.0,0.0,0.0,0.0,0.0,0.0,13.9825,14.7845,15.4467,15.9133,15.9589,15.8146,15.5034,15.4746,14.8444,0.0,0.0,0.0,0.0,0.0,0.0,0.0,0.0,0.0,0.0,0.0,0.0,0.0,0.0,0.0,0.0,0.0,0.0,0.0,0.0,0.0,0.0,0.0,0.0,0.0,0.0,0.0,0.0,0.0,0.0,0.0,0.0,0.0,0.0,0.0,0.0,0.0,0.0,0.0,0.0,0.0,12.2413,12.1661,12.5346,12.7075,0.0,0.0,12.4932,12.3466,12.1548,0.0,0.0,0.0,0.0,0.0,0.0,0.0,0.0,0.0,0.0,0.0,0.0,0.0,0.0,0.0,0.0,0.0,0.0,0.0,0.0,0.0,0.0,0.0,0.0,0.0,0.0,0.0,0.0,0.0,0.0,0.0,0.0,0.0,0.0,0.0,0.0,0.0,0.0,0.0,0.0,0.0,0.0,0.0,0.0,0.0,0.0,0.0,0.0,0.0,0.0,0.0,0.0,0.0,0.0,0.0,0.0,13.8086,14.6235,15.2315,15.5809,15.7252,15.7024,15.4975,15.3684,14.7383,0.0,0.0,0.0,0.0,0.0,0.0,0.0,0.0,0.0,0.0,0.0,0.0,0.0,0.0,0.0,0.0,0.0,0.0,0.0,0.0,0.0,0.0,0.0,0.0,0.0,0.0,0.0,0.0,0.0,0.0,0.0,0.0,0.0,0.0,0.0,0.0,0.0,0.0,0.0,0.0,0.0,11.7751,12.2563,12.4142,0.0,0.0,0.0,0.0,11.9857,11.6172,0.0,0.0,0.0,0.0,0.0,0.0,0.0,0.0,0.0,0.0,0.0,0.0,0.0,0.0,0.0,0.0,0.0,0.0,0.0,0.0,0.0,0.0,0.0,0.0,0.0,0.0,0.0,0.0,0.0,0.0,0.0,0.0,0.0,0.0,0.0,0.0,0.0,0.0,0.0,0.0,0.0,0.0,0.0,0.0,0.0,0.0,0.0,0.0,0.0,0.0,0.0,0.0,0.0,0.0,0.0,0.0,13.8718,14.5408,15.0875,15.4824,15.5811,15.5507,15.3837,15.1483,14.5029,0.0,0.0,0.0,0.0,0.0,0.0,0.0,0.0,0.0,0.0,0.0,0.0,0.0,0.0,0.0,0.0,0.0,0.0,0.0,0.0,0.0,0.0,0.0,0.0,0.0,0.0,0.0,0.0,0.0,0.0,0.0,0.0,0.0,0.0,0.0,0.0,0.0,0.0,0.0,0.0,11.2713,11.3916,11.7375,0.0,0.0,0.0,0.0,0.0,0.0,11.4107,11.1401,0.0,0.0,0.0,0.0,0.0,0.0,0.0,0.0,0.0,0.0,0.0,0.0,0.0,0.0,0.0,0.0,0.0,0.0,0.0,0.0,0.0,0.0,0.0,0.0,0.0,0.0,0.0,0.0,0.0,0.0,0.0,0.0,0.0,0.0,0.0,0.0,0.0,0.0,0.0,0.0,0.0,0.0,0.0,0.0,0.0,0.0,0.0,0.0,0.0,0.0,0.0,0.0,0.0,0.0,0.0,13.9106,14.3586,14.8446,15.3533,15.3685,15.3229,15.2166,14.8597,14.1991,13.2196,0.0,0.0,0.0,0.0,0.0,0.0,0.0,0.0,0.0,0.0,0.0,0.0,0.0,0.0,0.0,0.0,0.0,0.0,0.0,0.0,0.0,0.0,0.0,0.0,0.0,0.0,0.0,0.0,0.0,0.0,0.0,0.0,0.0,0.0,0.0,0.0,0.0,0.0,0.0,10.9405,10.9931,0.0,0.0,0.0,0.0,0.0,0.0,0.0,0.0,10.9337,0.0,0.0,0.0,0.0,0.0,0.0,0.0,0.0,0.0,0.0,0.0,0.0,0.0,0.0,0.0,0.0,0.0,0.0,0.0,0.0,0.0,0.0,0.0,0.0,0.0,0.0,0.0,0.0,0.0,0.0,0.0,0.0,0.0,0.0,0.0,0.0,0.0,0.0,0.0,0.0,0.0,0.0,0.0,0.0,0.0,0.0,0.0,0.0,0.0,0.0,0.0,0.0,0.0,0.0,0.0,0.0,13.7891,14.2143,14.837,14.8673,14.9281,15.0344,14.5788,13.8575,12.8628,0.0,0.0,0.0,0.0,0.0,0.0,0.0,0.0,0.0,0.0,0.0,0.0,0.0,0.0,0.0,0.0,0.0,0.0,0.0,0.0,0.0,0.0,0.0,0.0,0.0,0.0,0.0,0.0,0.0,0.0,0.0,0.0,0.0,0.0,0.0,0.0,0.0,0.0,9.7945,10.1284,0.0,0.0,0.0,0.0,0.0,0.0,0.0,0.0,10.3991,0.0,0.0,0.0,0.0,0.0,0.0,0.0,0.0,0.0,0.0,0.0,0.0,0.0,0.0,0.0,0.0,0.0,0.0,0.0,0.0,0.0,0.0,0.0,0.0,0.0,0.0,0.0,0.0,0.0,0.0,0.0,0.0,0.0,0.0,0.0,0.0,0.0,0.0,0.0,0.0,0.0,0.0,0.0,0.0,0.0,0.0,0.0,0.0,0.0,0.0,0.0,0.0,0.0,0.0,0.0,0.0,0.0,0.0,13.9865,14.4649,14.4877,14.5712,14.7079,14.0777,13.3715,0.0,0.0,0.0,0.0,0.0,0.0,0.0,0.0,0.0,0.0,0.0,0.0,0.0,0.0,0.0,0.0,0.0,0.0,0.0,0.0,0.0,0.0,0.0,0.0,0.0,0.0,0.0,0.0,0.0,0.0,0.0,0.0,0.0,0.0,0.0,0.0,0.0,0.0,0.0,0.0,0.0,0.0,0.0,0.0,0.0,0.0,0.0,0.0,0.0,0.0,0.0,0.0,0.0,0.0,0.0,0.0,0.0,0.0,0.0,0.0,0.0,0.0,0.0,0.0,0.0,0.0,0.0,0.0,0.0,0.0,0.0,0.0,0.0,0.0,0.0,0.0,0.0,0.0,0.0,0.0,0.0,0.0,0.0,0.0,0.0,0.0,0.0,0.0,0.0,0.0,0.0,0.0,0.0,0.0,0.0,0.0,0.0,0.0,0.0,0.0,0.0,0.0,0.0,0.0,0.0,0.0,0.0,0.0,13.7436,14.1764,14.1612,14.2219,14.3814,13.5461,12.8931,0.0,0.0,0.0,0.0,0.0,0.0,0.0,0.0,0.0,0.0,0.0,0.0,0.0,0.0,0.0,0.0,0.0,0.0,0.0,0.0,0.0,0.0,0.0,0.0,0.0,0.0,0.0,0.0,0.0,0.0,0.0,0.0,0.0,0.0,0.0,0.0,0.0,0.0,0.0,0.0,0.0,0.0,0.0,0.0,0.0,0.0,0.0,0.0,9.9254,0.0,0.0,0.0,0.0,0.0,0.0,0.0,0.0,0.0,0.0,0.0,0.0,0.0,0.0,0.0,0.0,0.0,0.0,0.0,0.0,0.0,0.0,0.0,0.0,0.0,0.0,0.0,0.0,0.0,0.0,0.0,0.0,0.0,0.0,0.0,0.0,0.0,0.0,0.0,0.0,0.0,0.0,0.0,0.0,0.0,0.0,0.0,0.0,0.0,0.0,0.0,0.0,0.0,0.0,0.0,0.0,0.0,0.0,0.0,13.2348,14.0017,13.8726,13.8726,14.0093,13.0905,12.4831,0.0,0.0,0.0,0.0,0.0,0.0,0.0,0.0,0.0,0.0,0.0,0.0,0.0,0.0,0.0,0.0,0.0,0.0,0.0,0.0,0.0,0.0,0.0,0.0,0.0,0.0,0.0,0.0,0.0,0.0,0.0,0.0,0.0,0.0,0.0,0.0,0.0,0.0,0.0,0.0,0.0,0.0,0.0,0.0,0.0,0.0,0.0,0.0,0.0,0.0,0.0,0.0,0.0,0.0,0.0,0.0,0.0,0.0,0.0,0.0,0.0,0.0,0.0,0.0,0.0,0.0,0.0,0.0,0.0,0.0,0.0,0.0,0.0,0.0,0.0,0.0,0.0,0.0,0.0,0.0,0.0,0.0,0.0,0.0,0.0,0.0,0.0,0.0,0.0,0.0,0.0,0.0,0.0,0.0,0.0,0.0,0.0,0.0,0.0,0.0,0.0,0.0,0.0,0.0,0.0,0.0,0.0,0.0,12.8703,13.4095,13.4474,13.4474,13.4171,12.8172,12.3312,0.0,0.0,0.0,0.0,0.0,0.0,0.0,0.0,0.0,0.0,0.0,0.0,0.0,0.0,0.0,0.0,0.0,0.0,0.0,0.0,0.0,0.0,0.0,0.0,0.0,0.0,0.0,0.0,0.0,0.0,0.0,0.0,0.0,0.0,0.0,0.0,0.0,0.0,0.0,0.0,0.0,0.0,0.0,0.0,0.0,0.0,0.0,0.0,0.0,0.0,0.0,0.0,0.0,0.0,0.0,0.0,0.0,0.0,0.0,0.0,0.0,0.0,0.0,0.0,0.0,0.0,0.0,0.0,0.0,0.0,0.0,0.0,0.0,0.0,0.0,0.0,0.0,0.0,0.0,0.0,0.0,0.0,0.0,0.0,0.0,0.0,0.0,0.0,0.0,0.0,0.0,0.0,0.0,0.0,0.0,0.0,0.0,0.0,0.0,0.0,0.0,0.0,0.0,0.0,0.0,0.0,0.0,0.0,0.0,12.8628,12.9918,13.0222,12.9311,12.5211,12.1034,0.0,0.0,0.0,0.0,0.0,0.0,0.0,0.0,0.0,0.0,0.0,0.0,0.0,0.0,0.0,0.0,0.0,0.0,0.0,0.0,0.0,0.0,0.0,0.0,0.0,0.0,0.0,0.0,0.0,0.0,0.0,0.0,0.0,0.0,0.0,0.0,0.0,0.0,0.0,0.0,0.0,0.0,0.0,0.0,0.0,0.0,0.0,0.0,0.0,0.0,0.0,0.0,0.0,0.0,0.0,0.0,0.0,0.0,0.0,0.0,0.0,0.0,0.0,0.0,0.0,0.0,0.0,0.0,0.0,0.0,0.0,0.0,0.0,0.0,0.0,0.0,0.0,0.0,0.0,0.0,0.0,0.0,0.0,0.0,0.0,0.0,0.0,0.0,0.0,0.0,0.0,0.0,0.0,0.0,0.0,0.0,0.0,0.0,0.0,0.0,0.0,0.0,0.0,0.0,0.0,0.0,0.0,0.0,0.0,12.5211,12.5362,12.6198,12.7413,12.1262,11.6934,0.0,0.0,0.0,0.0,0.0,0.0,0.0,0.0,0.0,0.0,0.0,0.0,0.0,0.0,0.0,0.0,0.0,0.0,0.0,0.0,0.0,0.0,0.0,0.0,0.0,0.0,0.0,0.0,0.0,0.0,0.0,0.0,0.0,0.0,0.0,0.0,0.0,0.0,0.0,0.0,0.0,0.0,0.0,0.0,0.0,0.0,0.0,0.0,0.0,0.0,0.0,0.0,0.0,0.0,0.0,0.0,0.0,0.0,0.0,0.0,0.0,0.0,0.0,0.0,0.0,0.0,0.0,0.0,0.0,0.0,0.0,0.0,0.0,0.0,0.0,0.0,0.0,0.0,0.0,0.0,0.0,0.0,0.0,0.0,0.0,0.0,0.0,0.0,0.0,0.0,0.0,0.0,0.0,0.0,0.0,0.0,0.0,0.0,0.0,0.0,0.0,0.0,0.0,0.0,0.0,0.0,0.0,0.0,0.0,11.5947,12.0731,12.3236,12.2781,11.8225,11.4884,11.2986,0.0,0.0,0.0,0.0,0.0,0.0,0.0,0.0,0.0,0.0,0.0,0.0,0.0,0.0,0.0,0.0,0.0,0.0,0.0,0.0,0.0,0.0,0.0,0.0,0.0,0.0,0.0,0.0,0.0,0.0,0.0,0.0,0.0,0.0,0.0,0.0,0.0,0.0,0.0,0.0,0.0,0.0,0.0,0.0,0.0,0.0,0.0,0.0,0.0,0.0,0.0,0.0,0.0,0.0,0.0,0.0,0.0,0.0,0.0,0.0,0.0,0.0,0.0,0.0,0.0,0.0,0.0,0.0,0.0,0.0,0.0,0.0,0.0,0.0,0.0,0.0,0.0,0.0,0.0,0.0,0.0,0.0,0.0,0.0,0.0,0.0,0.0,0.0,0.0,0.0,0.0,0.0,0.0,0.0,0.0,0.0,0.0,0.0,0.0,0.0,0.0,0.0,0.0,0.0,0.0,0.0,0.0,0.0,10.9932,11.6001,11.8658,11.7443,11.4103,11.1055,0.0,0.0,0.0,0.0,0.0,0.0,0.0,0.0,0.0,0.0,0.0,0.0,0.0,0.0,0.0,0.0,0.0,0.0,0.0,0.0,0.0,0.0,0.0,0.0,0.0,0.0,0.0,0.0,0.0,0.0,0.0,0.0,0.0,0.0,0.0,0.0,0.0,0.0,0.0,0.0,0.0,0.0,0.0,0.0,0.0,0.0,0.0,0.0,0.0,0.0,0.0,0.0,0.0,0.0,0.0,0.0,0.0,0.0,0.0,0.0,0.0,0.0,0.0,0.0,0.0,0.0,0.0,0.0,0.0,0.0,0.0,0.0,0.0,0.0,0.0,0.0,0.0,0.0,0.0,0.0,0.0,0.0,0.0,0.0,0.0,0.0,0.0,0.0,0.0,0.0,0.0,0.0,0.0,0.0,0.0,0.0,0.0,0.0,0.0,0.0,0.0,0.0,0.0,0.0,0.0,0.0,0.0,0.0,9.9826,10.8875,11.1093,11.2289,11.197,10.9031,10.486,0.0,0.0,0.0,0.0,0.0,0.0,0.0,0.0,0.0,0.0,0.0,0.0,0.0,0.0,0.0,0.0,0.0,0.0,0.0,0.0,0.0,0.0,0.0,0.0,0.0,0.0,0.0,0.0,0.0,0.0,0.0,0.0,0.0,0.0,0.0,0.0,0.0,0.0,0.0,0.0,0.0,0.0,0.0,0.0,0.0,0.0,0.0,0.0,0.0,0.0,0.0,0.0,0.0,0.0,0.0,0.0,0.0,0.0,0.0,0.0,0.0,0.0,0.0,0.0,0.0,0.0,0.0,0.0,0.0,0.0,0.0,0.0,0.0,0.0,0.0,0.0,0.0,0.0,0.0,0.0,0.0,0.0,0.0,0.0,0.0,0.0,0.0,0.0,0.0,0.0,0.0,0.0,0.0,0.0,0.0,0.0,0.0,0.0,0.0,0.0,0.0,0.0,0.0,0.0,0.0,0.0,0.0,0.0,0.0,9.9227,0.0,10.8691,10.8616,10.6401,10.3278,0.0,0.0,0.0,0.0,0.0,0.0,0.0,0.0,0.0,0.0,0.0,0.0,0.0,0.0,0.0,0.0,0.0,0.0,0.0,0.0,0.0,0.0,0.0,0.0,0.0,0.0,0.0,0.0,0.0,0.0,0.0,0.0,0.0,0.0,0.0,0.0,0.0,0.0,0.0,0.0,0.0,0.0,0.0,0.0,0.0,0.0,0.0,0.0,0.0,0.0,0.0,0.0,0.0,0.0,0.0,0.0,0.0,0.0,0.0,0.0,0.0,0.0,0.0,0.0,0.0,0.0,0.0,0.0,0.0,0.0,0.0,0.0,0.0,0.0,0.0,0.0,0.0,0.0,0.0,0.0,0.0,0.0,0.0,0.0,0.0,0.0,0.0,0.0,0.0,0.0,0.0,0.0,0.0,0.0,0.0,0.0,0.0,0.0,0.0,0.0,0.0,0.0,0.0,0.0,0.0,0.0,0.0,0.0,0.0,9.5128,9.9343,10.2353,10.4009,10.1797,9.9284,0.0,0.0,0.0,0.0,0.0,0.0,0.0,0.0,0.0,0.0,0.0,0.0,0.0,0.0,0.0,0.0,0.0,0.0,0.0,0.0,0.0,0.0,0.0,0.0,0.0,0.0,0.0,0.0,0.0,0.0,0.0,0.0,0.0,0.0,0.0,0.0,0.0,0.0,0.0,0.0,0.0,0.0,0.0,0.0,0.0,0.0,0.0,0.0,0.0,0.0,0.0,0.0,0.0,0.0,0.0,0.0,0.0,0.0,0.0,0.0,0.0,0.0,0.0,0.0,0.0,0.0,0.0,0.0,0.0,0.0,0.0,0.0,0.0,0.0,0.0,0.0,0.0,0.0,0.0,0.0,0.0,0.0,0.0,0.0,0.0,0.0,0.0,0.0,0.0,0.0,0.0,0.0,0.0,0.0,0.0,0.0,0.0,0.0,0.0,0.0,0.0,0.0,0.0,0.0,0.0,0.0,0.0,0.0,0.0,9.5702,9.3267,9.384,9.8577,9.5645,9.3088,0.0,0.0,0.0,0.0,0.0,0.0,0.0,0.0,0.0,0.0,0.0,0.0,0.0,0.0,0.0,0.0,0.0,0.0,0.0,0.0,0.0,0.0,0.0,0.0,0.0,0.0,0.0,0.0,0.0,0.0,0.0,0.0,0.0,0.0,0.0,0.0,0.0,0.0,0.0,0.0,0.0,0.0,0.0,0.0,0.0,0.0,0.0,0.0,0.0,0.0,0.0,0.0,0.0,0.0,0.0,0.0,0.0,0.0,0.0,0.0,0.0,0.0,0.0,0.0,0.0,0.0,0.0,0.0,0.0,0.0,0.0,0.0,0.0,0.0,0.0,0.0,0.0,0.0,0.0,0.0,0.0,0.0,0.0,0.0,0.0,0.0,0.0,0.0,0.0,0.0,0.0,0.0,0.0,0.0,0.0,0.0,0.0,0.0,0.0,0.0,0.0,0.0,0.0,0.0,0.0,0.0,0.0,0.0,0.0,0.0,8.978,9.1659,9.5043,9.3389,9.0306,8.6321,0.0,0.0,0.0,0.0,0.0,0.0,0.0,0.0,0.0,0.0,0.0,0.0,0.0,0.0,0.0,0.0,0.0,0.0,0.0,0.0,0.0,0.0,0.0,0.0,0.0,0.0,0.0,0.0,0.0,0.0,0.0,0.0,0.0,0.0,0.0,0.0,0.0,0.0,0.0,0.0,0.0,0.0,0.0,0.0,0.0,0.0,0.0,0.0,0.0,0.0,0.0,0.0,0.0,0.0,0.0,0.0,0.0,0.0,0.0,0.0,0.0,0.0,0.0,0.0,0.0,0.0,0.0,0.0,0.0,0.0,0.0,0.0,0.0,0.0,0.0,0.0,0.0,0.0,0.0,0.0,0.0,0.0,0.0,0.0,0.0,0.0,0.0,0.0,0.0,0.0,0.0,0.0,0.0,0.0,0.0,0.0,0.0,0.0,0.0,0.0,0.0,0.0,0.0,0.0,0.0,0.0,0.0,0.0,0.0,0.0,8.805,9.196,9.1058,8.8802,0.0,0.0,0.0,0.0,0.0,0.0,0.0,0.0,0.0,0.0,0.0,0.0,0.0,0.0,0.0,0.0,0.0,0.0,0.0,0.0,0.0,0.0,0.0,0.0,0.0,0.0,0.0,0.0,0.0,0.0,0.0,0.0,0.0,0.0,0.0,0.0,0.0,0.0,0.0,0.0,0.0,0.0,0.0,0.0,0.0,0.0,0.0,0.0,0.0,0.0,0.0,0.0,0.0,0.0,0.0,0.0,0.0,0.0,0.0,0.0,0.0,0.0,0.0,0.0,0.0,0.0,0.0,0.0,0.0,0.0,0.0,0.0,0.0,0.0,0.0,0.0,0.0,0.0,0.0,0.0,0.0,0.0,0.0,0.0,0.0,0.0,0.0,0.0,0.0,0.0,0.0,0.0,0.0,0.0,0.0,0.0,0.0,0.0,0.0,0.0,0.0,0.0,0.0,0.0,0.0,0.0,0.0,0.0,0.0,0.0,0.0,8.399,8.8426,8.8727,0.0,8.6095,0.0,0.0,0.0,0.0,0.0,0.0,0.0,0.0,0.0,0.0,0.0,0.0,0.0,0.0,0.0,0.0,0.0,0.0,0.0,0.0,0.0,0.0,0.0,0.0,0.0,0.0,0.0,0.0,0.0,0.0,0.0,0.0,0.0,0.0,0.0,0.0,0.0,0.0,0.0,0.0,0.0,0.0,0.0,0.0,0.0,0.0,0.0,0.0,0.0,0.0,0.0,0.0,0.0,0.0,0.0,0.0,0.0,0.0,0.0,0.0,0.0,0.0,0.0,0.0,0.0,0.0,0.0,0.0,0.0,0.0,0.0,0.0,0.0,0.0,0.0,0.0,0.0,0.0,0.0,0.0,0.0,0.0,0.0,0.0,0.0,0.0,0.0,0.0,0.0,0.0,0.0,0.0,0.0,0.0,0.0,0.0,0.0,0.0,0.0,0.0,0.0,0.0,0.0,0.0,0.0,0.0,0.0,0.0,0.0,0.0,0.0,0.0,8.6546,8.587,8.2862,0.0,0.0,0.0,0.0,0.0,0.0,0.0,0.0,0.0,0.0,0.0,0.0,0.0,0.0,0.0,0.0,0.0,0.0,0.0,0.0,0.0,0.0,0.0,0.0,0.0,0.0,0.0,0.0,0.0,0.0,0.0,0.0,0.0,0.0,0.0,0.0,0.0,0.0,0.0,0.0,0.0,0.0,0.0,0.0,0.0,0.0,0.0,0.0,0.0,0.0,0.0,0.0,0.0,0.0,0.0,0.0,0.0,0.0,0.0,0.0,0.0,0.0,0.0,0.0,0.0,0.0,0.0,0.0,0.0,0.0,0.0,0.0,0.0,0.0,0.0,0.0,0.0,0.0,0.0,0.0,0.0,0.0,0.0,0.0,0.0,0.0,0.0,0.0,0.0,0.0,0.0,0.0,0.0,0.0,0.0,0.0,0.0,0.0,0.0,0.0,0.0,0.0,0.0,0.0,0.0,0.0,0.0,0.0,0.0,0.0,8.2336,8.0907,8.3163,8.3238,8.0681,0.0,0.0,0.0,0.0,0.0,0.0,0.0,0.0,0.0,0.0,0.0,0.0,0.0,0.0,0.0,0.0,0.0,0.0,0.0,0.0,0.0,0.0,0.0,0.0,0.0,0.0,0.0,0.0,0.0,0.0,0.0,0.0,0.0,0.0,0.0,0.0,0.0,0.0,0.0,0.0,0.0,0.0,0.0,0.0,0.0,0.0,0.0,0.0,0.0,0.0,0.0,0.0,0.0,0.0,0.0,0.0,0.0,0.0,0.0,0.0,0.0,0.0,0.0,0.0,0.0,0.0,0.0,0.0,0.0,0.0,0.0,0.0,0.0,0.0,0.0,0.0,0.0,0.0,0.0,0.0,0.0,0.0,0.0,0.0,0.0,0.0,0.0,0.0,0.0,0.0,0.0,0.0,0.0,0.0,0.0,0.0,0.0,0.0,0.0,0.0,0.0,0.0,0.0,0.0,0.0,0.0,0.0,0.0,0.0,0.0,0.0,0.0,0.0,0.0,7.9403,0.0,0.0,0.0,0.0,0.0,0.0,0.0,0.0,0.0,0.0,0.0,0.0,0.0,0.0,0.0,0.0,0.0,0.0,0.0,0.0,0.0,0.0,0.0,0.0,0.0,0.0,0.0,0.0,0.0,0.0,0.0,0.0,0.0,0.0,0.0,0.0,0.0,0.0,0.0,0.0,0.0,0.0,0.0,0.0,0.0,0.0,0.0,0.0,0.0,0.0,0.0,0.0,0.0,0.0,0.0,0.0,0.0,0.0,0.0,0.0,0.0,0.0,0.0,0.0,0.0,0.0,0.0,0.0,0.0,0.0,0.0,0.0,0.0,0.0,0.0,0.0,0.0,0.0,0.0,0.0,0.0,0.0,0.0,0.0,0.0,0.0,0.0,0.0,0.0,0.0,0.0,0.0,0.0,0.0,0.0,0.0,0.0,0.0,0.0,0.0,0.0,0.0,0.0,0.0,0.0,0.0,0.0,0.0,0.0,0.0,0.0,0.0,0.0,0.0,0.0,0.0,0.0,0.0,0.0,0.0,0.0,0.0,0.0,0.0,0.0,0.0,0.0,0.0,0.0,0.0,0.0,0.0,0.0,0.0,0.0,0.0,0.0,0.0,0.0,0.0,0.0,0.0,0.0,0.0,0.0,0.0,0.0,0.0,0.0,0.0,0.0,0.0,0.0,0.0,0.0,0.0,0.0,0.0,0.0,0.0,0.0,0.0,0.0,0.0,0.0,0.0,0.0,0.0,0.0,0.0,0.0,0.0,0.0,0.0,0.0,0.0,0.0,0.0,0.0,0.0,0.0,0.0,0.0,0.0,0.0,0.0,0.0,0.0,0.0,0.0,0.0,0.0,0.0,0.0,0.0,0.0,0.0,0.0,0.0,0.0,0.0,0.0,0.0,0.0,0.0,0.0,0.0,0.0,0.0,0.0,0.0,0.0,0.0,0.0,0.0,0.0,0.0,0.0,0.0,0.0,0.0,0.0,0.0,0.0,0.0,0.0,0.0,0.0,0.0,0.0,0.0,0.0,0.0,0.0,0.0,0.0,0.0,0.0,0.0,0.0,0.0,0.0,0.0,0.0,0.0,0.0,0.0,0.0,0.0,0.0,0.0,0.0,0.0,0.0,0.0,0.0,0.0,0.0,0.0,0.0,0.0,0.0,0.0,0.0,0.0,0.0,0.0,0.0,0.0,0.0,0.0,0.0,0.0,0.0,0.0,0.0,0.0,0.0,0.0,0.0,0.0,0.0,0.0,0.0,0.0,0.0,0.0,0.0,0.0,0.0,0.0,0.0,0.0,0.0,0.0,0.0,0.0,0.0,0.0,0.0,0.0,0.0,0.0,0.0,0.0,0.0,0.0,0.0,0.0,0.0,0.0,0.0,0.0,0.0,0.0,0.0,0.0,0.0,0.0,0.0,0.0,0.0,0.0,0.0,0.0,0.0,0.0,0.0,0.0,0.0,0.0,0.0,0.0,0.0,0.0,0.0,0.0,0.0,0.0,0.0,0.0,0.0,0.0,0.0,0.0,0.0,0.0,0.0,0.0,0.0,0.0,0.0,0.0,0.0,0.0,0.0,0.0,0.0,0.0,0.0,0.0,0.0,0.0,0.0,0.0,0.0,0.0,0.0,0.0,0.0,0.0,0.0,0.0,0.0,0.0,0.0,0.0,0.0,0.0,0.0,0.0,0.0,0.0,0.0,0.0,0.0,0.0,0.0,0.0,0.0,0.0,0.0,0.0,0.0,0.0,0.0,0.0,0.0,0.0,0.0,0.0,0.0,0.0,0.0,0.0,0.0,0.0,0.0,0.0,0.0,0.0,0.0,0.0,0.0,0.0,0.0,0.0,0.0,0.0,0.0,0.0,0.0,0.0,0.0,0.0,0.0,0.0,0.0,0.0,0.0,0.0,0.0,0.0,0.0,0.0,0.0,0.0,0.0,0.0,0.0,0.0,0.0,0.0,0.0,0.0,0.0,0.0,0.0,0.0,0.0,0.0,0.0,0.0,0.0,0.0,0.0,0.0,0.0,0.0,0.0,0.0,0.0,0.0,0.0,0.0,0.0,0.0,0.0,0.0,0.0,0.0,0.0,0.0,0.0,0.0,0.0,0.0,0.0,0.0,0.0,0.0,0.0,0.0,0.0,0.0,0.0,0.0,0.0,0.0,0.0,0.0,0.0,0.0,0.0,0.0,0.0,0.0,0.0,0.0,0.0,0.0,0.0,0.0,0.0,0.0,0.0,0.0,0.0,0.0,0.0,0.0,0.0,0.0,0.0,0.0,0.0,0.0,0.0,0.0,0.0,0.0,0.0,0.0,0.0,0.0,0.0,0.0,0.0,0.0,0.0,0.0,0.0,0.0,0.0,0.0,0.0,0.0,0.0,0.0,0.0,0.0,0.0,0.0,0.0,0.0,0.0,0.0,0.0,0.0,0.0,0.0,0.0,0.0,0.0,0.0,0.0,0.0,0.0,0.0,0.0,0.0,0.0,0.0,0.0,0.0,0.0,0.0,0.0,0.0,0.0,0.0,0.0,0.0,0.0,0.0,0.0,0.0,0.0,0.0,0.0,0.0,0.0,0.0,0.0,0.0,0.0,0.0,0.0,0.0,0.0,0.0,0.0,0.0,0.0,0.0,0.0,0.0,0.0,0.0,0.0,0.0,0.0,0.0,0.0,0.0,0.0,0.0,0.0,0.0,0.0,0.0,0.0,0.0,0.0,0.0,0.0,0.0,0.0,0.0,0.0,0.0,0.0,0.0,0.0,0.0,0.0,0.0,0.0,0.0,0.0,0.0,0.0,0.0,0.0,0.0,0.0,0.0,0.0,0.0,0.0,0.0,0.0,0.0,0.0,0.0,0.0,0.0,0.0,0.0,0.0,0.0,0.0,0.0,0.0,0.0,0.0,0.0,0.0,0.0,0.0,0.0,0.0,0.0,0.0,0.0,0.0,0.0,0.0,0.0,0.0,0.0,0.0,0.0,0.0,0.0,0.0,0.0,0.0,0.0,0.0,0.0,0.0,0.0,0.0,0.0,0.0,0.0,0.0,0.0,0.0,0.0,0.0,0.0,0.0,0.0,0.0,0.0,0.0,0.0,0.0,0.0,0.0,0.0,0.0,0.0,0.0,0.0,0.0,0.0,0.0,0.0,0.0,0.0,0.0,0.0,0.0,0.0,0.0,0.0,0.0,0.0,0.0,0.0,0.0,0.0,0.0,0.0,0.0,0.0,0.0,0.0,0.0,0.0,0.0,0.0,0.0,0.0,0.0,0.0,0.0,0.0,0.0,0.0,0.0,0.0,0.0,0.0,0.0,0.0,0.0,0.0,0.0,0.0,0.0,0.0,0.0,0.0,0.0,0.0,0.0,0.0,0.0,0.0,0.0,0.0,0.0,0.0,0.0,0.0,0.0,0.0,0.0,0.0,0.0,0.0,0.0,0.0,0.0,0.0,0.0,0.0,0.0,0.0,0.0,0.0,0.0,0.0,0.0,0.0,0.0,0.0,0.0,0.0,0.0,0.0,0.0,0.0,0.0,0.0,0.0,0.0,0.0,0.0,0.0,0.0,0.0,0.0,0.0,0.0,0.0,0.0,0.0,0.0,0.0,0.0,0.0,0.0,0.0,0.0,0.0,0.0,0.0,0.0,0.0,0.0,0.0,0.0,0.0,0.0,0.0,0.0,0.0,0.0,0.0,0.0,0.0,0.0,0.0,0.0,0.0,0.0,0.0,0.0,0.0,0.0,0.0,0.0,0.0,0.0,0.0,0.0,0.0,0.0,0.0,0.0,0.0,0.0,0.0,0.0,0.0,0.0,0.0,0.0,0.0,0.0,0.0,0.0,0.0,0.0,0.0,0.0,0.0,0.0,0.0,0.0,0.0,0.0,0.0,0.0,0.0,0.0,0.0,0.0,0.0,0.0,0.0,0.0,0.0,0.0,0.0,0.0,0.0,0.0,0.0,0.0,0.0,0.0,0.0,0.0,0.0,0.0,0.0,0.0,0.0,0.0,0.0,0.0,0.0,0.0,0.0,0.0,0.0,0.0,0.0,0.0,0.0,0.0,0.0,0.0,0.0,0.0,0.0,0.0,0.0,0.0,0.0,0.0,0.0,0.0,0.0,0.0,0.0,0.0,0.0,0.0,0.0,0.0,0.0,0.0,0.0,0.0,0.0,0.0,0.0,0.0,0.0,0.0,0.0,0.0,0.0,0.0,0.0,0.0,0.0,0.0,0.0,0.0,0.0,0.0,0.0,0.0,0.0,0.0,0.0,0.0,0.0,0.0,0.0,0.0,0.0,0.0,0.0,0.0,0.0,0.0,0.0,0.0,0.0,0.0,0.0,0.0,0.0,0.0,0.0,0.0,0.0,0.0,0.0]}],[{"header":{"parameterUnit":"kt","parameterCategory":2,"dx":1,"dy":1,"la1":29.587661999999998,"la2":31.0,"lo1":-88.76705300000003,"lo2":-86.6583820000003,"nx":115,"ny":88,"refTime":"2022-10-14T06:00:00:Z","depth":0,"parameterNumber":2,"parameterNumberName":"V-component_of_WINDS"},"data":[0.6278,0.5891,0.3559,0.1975,0.1179,-0.1188,-0.3954,-0.6673,-0.7464,-0.9034,-1.0995,-1.1388,-1.1392,-1.1775,-1.1775,-1.2558,-1.2167,-1.2564,-1.2564,-1.2564,-1.2564,-1.2564,-1.2564,-1.2564,-1.2564,-1.2564,-1.2564,-1.2564,-1.2564,-1.2564,-1.2564,-1.2564,-1.2564,-1.2564,-1.2564,-1.2564,-1.2564,-1.2564,-1.2564,-1.2564,-1.2564,-1.2564,-1.2564,-1.2564,-1.2564,-1.2564,-1.258,-1.2654,-1.2701,-1.2797,-1.295,-1.3104,-1.3183,-1.3226,-1.3247,-1.3252,-1.3252,-1.3268,-1.3311,-1.3316,-1.3385,-1.3443,-1.3464,-1.3459,-1.3464,-1.3464,-1.3443,-1.3385,-1.3337,-1.3353,-1.3326,-1.33,-1.3671,-1.7383,-2.027,-2.2732,-2.5609,-2.6829,-2.7239,-2.8445,-2.8843,-3.0897,-3.3779,-3.5043,-3.5943,-3.7619,-3.9281,-4.2129,-4.3982,-4.5083,-4.5758,-4.5354,-4.4932,-4.4325,-4.3903,-4.4013,-4.3976,-4.394,-4.4454,-4.5469,-4.6823,-4.8453,-5.0596,-5.4046,-5.7698,-6.2169,-6.551,-6.7263,-6.8882,-7.0444,-7.0557,-7.094,-7.0684,-7.0428,-7.0087,0.628,0.6278,0.5895,0.3927,0.1572,0.1189,-0.0792,-0.3932,-0.6325,-0.7903,-0.786,-0.5535,-0.6312,-0.7467,-0.8627,-1.0594,-1.178,-1.18,-1.2569,-1.2564,-1.2564,-1.2564,-1.2564,-1.2564,-1.2564,-1.2564,-1.2564,-1.2564,-1.2564,-1.2564,-1.2564,-1.2564,-1.2564,-1.2564,-1.2564,-1.2564,-1.2564,-1.2564,-1.2564,-1.2564,-1.2564,-1.2564,-1.2564,-1.2564,-1.2564,-1.2564,-1.2564,-1.2596,-1.2643,-1.276,-1.2913,-1.303,-1.3099,-1.3178,-1.321,-1.3247,-1.3247,-1.3321,-1.3369,-1.3395,-1.348,-1.3544,-1.357,-1.3581,-1.3586,-1.3586,-1.3586,-1.3533,-1.3459,-1.3422,-1.3385,-1.3342,-1.3295,-1.4504,-1.6971,-1.9026,-2.2321,-2.5208,-2.603,-2.685,-2.684,-2.684,-2.8889,-3.0935,-3.2186,-3.3451,-3.5915,-3.9187,-4.1995,-4.2668,-4.3701,-4.4145,-4.4666,-4.4895,-4.4601,-4.4509,-4.4436,-4.4381,-4.4234,-4.4215,-4.4639,-4.597,-4.7716,-5.0249,-5.3138,-5.7217,-6.0526,-6.4792,-6.7348,-6.9583,-7.0048,-7.0485,-7.0343,-7.0343,-6.9831,0.631,0.6286,0.6315,0.5521,0.4326,0.4358,0.2381,-0.0396,-0.1985,-0.238,-0.2374,-0.3174,-0.3979,-0.478,-0.5174,-0.6763,-0.9494,-0.9885,-1.0648,-1.2182,-1.2564,-1.2167,-1.2564,-1.2564,-1.2558,-1.2564,-1.2564,-1.2564,-1.2564,-1.2564,-1.2564,-1.2564,-1.2564,-1.2564,-1.2564,-1.2564,-1.2564,-1.2564,-1.2564,-1.2564,-1.2564,-1.2564,-1.2564,-1.2564,-1.2564,-1.2564,-1.2564,-1.2569,-1.2596,-1.2675,-1.2802,-1.2892,-1.2998,-1.3099,-1.3152,-1.3189,-1.3279,-1.3374,-1.3427,-1.3496,-1.3586,-1.366,-1.3703,-1.3703,-1.3703,-1.3756,-1.3756,-1.3692,-1.3613,-1.3549,-1.3507,-1.3427,-1.3369,-1.3737,-1.538,-1.7005,-1.9469,-2.275,-2.4386,-2.5208,-2.644,-2.6451,-2.6872,-2.8912,-2.9779,-3.1456,-3.2392,-3.5719,-3.8389,-4.0245,-4.1626,-4.2588,-4.4091,-4.4739,-4.4968,-4.4877,-4.4877,-4.473,-4.4564,-4.4546,-4.4546,-4.4509,-4.4936,-4.7267,-5.0228,-5.3312,-5.738,-6.2109,-6.5203,-6.7185,-6.8626,-6.968,-7.0343,-7.0485,-6.9632,0.6363,0.6325,0.6355,0.6333,0.6291,0.6341,0.4768,0.2776,0.2782,0.2788,0.2395,0.04,-0.0803,-0.1616,-0.1619,-0.3633,-0.601,-0.6791,-0.8332,-0.9083,-0.9814,-0.9418,-1.0986,-1.0986,-1.1775,-1.2167,-1.2564,-1.2564,-1.2564,-1.2564,-1.2564,-1.2564,-1.2564,-1.2564,-1.2564,-1.2564,-1.2564,-1.2564,-1.2564,-1.2564,-1.2564,-1.2564,-1.2564,-1.2564,-1.2564,-1.2564,-1.2564,-1.2564,-1.2564,-1.2569,-1.2654,-1.2749,-1.286,-1.2598,-1.3078,-1.3152,-1.3316,-1.3443,-1.3533,-1.3618,-1.3703,-1.3782,-1.3819,-1.3819,-1.384,-1.3909,-1.3909,-1.384,-1.3777,-1.3713,-1.3224,-1.3549,-1.3464,-1.3835,-1.4626,-1.5833,-1.6611,-1.9477,-2.2321,-2.3966,-2.5619,-2.604,-2.6472,-2.7326,-2.8204,-2.9085,-3.0406,-3.2469,-3.5535,-3.6598,-3.8007,-3.9987,-4.2292,-4.4614,-4.5281,-4.5189,-4.5281,-4.5189,-4.5005,-4.4932,-4.4895,-4.4766,-4.4638,-4.6204,-4.7635,-5.029,-5.3876,-5.8558,-6.2134,-6.4941,-6.6313,-6.7969,-6.8543,-6.8523,-6.8334,0.6445,0.6434,0.6386,0.6339,0.6294,0.6341,0.6341,0.59,0.5558,0.5997,0.5646,0.5688,0.3667,0.1634,0.123,-0.0409,-0.2437,-0.3227,-0.4005,-0.397,-0.5129,-0.6288,-0.786,-0.8235,-0.9022,-1.1383,-1.2167,-1.0991,-1.2167,-1.2564,-1.2564,-1.2564,-1.2564,-1.2564,-1.2564,-1.2564,-1.2564,-1.2564,-1.2564,-1.2574,-1.2574,-1.2564,-1.2564,-1.2569,-1.2564,-1.2564,-1.2564,-1.2564,-1.2564,-1.2564,-1.259,-1.2638,-1.2776,-1.2521,-1.269,-1.3226,-1.3369,-1.3517,-1.366,-1.374,-1.3824,-1.3883,-1.393,-1.3914,-1.3904,-1.3936,-1.3946,-1.3899,-1.3851,-1.3793,-1.375,-1.3665,-1.3607,-1.3983,-1.4338,-1.4689,-1.5908,-1.7536,-1.9563,-2.1145,-2.3199,-2.603,-2.605,-2.6472,-2.7337,-2.7759,-2.9039,-3.0733,-3.225,-3.2555,-3.451,-3.6945,-4.0116,-4.2881,-4.396,-4.5538,-4.5648,-4.5611,-4.5446,-4.5354,-4.5299,-4.5079,-4.4803,-4.5417,-4.6091,-4.8365,-4.9938,-5.3289,-5.6534,-6.0262,-6.3197,-6.5176,-6.6017,-6.5655,-6.5936,0.6487,0.6455,0.6429,0.6408,0.6386,0.6373,0.6378,0.6392,0.641,0.6453,0.6508,0.6535,0.5741,0.4535,0.455,0.2888,0.0,-0.0,-0.0809,-0.2004,-0.3575,-0.3959,-0.4338,-0.5116,-0.5891,-0.6278,-0.7062,-0.8238,-0.9806,-1.0986,-1.2564,-1.2564,-1.2564,-1.2564,-1.2558,-1.2558,-1.2558,-1.2558,-1.2569,-1.2606,-1.2611,-1.2601,-1.2627,-1.2638,-1.2585,-1.2569,-1.2564,-1.2564,-1.2564,-1.2564,-1.2564,-1.259,-1.2649,-1.2786,-1.295,-1.3247,-1.3411,-1.3607,-1.375,-1.383,-1.3893,-1.393,-1.3941,-1.3946,-1.3946,-1.3946,-1.3946,-1.3946,-1.3904,-1.3867,-1.383,-1.3793,-1.375,-1.3708,-1.3628,-1.3966,-1.4776,-1.6002,-1.7181,-1.8347,-2.0773,-2.4023,-2.604,-2.644,-2.6461,-2.6883,-2.8148,-2.9039,-2.9462,-2.9862,-3.2353,-3.469,-3.8297,-4.1507,-4.3877,-4.5832,-4.5832,-4.5777,-4.5685,-4.5666,-4.5703,-4.5556,-4.5391,-4.5372,-4.5391,-4.6129,-4.7316,-4.9391,-5.2258,-5.4923,-5.7933,-6.0115,-6.1348,-6.1159,-6.2889,0.6545,0.6506,0.6487,0.6482,0.6477,0.6455,0.6455,0.6479,0.6482,0.65,0.6545,0.6561,0.6606,0.6657,0.6675,0.54,0.3718,0.2873,0.1224,0.0809,0.0802,-0.0799,-0.1592,-0.198,-0.2366,-0.3149,-0.3536,-0.4707,-0.667,-0.9806,-1.0986,-1.2167,-1.1378,-1.1775,-1.1775,-1.1775,-1.1378,-1.0986,-1.2167,-1.2596,-1.2617,-1.2638,-1.2675,-1.2712,-1.2691,-1.2701,-1.2691,-1.2686,-1.2686,-1.2675,-1.2664,-1.2659,-1.2659,-1.2744,-1.2871,-1.3194,-1.3448,-1.4086,-1.4206,-1.3883,-1.3946,-1.3946,-1.3946,-1.3946,-1.3946,-1.3946,-1.3946,-1.3946,-1.393,-1.3914,-1.3888,-1.3872,-1.3846,-1.3793,-1.3729,-1.4097,-1.4064,-1.5293,-1.6059,-1.7242,-1.7201,-2.0489,-2.5803,-2.6609,-2.6175,-2.6493,-2.6504,-2.7054,-2.7544,-2.8923,-3.1014,-3.3638,-3.6803,-3.961,-4.2417,-4.5649,-4.5594,-4.596,-4.5887,-4.5868,-4.585,-4.585,-4.5905,-4.585,-4.5703,-4.5611,-4.5519,-4.7187,-5.0109,-5.201,-5.3985,-5.5079,-5.6211,-5.6603,-5.766,0.6628,0.6617,0.6567,0.6543,0.6551,0.6593,0.6588,0.6545,0.6543,0.6543,0.6551,0.6604,0.6643,0.671,0.6763,0.632,0.585,0.5809,0.5353,0.531,0.4453,0.3229,0.2411,0.1598,0.0398,-0.1585,-0.2371,-0.1578,-0.3533,-0.5898,-0.9034,-1.0594,-0.9022,-0.9438,-0.9831,-0.9041,-0.785,-0.8641,-0.943,-1.0617,-1.1046,-1.1474,-1.1904,-1.1958,-1.2387,-1.2807,-1.2829,-1.2834,-1.2844,-1.2855,-1.2866,-1.2871,-1.2882,-1.2887,-1.2966,-1.3141,-1.3841,-1.4043,-1.3771,-1.3883,-1.3936,-1.3946,-1.3946,-1.3946,-1.3946,-1.3946,-1.3946,-1.3946,-1.3946,-1.3946,-1.3946,-1.393,-1.392,-1.3877,-1.3819,-1.3793,-1.3761,-1.4146,-1.5352,-1.5287,-1.5674,-1.8979,-2.4767,-2.5957,-2.5957,-2.6352,-2.6852,-2.6968,-2.7569,-2.8522,-2.9989,-3.2662,-3.5435,-3.8194,-4.1366,-4.4616,-4.539,-4.6162,-4.6107,-4.6052,-4.5942,-4.5924,-4.5942,-4.5942,-4.5942,-4.5905,-4.5777,-4.6596,-4.8292,-4.959,-5.121,-5.2345,-5.2324,-5.2658,-5.3763,0.663,0.663,0.6609,0.6601,0.6612,0.6665,0.6678,0.6654,0.6617,0.6601,0.6604,0.662,0.6646,0.6662,0.6683,0.6673,0.6665,0.6638,0.6606,0.6598,0.654,0.5704,0.5275,0.4842,0.3615,0.3611,0.3198,0.1592,-0.0,-0.1187,-0.3553,-0.5505,-0.5101,-0.5918,-0.5544,-0.5523,-0.4717,-0.5127,-0.5895,-0.7074,-0.7495,-0.8304,-0.9518,-0.9988,-1.1227,-1.2439,-1.2882,-1.2897,-1.2897,-1.2892,-1.2892,-1.2892,-1.2924,-1.2961,-1.3035,-1.3125,-1.3342,-1.3565,-1.3745,-1.3872,-1.3909,-1.3925,-1.3946,-1.3946,-1.3946,-1.3946,-1.3946,-1.3946,-1.3946,-1.3946,-1.3946,-1.3946,-1.3936,-1.3936,-1.3899,-1.3899,-1.3872,-1.3867,-1.467,-1.4591,-1.4967,-1.9998,-2.4569,-2.4971,-2.5893,-2.6779,-2.7243,-2.7444,-2.7645,-2.7934,-2.9012,-3.2246,-3.5061,-3.7804,-4.0954,-4.4118,-4.5643,-4.6364,-4.6309,-4.6273,-4.6181,-4.6107,-4.5997,-4.5942,-4.6071,-4.6126,-4.6034,-4.596,-4.6783,-4.8083,-4.9101,-4.9218,-4.8775,-4.9082,-4.9789,0.6612,0.663,0.6612,0.6625,0.667,0.6726,0.6749,0.6744,0.671,0.6667,0.6638,0.663,0.663,0.663,0.6636,0.6638,0.6633,0.663,0.663,0.6625,0.6593,0.6575,0.6556,0.6112,0.6082,0.6479,0.6455,0.4816,0.3198,0.1591,0.0396,-0.0396,-0.198,-0.1588,-0.0398,-0.1189,-0.1576,-0.1585,-0.2763,-0.3146,-0.3556,-0.5133,-0.6341,-0.6408,-0.8035,-0.8871,-0.8911,-0.8551,-0.9784,-1.0603,-1.101,-1.182,-1.3062,-1.3083,-1.3136,-1.3183,-1.3247,-1.348,-1.3676,-1.3777,-1.383,-1.384,-1.3851,-1.3877,-1.3899,-1.392,-1.3941,-1.3946,-1.3946,-1.3946,-1.3946,-1.3946,-1.3946,-1.3946,-1.3946,-1.3946,-1.3951,-1.3951,-1.3946,-1.3867,-1.4272,-1.8507,-2.198,-2.2899,-2.5644,-2.7032,-2.792,-2.8068,-2.8036,-2.8278,-2.8031,-3.1345,-3.4572,-3.7337,-4.0925,-4.4483,-4.6414,-4.6787,-4.6695,-4.6603,-4.6456,-4.6346,-4.6254,-4.6199,-4.6273,-4.6346,-4.6309,-4.6273,-4.6181,-4.6291,-4.7474,-4.8071,-4.8014,-4.792,-4.862,0.6583,0.6622,0.6572,0.6622,0.6739,0.6789,0.6813,0.6808,0.6802,0.6739,0.6638,0.663,0.663,0.663,0.663,0.6638,0.6643,0.6638,0.6638,0.6638,0.6625,0.6625,0.6604,0.658,0.6545,0.653,0.6511,0.6484,0.6052,0.4014,0.4009,0.3206,0.1199,0.0798,0.5574,0.3157,0.1974,0.1588,-0.1184,-0.1574,-0.197,-0.2371,-0.3169,-0.3593,-0.4422,-0.5258,-0.528,-0.5306,-0.6543,-0.8187,-0.8603,-1.0257,-1.2331,-1.2772,-1.321,-1.3226,-1.3258,-1.3374,-1.3147,-1.3597,-1.3634,-1.366,-1.3745,-1.3771,-1.3798,-1.3867,-1.392,-1.3904,-1.3936,-1.3946,-1.3946,-1.3946,-1.3946,-1.3946,-1.3946,-1.3951,-1.3962,-1.3962,-1.3989,-1.3962,-1.4398,-1.4861,-1.844,-2.1607,-2.4846,-2.7193,-2.8121,-2.8522,-2.8406,-2.8194,-2.792,-3.0763,-3.3123,-3.5513,-3.7917,-4.3185,-4.6401,-4.6778,-4.7136,-4.7044,-4.6916,-4.6732,-4.6603,-4.6511,-4.6493,-4.6438,-4.6493,-4.6567,-4.6695,-4.6805,-4.7136,-4.7265,-4.7209,-4.7548,-4.867,0.6617,0.6628,0.6612,0.672,0.6893,0.6922,0.6903,0.6871,0.6863,0.6779,0.6633,0.663,0.663,0.663,0.6633,0.6649,0.6667,0.6657,0.6665,0.6662,0.6651,0.6633,0.6625,0.6614,0.6596,0.6604,0.658,0.6551,0.6519,0.5688,0.5672,0.5665,0.4854,0.4455,0.6471,0.5232,0.5226,0.4836,0.4,0.3568,0.277,0.1582,0.0,-0.0,-0.2002,-0.2418,-0.2433,-0.2441,-0.3667,-0.489,-0.6923,-0.8572,-1.0232,-1.1496,-1.2762,-1.3221,-1.3268,-1.3321,-1.3438,-1.3491,-1.3517,-1.3554,-1.3628,-1.3655,-1.3687,-1.3761,-1.3835,-1.384,-1.3909,-1.3946,-1.3946,-1.3946,-1.3946,-1.3951,-1.3951,-1.3978,-1.3989,-1.4042,-1.4057,-1.4512,-1.4578,-1.4622,-1.7332,-1.9562,-2.3277,-2.5702,-2.7455,-2.867,-2.8532,-2.8258,-2.8046,-2.9596,-3.2015,-3.3224,-3.4853,-3.9827,-4.394,-4.4726,-4.5874,-4.6635,-4.7375,-4.7136,-4.6971,-4.686,-4.6732,-4.6567,-4.6603,-4.6769,-4.7007,-4.7265,-4.7448,-4.7577,-4.754,-4.7937,-4.9107,0.6681,0.6699,0.6699,0.6781,0.6914,0.6935,0.6911,0.6866,0.6879,0.6802,0.6667,0.6641,0.663,0.663,0.6636,0.6654,0.6678,0.6665,0.6673,0.6675,0.6675,0.6654,0.6633,0.663,0.6633,0.6628,0.6628,0.6606,0.6575,0.6134,0.6524,0.6537,0.6149,0.6564,0.6556,0.653,0.6117,0.6519,0.6453,0.6402,0.5995,0.4375,0.3578,0.3202,0.0801,0.0403,0.0405,0.0405,-0.0405,-0.2026,-0.4446,-0.6479,-0.853,-1.138,-1.2634,-1.3083,-1.3152,-1.3236,-1.3332,-1.3321,-1.3326,-1.3406,-1.3496,-1.356,-1.3623,-1.3665,-1.3718,-1.3787,-1.3846,-1.3867,-1.3899,-1.3925,-1.3951,-1.3962,-1.3983,-1.4015,-1.4063,-1.4147,-1.4622,-1.5954,-1.5587,-1.5674,-1.7027,-1.8361,-2.1676,-2.5032,-2.7146,-2.8765,-2.8448,-2.8152,-2.8015,-2.9153,-3.167,-3.3313,-3.3729,-3.715,-4.1425,-4.3009,-4.4598,-4.6229,-4.7434,-4.7614,-4.7356,-4.7228,-4.7081,-4.6916,-4.6879,-4.6989,-4.7099,-4.7246,-4.7467,-4.7724,-4.7852,-4.7907,-4.829,0.6763,0.6818,0.6818,0.6826,0.6837,0.6877,0.6866,0.6821,0.6869,0.6821,0.6712,0.6675,0.6659,0.6649,0.6651,0.6641,0.6654,0.6694,0.6691,0.6686,0.6686,0.6681,0.6675,0.6659,0.6646,0.6646,0.6651,0.6646,0.662,0.6588,0.6604,0.6622,0.6612,0.6588,0.658,0.6588,0.659,0.6553,0.6482,0.6447,0.6445,0.602,0.602,0.604,0.6084,0.6532,0.6535,0.5704,0.4477,0.2034,-0.1214,-0.3635,-0.5667,-0.8896,-1.0117,-1.0961,-1.1824,-1.312,-1.2798,-1.2782,-1.2716,-1.3173,-1.3311,-1.3496,-1.3591,-1.3188,-1.3671,-1.3777,-1.383,-1.384,-1.3872,-1.3883,-1.3957,-1.3983,-1.401,-1.4042,-1.41,-1.4195,-1.5154,-1.6964,-1.7928,-1.847,-1.9404,-2.1086,-2.3907,-2.6371,-2.8537,-2.8617,-2.83,-2.812,-2.7983,-2.8743,-3.1287,-3.2137,-3.2985,-3.4691,-3.7662,-3.9723,-4.2651,-4.5209,-4.6935,-4.8054,-4.7779,-4.7614,-4.7412,-4.7265,-4.7173,-4.7246,-4.7301,-4.732,-4.7393,-4.7614,-4.7761,-4.7871,-4.7981,0.6845,0.6935,0.6938,0.6935,0.6938,0.6948,0.6901,0.6821,0.6866,0.6826,0.6749,0.6749,0.676,0.6749,0.6683,0.6683,0.6749,0.6686,0.6702,0.6712,0.6707,0.6704,0.6718,0.6712,0.6699,0.6699,0.6699,0.6681,0.6662,0.6657,0.6654,0.663,0.6649,0.6628,0.662,0.6628,0.663,0.6596,0.6514,0.6471,0.6453,0.6386,0.6376,0.6389,0.6408,0.6431,0.6469,0.6477,0.6479,0.4453,0.2017,-0.0404,-0.1622,-0.4043,-0.525,-0.6082,-1.0921,-1.2603,-1.145,-1.1528,-1.1189,-1.2074,-1.3427,-1.3475,-1.3586,-1.3697,-1.3766,-1.3777,-1.3835,-1.393,-1.3994,-1.3957,-1.3989,-1.401,-1.4031,-1.4068,-1.411,-1.4216,-1.5182,-1.7461,-1.934,-2.0355,-2.2093,-2.3784,-2.5645,-2.7677,-2.8402,-2.8469,-2.8247,-2.8089,-2.7962,-2.7856,-2.9562,-2.9551,-3.0414,-3.2137,-3.3858,-3.6392,-4.0636,-4.3615,-4.4888,-4.6055,-4.7634,-4.7907,-4.7705,-4.7577,-4.7467,-4.7522,-4.7558,-4.7448,-4.7393,-4.7558,-4.7687,-4.7779,-4.7926,0.6919,0.6977,0.6977,0.6964,0.6946,0.6969,0.6914,0.6837,0.6863,0.684,0.6779,0.6797,0.681,0.6795,0.6744,0.6736,0.6752,0.6734,0.6731,0.6707,0.6726,0.6734,0.6763,0.6763,0.6757,0.6757,0.6752,0.6731,0.6731,0.6739,0.6747,0.6715,0.6712,0.6694,0.6673,0.6673,0.6657,0.662,0.6575,0.6532,0.6514,0.6474,0.6439,0.6447,0.645,0.6453,0.6453,0.6437,0.6426,0.6047,0.3612,0.1611,0.1214,0.1619,0.1211,0.0406,-0.7253,-1.0486,-0.9346,-0.9835,-1.1117,-1.2849,-1.3369,-1.3459,-1.3528,-1.3628,-1.3708,-1.3777,-1.3846,-1.3888,-1.3925,-1.3951,-1.3989,-1.4026,-1.4042,-1.4079,-1.4132,-1.4682,-1.6097,-1.8415,-2.0738,-2.2941,-2.5124,-2.6384,-2.7314,-2.8318,-2.8564,-2.8321,-2.8194,-2.8036,-2.792,-2.7835,-2.7835,-2.7835,-2.9131,-2.9994,-3.1706,-3.3845,-3.8104,-4.1094,-4.2797,-4.4923,-4.7393,-4.811,-4.7579,-4.747,-4.7797,-4.7761,-4.7705,-4.7577,-4.743,-4.7577,-4.7742,-4.7834,-4.8036,0.6977,0.6977,0.6977,0.6946,0.6906,0.6943,0.6903,0.6821,0.6866,0.6861,0.6818,0.6829,0.6834,0.6826,0.6821,0.6795,0.6773,0.6773,0.6755,0.6712,0.6747,0.6763,0.6763,0.6795,0.68,0.6818,0.6818,0.6818,0.6813,0.6813,0.6813,0.6797,0.6784,0.6776,0.6712,0.6707,0.6689,0.6641,0.6628,0.662,0.6606,0.6585,0.6559,0.6543,0.653,0.6522,0.6495,0.6453,0.6434,0.6059,0.3608,0.2402,0.2817,0.5239,0.6037,0.3216,-0.2407,-0.8416,-0.566,-0.8168,-1.1515,-1.2823,-1.3353,-1.3438,-1.3549,-1.3639,-1.4168,-1.3798,-1.3819,-1.3856,-1.3914,-1.392,-1.3946,-1.3999,-1.4042,-1.4063,-1.5008,-1.5972,-1.7809,-2.0117,-2.3148,-2.5372,-2.7193,-2.8048,-2.8911,-2.8847,-2.8342,-2.8247,-2.8131,-2.7972,-2.7846,-2.7835,-2.7835,-2.7835,-2.8699,-2.8699,-2.9982,-3.1694,-3.512,-3.8119,-4.024,-4.2797,-4.5754,-4.7024,-4.7024,-4.6935,-4.681,-4.7123,-4.7852,-4.7742,-4.7632,-4.7687,-4.7816,-4.7981,-4.8165,0.6977,0.6977,0.6977,0.6946,0.6898,0.6903,0.6871,0.6829,0.6866,0.6882,0.6879,0.6914,0.6908,0.6895,0.6908,0.6908,0.6855,0.6813,0.6797,0.6763,0.6763,0.6795,0.6818,0.6837,0.6832,0.6863,0.6871,0.6874,0.6874,0.6874,0.6848,0.6832,0.6813,0.6779,0.6734,0.6723,0.6683,0.6651,0.663,0.6604,0.6561,0.6519,0.6503,0.6537,0.6543,0.6559,0.6559,0.6508,0.6495,0.6089,0.566,0.5232,0.5637,0.6007,0.6408,0.6047,0.446,0.0407,-0.204,-0.6977,-1.0324,-1.2445,-1.3469,-1.3597,-1.3676,-1.3729,-1.3856,-1.3909,-1.3914,-1.393,-1.3978,-1.3983,-1.3994,-1.4031,-1.402,-1.4447,-1.5841,-1.7216,-1.8599,-2.2104,-2.5062,-2.682,-2.7788,-2.8664,-2.8675,-2.8184,-2.8152,-2.8068,-2.8068,-2.7909,-2.7835,-2.7835,-2.7835,-2.7835,-2.7835,-2.7835,-2.8688,-3.0414,-3.2985,-3.5549,-3.8119,-4.0667,-4.1946,-4.3206,-4.3665,-4.494,-4.5364,-4.5702,-4.681,-4.7944,-4.7834,-4.7852,-4.7981,-4.8146,-4.8312,0.6977,0.6977,0.6977,0.6961,0.6935,0.6932,0.6901,0.6855,0.6877,0.689,0.6901,0.6919,0.693,0.6943,0.6969,0.6946,0.6895,0.6855,0.6834,0.6816,0.6805,0.6832,0.6832,0.6887,0.6893,0.6895,0.6919,0.6932,0.6932,0.693,0.6922,0.6887,0.6858,0.6818,0.6773,0.6734,0.6689,0.6646,0.663,0.6617,0.6588,0.6567,0.6537,0.6548,0.6548,0.6543,0.6543,0.649,0.6487,0.6516,0.6461,0.6455,0.6455,0.6431,0.6381,0.6408,0.6032,0.3231,-0.2437,-0.7781,-0.9483,-1.1198,-1.09,-1.1848,-1.3193,-1.3718,-1.3782,-1.3856,-1.3899,-1.3973,-1.4026,-1.3978,-1.3978,-1.4015,-1.3989,-1.5292,-1.6637,-1.7531,-2.0627,-2.5024,-2.6689,-2.7538,-2.8015,-2.8025,-2.8015,-2.7983,-2.7951,-2.7962,-2.7983,-2.7909,-2.7835,-2.7835,-2.7835,-2.7835,-2.7835,-2.7835,-2.8267,-2.912,-3.0833,-3.2985,-3.5549,-3.8119,-3.9387,-3.9446,-4.0683,-4.1536,-4.2404,-4.3797,-4.616,-4.7707,-4.7761,-4.7816,-4.8257,-4.8293,-4.844,0.6977,0.6977,0.6977,0.6977,0.6977,0.6977,0.6948,0.6908,0.6908,0.6906,0.6908,0.6906,0.694,0.6964,0.6977,0.6954,0.6922,0.6906,0.6879,0.6842,0.6855,0.6861,0.6855,0.6901,0.6922,0.6916,0.6943,0.6969,0.6972,0.6977,0.6964,0.6961,0.6914,0.6858,0.68,0.6749,0.6691,0.6641,0.663,0.663,0.6622,0.6614,0.6601,0.6569,0.6569,0.6551,0.6498,0.6445,0.6439,0.6519,0.6437,0.6447,0.6474,0.6421,0.6368,0.636,0.6373,0.3602,-0.2414,-0.7712,-0.8969,-0.9006,-0.9529,-1.1296,-1.2599,-1.3533,-1.3665,-1.375,-1.3824,-1.3888,-1.3914,-1.3909,-1.392,-1.3946,-1.4381,-1.5263,-1.7438,-1.8749,-2.0938,-2.6195,-2.7022,-2.7867,-2.7888,-2.7909,-2.7909,-2.7909,-2.7888,-2.7898,-2.792,-2.7877,-2.7835,-2.7835,-2.7835,-2.7835,-2.7835,-2.7835,-2.7835,-2.8699,-2.9551,-3.1275,-3.2555,-3.5133,-3.606,-3.4875,-3.5738,-3.7489,-3.9641,-4.1375,-4.3058,-4.3997,-4.6137,-4.7418,-4.7917,-4.7989,-4.8061,0.6977,0.6977,0.6977,0.6977,0.6977,0.6977,0.6972,0.6961,0.6964,0.6959,0.6964,0.6964,0.6961,0.6977,0.6977,0.6975,0.6961,0.6956,0.693,0.6882,0.6895,0.6885,0.6879,0.6901,0.6911,0.6901,0.6951,0.6975,0.6977,0.6977,0.6975,0.6964,0.6916,0.6858,0.6808,0.6749,0.6696,0.6659,0.6651,0.6649,0.6646,0.6638,0.6636,0.6617,0.6614,0.6598,0.658,0.6537,0.6522,0.6537,0.6479,0.6458,0.645,0.64,0.6349,0.6296,0.6331,0.3575,-0.1197,-0.2812,-0.4444,-0.8489,-1.0676,-1.2435,-1.2911,-1.3454,-1.357,-1.3628,-1.366,-1.3708,-1.3793,-1.3808,-1.3851,-1.3914,-1.3941,-1.6121,-1.9162,-2.0464,-2.2615,-2.6518,-2.7814,-2.7835,-2.7835,-2.7835,-2.7835,-2.7846,-2.7846,-2.7846,-2.7856,-2.7835,-2.7835,-2.7835,-2.7835,-2.7835,-2.7835,-2.7835,-2.7835,-2.8267,-2.8267,-2.8699,-2.9131,-3.1803,-3.2802,-3.1584,-3.1703,-3.3549,-3.5774,-3.7844,-3.9611,-4.021,-4.1953,-4.4911,-4.6261,-4.7665,-4.8368,0.6977,0.6977,0.6977,0.6977,0.6977,0.6977,0.6977,0.6977,0.6977,0.6977,0.6977,0.6977,0.6977,0.6977,0.6977,0.6977,0.6977,0.6977,0.6961,0.6943,0.6935,0.6919,0.6903,0.6916,0.6938,0.6943,0.6967,0.6977,0.6977,0.6975,0.6964,0.693,0.6874,0.684,0.6802,0.6749,0.6723,0.6718,0.6726,0.6726,0.6718,0.6696,0.6678,0.6678,0.6649,0.663,0.6628,0.6575,0.6564,0.6569,0.6532,0.6466,0.6381,0.6363,0.632,0.6259,0.6267,0.432,0.2768,0.2388,0.0401,-0.5239,-0.8569,-1.1108,-1.2859,-1.3342,-1.3443,-1.3496,-1.3522,-1.356,-1.3671,-1.3687,-1.3745,-1.3824,-1.3856,-1.6054,-1.9992,-2.2106,-2.4208,-2.6377,-2.774,-2.7803,-2.7835,-2.7835,-2.7835,-2.7835,-2.7835,-2.7835,-2.7835,-2.7835,-2.7835,-2.7835,-2.7835,-2.7835,-2.7835,-2.7835,-2.7835,-2.7835,-2.7867,-2.7888,-2.793,-2.8928,-3.0381,-3.0045,-2.9706,-3.1164,-3.3016,-3.4668,-3.6373,-3.7787,-3.9602,-4.1842,-4.4034,-4.5784,-4.6955,0.6977,0.6977,0.6977,0.6977,0.6977,0.6977,0.6977,0.6977,0.6977,0.6977,0.6977,0.6977,0.6977,0.6977,0.6977,0.6977,0.6977,0.6977,0.6977,0.6977,0.6977,0.6948,0.6932,0.6951,0.6975,0.6975,0.6977,0.6977,0.6977,0.6975,0.6954,0.6911,0.6874,0.6826,0.6821,0.6779,0.6765,0.68,0.6802,0.68,0.6787,0.6757,0.6731,0.6712,0.6675,0.6649,0.6625,0.6575,0.6561,0.6572,0.6537,0.645,0.6349,0.6333,0.6296,0.6225,0.6196,0.6206,0.5863,0.4725,0.2381,-0.3198,-0.6859,-0.938,-1.2752,-1.3199,-1.3274,-1.3364,-1.339,-1.3427,-1.3507,-1.3972,-1.3628,-1.4135,-1.4602,-1.6348,-2.0293,-2.2794,-2.4857,-2.6581,-2.755,-2.7698,-2.774,-2.7729,-2.7782,-2.7835,-2.7835,-2.7835,-2.7835,-2.7835,-2.7835,-2.7835,-2.7835,-2.7835,-2.7835,-2.7835,-2.7835,-2.7835,-2.793,-2.7994,-2.8078,-2.8632,-2.9331,-2.9008,-2.8617,-2.9581,-3.1488,-3.2742,-3.3199,-3.5355,-3.7126,-3.858,-4.0426,-4.3854,-4.5514,0.6977,0.6977,0.6977,0.6977,0.6977,0.6977,0.6977,0.6977,0.6977,0.6977,0.6977,0.6977,0.6977,0.6977,0.6977,0.6977,0.6977,0.6977,0.6977,0.6977,0.6977,0.6975,0.6959,0.6975,0.6975,0.6969,0.6977,0.6975,0.6969,0.6975,0.6972,0.6943,0.6901,0.6882,0.6861,0.6826,0.6805,0.6821,0.6829,0.6829,0.6826,0.681,0.6776,0.6739,0.671,0.6681,0.663,0.6577,0.6519,0.6477,0.6469,0.6421,0.6363,0.6302,0.6257,0.6204,0.6159,0.6153,0.5813,0.2724,-0.0781,-0.2761,-0.5965,-0.9205,-1.1733,-1.3051,-1.3146,-1.3258,-1.3268,-1.3289,-1.3326,-1.3395,-1.3917,-1.4439,-1.5735,-1.8704,-2.2117,-2.3791,-2.4627,-2.6758,-2.718,-2.7317,-2.7444,-2.7539,-2.7603,-2.7719,-2.7814,-2.7824,-2.7835,-2.7835,-2.7835,-2.7835,-2.7835,-2.7835,-2.7835,-2.7835,-2.7835,-2.7846,-2.7951,-2.8036,-2.812,-2.8385,-2.8659,-2.886,-2.8902,-2.9415,-3.0358,-3.0403,-3.0006,-3.1753,-3.3866,-3.4862,-3.6735,-4.0559,-4.3838,0.6977,0.6977,0.6977,0.6977,0.6977,0.6977,0.6977,0.6977,0.6977,0.6977,0.6977,0.6977,0.6977,0.6977,0.6977,0.6977,0.6977,0.6977,0.6977,0.6977,0.6977,0.6977,0.6977,0.6977,0.6959,0.6935,0.6961,0.6956,0.6938,0.6964,0.6956,0.6927,0.6901,0.689,0.6887,0.6866,0.6871,0.6898,0.6906,0.6906,0.6903,0.6874,0.6829,0.6779,0.6734,0.6694,0.6633,0.6575,0.6498,0.6426,0.64,0.6363,0.628,0.6243,0.6222,0.6198,0.6143,0.6151,0.5054,0.117,-0.1175,-0.1579,-0.5551,-0.8388,-1.0063,-1.2132,-1.3025,-1.3131,-1.3146,-1.3183,-1.3242,-1.3295,-1.3797,-1.5144,-1.8456,-2.1322,-2.2987,-2.4767,-2.609,-2.655,-2.7042,-2.718,-2.7254,-2.7412,-2.7518,-2.7624,-2.7719,-2.7793,-2.7824,-2.7835,-2.7835,-2.7835,-2.7835,-2.7835,-2.7835,-2.7835,-2.7835,-2.7835,-2.7909,-2.7994,-2.8194,-2.8511,-2.8786,-2.9019,-2.9145,-2.9209,-2.9619,-2.963,-2.9188,-2.9598,-3.0115,-3.2344,-3.4964,-3.8403,-4.1663,0.6977,0.6977,0.6977,0.6977,0.6977,0.6977,0.6977,0.6977,0.6977,0.6977,0.6977,0.6977,0.6977,0.6977,0.6977,0.6977,0.6977,0.6977,0.6977,0.6977,0.6977,0.6977,0.6977,0.6961,0.6924,0.6879,0.6903,0.6911,0.6874,0.6906,0.6906,0.6869,0.6866,0.6874,0.6887,0.6887,0.6922,0.6969,0.6977,0.6975,0.6967,0.6932,0.6887,0.6832,0.6776,0.6718,0.6657,0.6585,0.6492,0.64,0.6365,0.6302,0.6238,0.6212,0.6201,0.6188,0.6148,0.6153,0.5452,0.1953,0.0392,0.0792,-0.3562,-0.716,-0.8025,-1.0849,-1.251,-1.2998,-1.3436,-1.3893,-1.3584,-1.444,-1.4912,-1.6242,-1.989,-2.3106,-2.4004,-2.5773,-2.6704,-2.6715,-2.6831,-2.6937,-2.7042,-2.7169,-2.7286,-2.7402,-2.756,-2.7719,-2.7729,-2.774,-2.7835,-2.7835,-2.7814,-2.7824,-2.7835,-2.7835,-2.7835,-2.7835,-2.7877,-2.7962,-2.8205,-2.8459,-2.8733,-2.8997,-2.8934,-2.8913,-2.8997,-2.9071,-2.904,-2.8945,-2.9437,-2.9887,-3.3007,-3.6128,-3.9379,0.6977,0.6977,0.6977,0.6977,0.6977,0.6977,0.6977,0.6977,0.6977,0.6977,0.6977,0.6977,0.6977,0.6977,0.6977,0.6977,0.6977,0.6977,0.6975,0.6964,0.6961,0.6964,0.6961,0.6924,0.6877,0.6826,0.6826,0.6821,0.6813,0.6829,0.6816,0.6821,0.6824,0.6837,0.6874,0.6887,0.6911,0.6954,0.6967,0.6964,0.6964,0.6961,0.6938,0.6877,0.6824,0.6768,0.6702,0.6606,0.6519,0.6447,0.6357,0.6302,0.627,0.6225,0.6204,0.6201,0.6143,0.6159,0.6188,0.5054,0.4289,0.1964,-0.1573,-0.4729,-0.7545,-1.0353,-1.2786,-1.2892,-1.4518,-1.4982,-1.5092,-1.6346,-1.7217,-1.5258,-1.9684,-2.3774,-2.5988,-2.6461,-2.6504,-2.6504,-2.6482,-2.6567,-2.6799,-2.6852,-2.6979,-2.7138,-2.7349,-2.7476,-2.7529,-2.7613,-2.7782,-2.7803,-2.7761,-2.7782,-2.7835,-2.7835,-2.7835,-2.7835,-2.7856,-2.7951,-2.812,-2.8237,-2.8427,-2.8554,-2.8596,-2.8585,-2.8617,-2.868,-2.8702,-2.8733,-2.8744,-2.8723,-3.095,-3.4088,-3.7513,0.6977,0.6977,0.6977,0.6977,0.6977,0.6977,0.6977,0.6977,0.6977,0.6977,0.6977,0.6977,0.6977,0.6977,0.6977,0.6977,0.6977,0.6977,0.694,0.6879,0.6871,0.6893,0.6916,0.6898,0.6861,0.6818,0.681,0.6789,0.6757,0.6789,0.681,0.6808,0.681,0.6818,0.6834,0.684,0.6845,0.6866,0.6871,0.6871,0.6879,0.6903,0.6895,0.6845,0.6818,0.6779,0.672,0.6643,0.6572,0.6508,0.6437,0.6373,0.6333,0.628,0.6249,0.6238,0.6204,0.6188,0.6241,0.6243,0.5477,0.3921,-0.0392,-0.3538,-0.5514,-0.986,-1.2274,-1.276,-1.478,-1.7248,-1.9817,-2.0253,-1.9865,-2.0757,-2.3103,-2.4765,-2.578,-2.6345,-2.643,-2.643,-2.644,-2.6482,-2.6599,-2.6683,-2.6842,-2.6926,-2.7116,-2.7254,-2.7286,-2.7349,-2.7476,-2.7571,-2.7624,-2.7719,-2.7803,-2.7824,-2.7835,-2.7835,-2.7835,-2.793,-2.7994,-2.8078,-2.8152,-2.8279,-2.8385,-2.8385,-2.8406,-2.8437,-2.8427,-2.8522,-2.8575,-2.8997,-3.0314,-3.2979,-3.6522,0.6977,0.6977,0.6977,0.6977,0.6977,0.6977,0.6977,0.6977,0.6977,0.6977,0.6977,0.6977,0.6977,0.6975,0.6959,0.6951,0.6951,0.693,0.6885,0.6821,0.6813,0.6832,0.6855,0.6845,0.6816,0.6784,0.6763,0.6731,0.6707,0.6731,0.6755,0.6752,0.6752,0.6763,0.6779,0.6781,0.6795,0.6805,0.681,0.6818,0.6837,0.6855,0.6869,0.6855,0.6826,0.6781,0.6723,0.6646,0.6588,0.6543,0.6471,0.64,0.6347,0.6302,0.628,0.6275,0.6243,0.6238,0.6254,0.6267,0.627,0.5086,0.1567,-0.1569,-0.353,-0.7846,-1.1412,-1.2649,-1.4645,-1.8288,-2.2858,-2.2087,-2.166,-2.5301,-2.5669,-2.5722,-2.5943,-2.6113,-2.6239,-2.6313,-2.6334,-2.6377,-2.6451,-2.6556,-2.6673,-2.6704,-2.6884,-2.7021,-2.7042,-2.7106,-2.7212,-2.7349,-2.7455,-2.756,-2.7677,-2.774,-2.7793,-2.7835,-2.7835,-2.7888,-2.7909,-2.7951,-2.8015,-2.811,-2.8194,-2.8237,-2.8258,-2.8258,-2.8215,-2.8258,-2.8289,-2.92,-3.0123,-3.321,-3.7167,0.6977,0.6977,0.6977,0.6977,0.6977,0.6977,0.6977,0.6977,0.6975,0.6967,0.6964,0.6969,0.6959,0.6959,0.6911,0.6887,0.6874,0.6829,0.68,0.6792,0.6795,0.68,0.6805,0.6763,0.6734,0.6728,0.667,0.6643,0.6641,0.6646,0.6649,0.6641,0.6649,0.6678,0.672,0.6723,0.6747,0.6781,0.6789,0.6821,0.6874,0.6837,0.6858,0.6932,0.6855,0.6776,0.672,0.6617,0.6561,0.6535,0.6439,0.6347,0.6312,0.6286,0.6275,0.6267,0.627,0.6246,0.6212,0.6243,0.6249,0.5833,0.3123,-0.0,-0.2746,-0.6275,-0.9414,-1.2177,-1.4535,-1.7736,-2.2688,-2.2679,-2.3027,-2.5404,-2.5415,-2.55,-2.5679,-2.5743,-2.5827,-2.5634,-2.6123,-2.6197,-2.6366,-2.6472,-2.6493,-2.6525,-2.6662,-2.6799,-2.681,-2.6926,-2.7085,-2.7159,-2.7243,-2.7381,-2.7529,-2.7666,-2.774,-2.7814,-2.7782,-2.7814,-2.7824,-2.7867,-2.7941,-2.7951,-2.8036,-2.8036,-2.8057,-2.8057,-2.8025,-2.8015,-2.8385,-2.8841,-3.0679,-3.3386,-3.7325,0.6977,0.6977,0.6977,0.6977,0.6977,0.6977,0.6977,0.6972,0.6935,0.6919,0.6911,0.6879,0.6863,0.6858,0.6845,0.6816,0.6771,0.6715,0.6689,0.6689,0.6689,0.671,0.6739,0.6728,0.672,0.6715,0.6699,0.667,0.6638,0.663,0.663,0.663,0.663,0.6643,0.6657,0.6659,0.6667,0.6683,0.6689,0.6718,0.6771,0.6795,0.6826,0.6845,0.6789,0.6739,0.672,0.6683,0.663,0.6553,0.6508,0.6461,0.6397,0.6323,0.6246,0.6174,0.6164,0.6156,0.6145,0.6193,0.6217,0.6201,0.3512,0.0392,-0.2746,-0.5883,-0.9015,-1.2151,-1.4498,-1.5287,-1.7299,-2.0066,-2.2825,-2.4802,-2.5183,-2.5257,-2.5468,-2.551,-2.5616,-2.5795,-2.5954,-2.6091,-2.6208,-2.6345,-2.6419,-2.6451,-2.6504,-2.6556,-2.6556,-2.663,-2.6704,-2.6884,-2.699,-2.6737,-2.7381,-2.737,-2.7381,-2.7539,-2.7571,-2.7687,-2.775,-2.7814,-2.7856,-2.7846,-2.7846,-2.7846,-2.7846,-2.7846,-2.7856,-2.7856,-2.7846,-2.8289,-3.0471,-3.3123,-3.6614,0.6977,0.6977,0.6956,0.6946,0.6943,0.6924,0.6916,0.6914,0.6877,0.6861,0.6853,0.6824,0.681,0.6805,0.6765,0.6723,0.6686,0.6649,0.663,0.663,0.663,0.6651,0.6686,0.6689,0.6689,0.6689,0.6689,0.6667,0.6633,0.663,0.663,0.663,0.663,0.663,0.663,0.663,0.663,0.663,0.663,0.6662,0.672,0.6736,0.6755,0.6773,0.6739,0.6712,0.6689,0.6689,0.6646,0.6548,0.6524,0.6477,0.6394,0.6302,0.6206,0.6121,0.6108,0.6108,0.6116,0.6164,0.6198,0.6201,0.4295,0.1961,-0.1569,-0.5097,-0.8619,-1.2146,-1.528,-1.7234,-1.7602,-1.9956,-2.273,-2.4688,-2.5066,-2.5119,-2.5235,-2.5278,-2.5331,-2.5489,-2.569,-2.588,-2.6378,-2.6176,-2.6313,-2.6324,-2.6398,-2.644,-2.6451,-2.6451,-2.6514,-2.6641,-2.6747,-2.6487,-2.7233,-2.7085,-2.7085,-2.7254,-2.737,-2.7465,-2.7486,-2.7518,-2.755,-2.7518,-2.7634,-2.7655,-2.7677,-2.7698,-2.7835,-2.7835,-2.7835,-2.8267,-2.9551,-3.4326,-3.7305,0.6972,0.6959,0.6908,0.6887,0.6882,0.6834,0.6813,0.6818,0.6808,0.6805,0.6802,0.6797,0.68,0.6787,0.6689,0.6633,0.6628,0.6625,0.662,0.6614,0.662,0.6628,0.6628,0.663,0.6633,0.6641,0.6641,0.6636,0.6633,0.663,0.663,0.663,0.663,0.663,0.663,0.663,0.663,0.663,0.663,0.6659,0.6707,0.6665,0.6667,0.671,0.671,0.6678,0.6636,0.6628,0.6598,0.6537,0.6487,0.6402,0.6288,0.6225,0.6166,0.6111,0.6103,0.6103,0.6108,0.6161,0.6198,0.6204,0.5465,0.3922,-0.0784,-0.5092,-0.9402,-1.3325,-1.7631,-2.0762,-2.3509,-2.311,-2.311,-2.4667,-2.5056,-2.5056,-2.5066,-2.5087,-2.5056,-2.5119,-2.5288,-2.55,-2.611,-2.6335,-2.606,-2.6144,-2.6282,-2.6419,-2.643,-2.6451,-2.6451,-2.6514,-2.662,-2.6363,-2.6789,-2.6778,-2.6884,-2.7042,-2.7127,-2.7138,-2.7127,-2.7127,-2.7148,-2.7201,-2.7359,-2.7465,-2.7507,-2.7592,-2.7729,-2.7793,-2.7782,-2.8699,-2.9982,-3.4704,-3.8061,0.6855,0.6853,0.684,0.6832,0.6829,0.6816,0.681,0.6805,0.6763,0.6744,0.6739,0.6699,0.6681,0.6675,0.6649,0.6606,0.6572,0.6567,0.6545,0.6511,0.6548,0.6567,0.6572,0.6609,0.663,0.663,0.6628,0.663,0.663,0.663,0.663,0.663,0.663,0.663,0.663,0.663,0.663,0.663,0.663,0.6662,0.6704,0.6662,0.6641,0.6651,0.6614,0.6585,0.6569,0.6567,0.6522,0.6424,0.6442,0.6384,0.623,0.6166,0.6108,0.6053,0.6045,0.6045,0.6045,0.614,0.6198,0.5813,0.273,-0.0783,-0.4701,-0.9003,-1.4883,-2.0389,-2.272,-2.3479,-2.5066,-2.4667,-2.4278,-2.5056,-2.5056,-2.5056,-2.5045,-2.5056,-2.5056,-2.5056,-2.5119,-2.5235,-2.5468,-2.5679,-2.588,-2.6028,-2.6134,-2.6229,-2.6398,-2.644,-2.6451,-2.6451,-2.6493,-2.6535,-2.6546,-2.6567,-2.6651,-2.6799,-2.6884,-2.6937,-2.7106,-2.7116,-2.7127,-2.7,-2.7138,-2.7233,-2.7254,-2.7412,-2.7571,-2.7603,-2.7708,-2.8256,-2.9982,-3.4704,-3.7605,0.681,0.681,0.681,0.6795,0.6771,0.6747,0.6736,0.6734,0.6699,0.6686,0.6675,0.6596,0.6559,0.6559,0.6561,0.654,0.6508,0.6508,0.6487,0.6463,0.649,0.6508,0.6508,0.6522,0.6524,0.6524,0.6524,0.6537,0.6561,0.6585,0.6609,0.6628,0.663,0.663,0.663,0.663,0.663,0.663,0.663,0.6649,0.6675,0.6649,0.663,0.6625,0.6575,0.6535,0.6511,0.6508,0.6442,0.6318,0.6376,0.6331,0.6137,0.6116,0.6071,0.5994,0.6007,0.6042,0.609,0.6156,0.6206,0.623,0.1562,-0.274,-0.5482,-1.1735,-1.7969,-2.34,-2.4929,-2.495,-2.5024,-2.4961,-2.4908,-2.4908,-2.4908,-2.4897,-2.4908,-2.4992,-2.5056,-2.5056,-2.5056,-2.5119,-2.5246,-2.5373,-2.5542,-2.5764,-2.5996,-2.6134,-2.6271,-2.6387,-2.643,-2.643,-2.6356,-2.6345,-2.644,-2.6451,-2.6504,-2.6609,-2.6662,-2.6673,-2.681,-2.6852,-2.6852,-2.6831,-2.6926,-2.699,-2.6979,-2.718,-2.7338,-2.7381,-2.7518,-2.816,-2.954,-3.4274,-3.6909,0.6792,0.6792,0.6787,0.676,0.6707,0.6649,0.6622,0.6617,0.6614,0.6614,0.659,0.6495,0.6447,0.6439,0.6439,0.6439,0.6437,0.6439,0.6437,0.6434,0.6445,0.6447,0.6442,0.6402,0.6376,0.6384,0.6389,0.6421,0.6466,0.6506,0.6556,0.6609,0.6614,0.6612,0.6614,0.662,0.6622,0.6622,0.662,0.662,0.6622,0.6622,0.6628,0.663,0.6569,0.6508,0.645,0.6447,0.6368,0.6217,0.6296,0.6257,0.606,0.6066,0.6045,0.5944,0.5976,0.6058,0.6164,0.6188,0.6206,0.5863,0.039,-0.3899,-0.5461,-1.3252,-1.9813,-2.3172,-2.4665,-2.4749,-2.494,-2.4792,-2.4675,-2.5058,-2.4665,-2.4665,-2.4686,-2.4866,-2.4992,-2.4992,-2.494,-2.4992,-2.5003,-2.5035,-2.513,-2.5383,-2.5711,-2.5975,-2.606,-2.6197,-2.6303,-2.6303,-2.6197,-2.6165,-2.6334,-2.6408,-2.6419,-2.6451,-2.6451,-2.6482,-2.6514,-2.6504,-2.644,-2.6525,-2.6588,-2.6662,-2.6715,-2.6873,-2.699,-2.6958,-2.7138,-2.8263,-3.1453,-3.5278,-3.7409,0.6673,0.6673,0.6673,0.6665,0.6646,0.6588,0.6537,0.6495,0.6495,0.6469,0.6429,0.64,0.636,0.632,0.6318,0.632,0.632,0.6318,0.6318,0.6323,0.6365,0.6386,0.6389,0.6424,0.6437,0.6437,0.6437,0.6442,0.645,0.6421,0.6437,0.649,0.6495,0.6495,0.6495,0.654,0.6564,0.6561,0.6519,0.6519,0.6561,0.6564,0.6585,0.662,0.653,0.6447,0.6392,0.6386,0.6307,0.6151,0.6238,0.6214,0.6037,0.5992,0.5962,0.5936,0.5904,0.5936,0.605,0.6103,0.6135,0.6145,-0.4599,-1.1492,-1.2262,-1.8382,-2.2954,-2.3684,-2.4063,-2.4844,-2.4908,-2.4475,-2.4443,-2.4443,-2.4443,-2.4443,-2.4443,-2.4485,-2.4527,-2.4517,-2.4517,-2.4601,-2.4728,-2.4781,-2.4876,-2.5098,-2.5373,-2.5626,-2.5774,-2.5848,-2.5891,-2.588,-2.5848,-2.5912,-2.6123,-2.6165,-2.6239,-2.643,-2.643,-2.6398,-2.6408,-2.643,-2.6387,-2.6208,-2.6229,-2.6208,-2.6049,-2.6186,-2.6324,-2.6387,-2.6577,-2.7129,-2.8462,-3.261,-3.6847,0.6551,0.6551,0.6551,0.6551,0.6548,0.6516,0.6484,0.6453,0.64,0.6357,0.6325,0.6302,0.6286,0.6278,0.6254,0.6254,0.6278,0.6278,0.6278,0.628,0.6286,0.6291,0.6291,0.6294,0.6296,0.6299,0.6323,0.6349,0.6373,0.6371,0.6397,0.6453,0.6455,0.6455,0.6458,0.6487,0.6503,0.6503,0.6498,0.6511,0.6543,0.6545,0.6559,0.6588,0.645,0.636,0.6328,0.6302,0.6235,0.6113,0.6193,0.6174,0.6029,0.5965,0.592,0.5894,0.6228,0.6239,0.6307,0.5245,0.4896,0.4522,-0.6791,-1.5458,-1.8334,-2.1656,-2.3595,-2.3793,-2.42,-2.4253,-2.4358,-2.4274,-2.421,-2.42,-2.421,-2.421,-2.421,-2.4295,-2.4369,-2.4369,-2.3991,-2.4032,-2.4527,-2.493,-2.4994,-2.4728,-2.4929,-2.5214,-2.5531,-2.5415,-2.532,-2.5531,-2.5584,-2.5679,-2.588,-2.5922,-2.5975,-2.6091,-2.6123,-2.6113,-2.6113,-2.6113,-2.606,-2.5954,-2.5922,-2.5869,-2.5785,-2.5848,-2.5901,-2.5943,-2.6113,-2.626,-2.67,-3.044,-3.4693,0.6455,0.6455,0.6455,0.6455,0.6455,0.6447,0.6442,0.6434,0.631,0.6251,0.6241,0.6193,0.6196,0.6227,0.618,0.619,0.6241,0.6243,0.6249,0.6254,0.6214,0.6198,0.6196,0.6153,0.6132,0.6137,0.6185,0.6233,0.6278,0.6323,0.6373,0.6421,0.6424,0.6421,0.6431,0.6439,0.6439,0.6431,0.6482,0.6511,0.6519,0.6519,0.6527,0.6535,0.6381,0.6291,0.6291,0.6241,0.6177,0.6113,0.6164,0.6143,0.6029,0.5957,0.5899,0.5848,0.6194,0.6186,0.5822,0.4405,0.332,0.2949,-0.7419,-1.6664,-2.294,-2.3259,-2.3054,-2.3439,-2.3883,-2.3999,-2.3793,-2.4052,-2.3967,-2.3957,-2.3967,-2.3967,-2.3967,-2.4126,-2.4231,-2.4231,-2.3886,-2.3876,-2.4305,-2.4704,-2.4726,-2.4401,-2.458,-2.4792,-2.5066,-2.4908,-2.4855,-2.5151,-2.5257,-2.5352,-2.5478,-2.5574,-2.5574,-2.5626,-2.5669,-2.5722,-2.5722,-2.5764,-2.5764,-2.57,-2.569,-2.5669,-2.5616,-2.5637,-2.5616,-2.5616,-2.5743,-2.5891,-2.5891,-2.9232,-3.2744,0.6455,0.6455,0.6455,0.6455,0.6453,0.6402,0.6384,0.6371,0.6212,0.0,0.0,0.6055,0.6031,0.5994,0.5984,0.601,0.6066,0.6066,0.6092,0.614,0.618,0.6198,0.6198,0.6233,0.6249,0.6249,0.6259,0.627,0.6278,0.6243,0.6254,0.6302,0.6265,0.6267,0.631,0.6357,0.636,0.6315,0.632,0.6349,0.6397,0.64,0.6445,0.654,0.6418,0.6352,0.6352,0.6296,0.6217,0.6116,0.6164,0.6143,0.6026,0.5917,0.5856,0.5841,0.5753,0.57,0.5705,0.5396,0.5046,0.5366,-0.5758,-1.5442,-2.2594,-2.2847,-2.3069,-2.3143,-2.3323,-2.3813,-2.3856,-2.3619,-2.3724,-2.3724,-2.3724,-2.3724,-2.3724,-2.3767,-2.3798,-2.3788,-2.3798,-2.3851,-2.4052,-2.4457,-2.4522,-2.4316,-2.439,-2.4475,-2.4517,-2.4485,-2.4464,-2.457,-2.4644,-2.4665,-2.4823,-2.4908,-2.4961,-2.5151,-2.5331,-2.5457,-2.5489,-2.5616,-2.5648,-2.5457,-2.5457,-2.5373,-2.5225,-2.5183,-2.5172,-2.5172,-2.5204,-2.5235,-2.5627,-2.9549,-3.4195,0.6349,0.6325,0.6325,0.6307,0.0,0.6249,0.6235,0.623,0.6145,0.6092,0.6063,0.6034,0.6021,0.6021,0.5992,0.601,0.6066,0.6066,0.6082,0.6108,0.6108,0.6108,0.6108,0.6137,0.6148,0.6151,0.618,0.6209,0.6235,0.6209,0.6225,0.6278,0.6251,0.6251,0.6278,0.6307,0.6307,0.6278,0.631,0.6336,0.6365,0.6368,0.6394,0.6447,0.6341,0.0,0.0,0.0,0.0,0.0,0.0,0.0,0.0,0.5838,0.5769,0.5795,0.5663,0.5583,0.5583,0.5557,0.5541,0.5541,-0.8651,-1.8688,-2.2408,-2.252,-2.2451,-2.244,-2.3006,-2.3861,-2.3872,-2.361,-2.3312,-2.3312,-2.3312,-2.3312,-2.3323,-2.3407,-2.3481,-2.3481,-2.3576,-2.3693,-2.3819,-2.383,-2.3883,-2.3988,-2.4105,-2.4189,-2.4189,-2.4189,-2.4189,-2.4189,-2.4274,-2.4401,-2.4506,-2.4527,-2.4591,-2.4675,-2.4802,-2.4876,-2.4876,-2.4971,-2.5013,-2.4908,-2.4876,-2.4897,-2.4855,-2.4876,-2.5284,-2.6942,-2.7364,-2.726,-2.7236,-3.0303,-3.4575,0.6222,0.6182,0.618,0.6153,0.6106,0.606,0.6042,0.6042,0.6042,0.6042,0.6039,0.5992,0.5997,0.6037,0.5992,0.5997,0.6042,0.6042,0.605,0.6058,0.6021,0.6005,0.6005,0.6015,0.6015,0.6007,0.6053,0.6106,0.6164,0.6164,0.6193,0.6246,0.6246,0.6251,0.6262,0.0,0.0,0.0,0.6323,0.6349,0.6349,0.6349,0.6355,0.6365,0.6278,0.0,0.6288,0.6196,0.6159,0.619,0.605,0.0,0.0,0.0,0.0,0.0,0.0,0.0,0.0,0.0,0.0,0.0,-1.1538,-2.1603,-2.185,-2.1017,-2.0634,-2.1656,-2.2615,-2.348,-2.3436,-2.3148,-2.3202,-2.2847,-2.2847,-2.2858,-2.2911,-2.3058,-2.3196,-2.3238,-2.3439,-2.3587,-2.3597,-2.364,-2.3661,-2.3693,-2.383,-2.3936,-2.3946,-2.3946,-2.3946,-2.3957,-2.4084,-2.421,-2.4231,-2.4221,-2.421,-2.4242,-2.4263,-2.4316,-2.4327,-2.4358,-2.439,-2.4327,-2.4305,-2.4358,-2.4453,-2.4496,-2.5278,-2.8166,-2.8993,-2.9594,-3.0739,-3.3033,-3.5503,0.6127,0.6121,0.6119,0.6116,0.6092,0.5888,0.5801,0.5801,0.5801,0.5801,0.5801,0.5795,0.5793,0.5801,0.5793,0.5795,0.5801,0.5801,0.583,0.588,0.5923,0.5944,0.5947,0.5997,0.5994,0.5947,0.5952,0.5986,0.6042,0.6045,0.6074,0.6129,0.6132,0.6156,0.6204,0.6156,0.6156,0.6209,0.6262,0.6291,0.6291,0.6291,0.6315,0.6365,0.6352,0.6349,0.6352,0.6294,0.6238,0.6198,0.6127,0.6039,0.5939,0.5862,0.5758,0.0,0.5491,0.0,0.0,0.0,0.0,0.0,0.0,0.0,0.0,-1.5537,-1.5049,-2.1067,-2.2139,-2.2663,-2.2467,-2.2826,-2.2719,-2.2361,-2.2361,-2.2446,-2.2636,-2.2689,-2.2784,-2.2995,-2.2846,-2.2981,-2.3354,-2.3534,-2.3661,-2.365,-2.3682,-2.3703,-2.3693,-2.3703,-2.3724,-2.3703,-2.3735,-2.3809,-2.3798,-2.3777,-2.3777,-2.3788,-2.3925,-2.4062,-2.4062,-2.421,-2.4284,-2.4105,-2.4041,-2.3988,-2.3819,-2.3809,-2.4189,-2.4994,-2.7347,-3.1027,-3.6928,-3.9262,-4.0675,0.5992,0.5962,0.5962,0.5944,0.5907,0.5801,0.5758,0.5758,0.5758,0.5737,0.5711,0.5742,0.5737,0.5711,0.5742,0.574,0.5711,0.5742,0.5772,0.5795,0.5788,0.5803,0.5835,0.5827,0.583,0.5835,0.5835,0.5867,0.5923,0.5954,0.6002,0.606,0.6092,0.609,0.6053,0.6026,0.6039,0.61,0.6188,0.6249,0.6278,0.6278,0.6291,0.6318,0.6318,0.6304,0.6275,0.6185,0.6124,0.6098,0.5949,0.5854,0.5833,0.5658,0.5576,0.0,0.0,0.0,0.0,0.0,0.0,0.0,0.0,0.0,0.0,0.0,-1.3084,-1.9191,-2.0261,-2.0663,-2.1184,-2.1678,-2.1978,-2.1505,-2.1494,-2.1579,-2.1822,-2.1959,-2.2181,-2.2541,-2.242,-2.225,-2.3101,-2.3323,-2.3824,-2.346,-2.346,-2.3418,-2.3323,-2.3513,-2.3661,-2.3661,-2.3661,-2.3661,-2.3661,-2.3661,-2.3661,-2.3671,-2.3745,-2.3819,-2.3819,-2.3798,-2.3745,-2.364,-2.3513,-2.3439,-2.346,-2.346,-2.4961,-2.7558,-2.9205,-3.1787,-3.6599,-3.9369,-4.0725,0.5864,0.5817,0.5719,0.5652,0.561,0.561,0.5629,0.5652,0.5655,0.5636,0.561,0.5655,0.5642,0.5586,0.5602,0.5602,0.5586,0.5618,0.5663,0.5711,0.5655,0.566,0.5713,0.5668,0.5666,0.5692,0.5695,0.5732,0.5801,0.5835,0.5894,0.5978,0.6023,0.5986,0.5875,0.5899,0.5941,0.6,0.609,0.6174,0.6257,0.6272,0.6272,0.6262,0.6272,0.6241,0.6159,0.6068,0.6002,0.5957,0.5761,0.565,0.5652,0.5769,0.0,0.0,0.0,0.0,0.0,0.0,0.0,0.0,0.0,-1.526,-1.0061,0.0,-1.3709,0.0,-1.8328,-1.9045,-2.0152,-2.0905,0.0,0.0,-2.0607,-2.067,-2.1019,-2.1167,-2.1452,-2.1959,-2.1523,-2.1769,-2.2763,-2.3363,-2.3481,-2.3069,-2.3154,-2.3185,-2.309,-2.3365,-2.3587,-2.364,-2.3608,-2.3576,-2.3566,-2.3534,-2.3481,-2.3492,-2.3492,-2.3492,-2.3492,-2.3344,-2.3206,-2.3132,-2.2995,-2.2942,-2.3027,-2.3058,-2.5216,-3.0904,-3.2183,-3.233,-3.5101,-3.7898,-3.9641,0.5769,0.5732,0.5358,0.5199,0.5194,0.5194,0.5258,0.5356,0.5356,0.5385,0.543,0.5435,0.5403,0.5342,0.5242,0.0,0.5348,0.5297,0.5393,0.5597,0.5538,0.5544,0.5599,0.5594,0.5568,0.552,0.552,0.5576,0.5676,0.5636,0.5697,0.5856,0.5864,0.5806,0.57,0.5798,0.588,0.5939,0.5949,0.6034,0.6198,0.6254,0.6257,0.6206,0.6254,0.6201,0.6045,0.6023,0.5947,0.5785,0.566,0.552,0.5366,0.0,0.0,0.0,0.0,0.0,0.0,0.0,0.0,0.0,0.0,0.0,0.0,0.0,0.0,-1.6849,-1.6779,0.0,-2.0175,-2.0229,0.0,0.0,0.0,-1.9846,-2.0501,-2.0406,-2.0565,-2.123,0.0,0.0,-2.2266,-2.288,-2.2944,-2.2382,-2.272,-2.3069,-2.3249,-2.3291,-2.3407,-2.3597,-2.3471,-2.3333,-2.3323,-2.3185,-2.3069,-2.3069,-2.3027,-2.3037,-2.3027,-2.2985,-2.29,-2.271,-2.2657,-2.2594,-2.2382,-2.2697,-2.4624,-3.126,-3.2743,-3.4022,-3.674,-3.7965,-3.8796,0.543,0.5318,0.5122,0.5043,0.504,0.5006,0.5056,0.5162,0.5162,0.5175,0.5199,0.5234,0.5199,0.5109,0.5064,0.0,0.0,0.0,0.5231,0.5321,0.5332,0.5371,0.5424,0.5427,0.5432,0.5446,0.5446,0.5467,0.5512,0.5562,0.557,0.553,0.0,0.5576,0.5568,0.5682,0.5732,0.5729,0.5862,0.5984,0.609,0.6148,0.6166,0.6145,0.6129,0.6074,0.597,0.5864,0.5758,0.5658,0.5475,0.5342,0.0,0.0,0.0,0.0,0.0,0.0,0.0,0.0,0.0,0.0,0.0,-1.4916,-1.5574,0.0,0.0,0.0,-1.6267,-1.7057,-1.8335,-1.9295,0.0,0.0,0.0,0.0,0.0,0.0,0.0,-1.992,-1.9885,-2.0397,-2.1721,-2.2183,-2.1925,-2.1632,-2.216,-2.2583,-2.2667,0.0,-2.3143,-2.3228,-2.3164,-2.3101,-2.3101,-2.3027,-2.2974,-2.2974,-2.2858,-2.272,-2.2572,-2.2424,-2.2308,-2.2547,-2.3446,-2.398,-2.2161,-2.3042,-2.5924,-3.1859,-3.318,-3.4102,-3.6529,-3.7584,-3.7915,0.5064,0.0,0.0,0.0,0.0,0.4804,0.4841,0.4934,0.495,0.4958,0.4963,0.5022,0.0,0.0,0.0,0.0,0.0,0.0,0.5072,0.5122,0.5165,0.5215,0.5271,0.5271,0.5292,0.5334,0.5334,0.5334,0.5337,0.5387,0.5348,0.5228,0.0,0.0,0.0,0.0,0.565,0.5623,0.5806,0.5944,0.6018,0.6063,0.6092,0.6108,0.6053,0.597,0.5859,0.5721,0.5589,0.5464,0.5268,0.0,0.0,0.0,0.0,0.0,0.0,0.0,0.0,0.0,0.0,0.0,0.0,0.0,0.0,0.0,0.0,0.0,0.0,0.0,-1.6791,-1.8179,-1.9056,0.0,0.0,0.0,0.0,0.0,0.0,0.0,0.0,0.0,-2.1234,-2.1411,-2.1366,0.0,0.0,-2.2118,-2.2245,-2.2551,-2.2794,-2.2868,-2.2763,0.0,-2.2667,-2.2615,-2.2572,-2.2572,-2.2435,-2.2579,-2.3026,-2.2445,-2.1946,-2.2617,-2.3471,-2.3935,-2.3079,-2.5461,-2.9227,-3.2993,-3.372,-3.426,-3.5962,-3.6629,-3.6904,0.0,0.0,0.0,0.0,0.455,0.0,0.0,0.0,0.4693,0.4714,0.0,0.4775,0.0,0.0,0.0,0.0,0.472,0.4778,0.0,0.0,0.5056,0.5093,0.5144,0.5149,0.5152,0.5152,0.5152,0.5149,0.5138,0.5046,0.4993,0.0,0.0,0.0,0.0,0.0,0.5668,0.5663,0.5782,0.5904,0.6015,0.6023,0.605,0.6103,0.6053,0.5915,0.5689,0.5618,0.5456,0.5175,0.5048,0.0,0.0,0.0,0.0,0.0,0.0,0.0,0.0,0.0,0.0,0.0,0.0,0.0,0.0,0.0,0.0,0.0,0.0,0.0,0.0,-1.715,0.0,0.0,0.0,0.0,0.0,0.0,0.0,0.0,0.0,-1.8728,-2.0112,-2.0685,-2.0756,-2.0786,0.0,0.0,0.0,0.0,-2.2361,-2.2583,-2.2234,-2.1949,-2.1949,-2.1769,-2.1632,-2.1632,0.0,0.0,-2.424,-2.2683,-2.1551,-2.3819,-2.2512,-2.1688,-2.4287,-2.9547,-3.3984,-3.5269,-3.4645,-3.425,-3.459,-3.5196,-3.5692,0.0,0.0,0.0,0.0,0.0,0.0,0.0,0.0,0.0,0.4277,0.4314,0.4335,0.0,0.0,0.0,0.0,0.0,0.0,0.0,0.0,0.4818,0.486,0.481,0.4924,0.4958,0.4921,0.4921,0.4802,0.0,0.0,0.0,0.0,0.0,0.0,0.0,0.0,0.548,0.5454,0.5631,0.5806,0.5954,0.5965,0.5992,0.605,0.6031,0.5909,0.5676,0.5467,0.5311,0.0,0.0,0.0,0.0,0.0,0.0,0.0,0.0,0.0,0.0,0.0,0.0,0.0,0.0,0.0,0.0,0.0,0.0,0.0,0.0,0.0,0.0,0.0,-1.6816,0.0,0.0,0.0,0.0,0.0,0.0,0.0,0.0,0.0,-1.7782,-1.9432,-2.0146,-1.9909,-2.0628,-2.123,-2.1547,0.0,0.0,0.0,0.0,0.0,0.0,0.0,-2.1294,-2.1146,-2.0987,-2.1131,-2.1852,-2.0974,-2.0508,-2.1135,0.0,0.0,-2.772,-2.9682,-3.1657,-3.3983,-3.3653,-3.3359,-3.3616,-3.3892,-3.4167,0.0,0.0,0.0,0.0,0.0,0.0,0.0,0.0,0.0,0.3938,0.3956,0.0,0.0,0.0,0.0,0.0,0.0,0.0,0.0,0.0,0.0,0.0,0.4542,0.4659,0.0,0.0,0.0,0.0,0.0,0.0,0.0,0.0,0.0,0.0,0.0,0.0,0.5371,0.5364,0.5581,0.5774,0.5925,0.5915,0.5923,0.596,0.5962,0.5862,0.5647,0.0,0.0,0.0,0.0,0.0,0.0,0.0,0.0,0.0,0.0,0.0,0.0,0.0,0.0,0.0,0.0,0.0,0.0,0.0,0.0,0.0,0.0,0.0,0.0,0.0,-1.57,0.0,0.0,0.0,0.0,0.0,0.0,0.0,0.0,0.0,0.0,-1.8315,-1.9542,-1.9275,-1.9962,-2.0575,-2.104,-2.1177,-2.1251,0.0,0.0,0.0,0.0,0.0,0.0,0.0,0.0,0.0,0.0,0.0,0.0,0.0,-2.5226,-2.751,-2.8803,-2.9075,-2.9726,-3.2211,0.0,0.0,0.0,0.0,0.0,0.0,0.0,0.0,0.0,0.0,0.0,0.0,0.0,0.0,0.0,0.366,0.0,0.0,0.3577,0.0,0.0,0.0,0.0,0.0,0.0,0.0,0.0,0.0,0.0,0.0,0.0,0.0,0.0,0.0,0.0,0.0,0.0,0.0,0.0,0.0,0.0,0.5342,0.5409,0.5629,0.5806,0.5923,0.5875,0.5846,0.5846,0.5846,0.5764,0.5589,0.0,0.0,0.0,0.0,0.0,0.0,0.0,0.0,0.0,0.0,0.0,0.0,0.0,0.0,0.0,0.0,0.0,0.0,0.0,0.0,0.0,0.0,0.0,0.0,0.0,0.0,-1.5727,-1.5802,-1.5841,0.0,0.0,0.0,0.0,0.0,0.0,0.0,0.0,0.0,-1.8895,-1.9307,-1.9804,-2.0681,-2.0649,-2.0596,-2.0808,-2.0469,-2.01,-1.9867,-1.9835,-1.974,0.0,0.0,0.0,0.0,0.0,0.0,0.0,0.0,0.0,0.0,0.0,0.0,0.0,0.0,0.0,0.0,0.0,0.0,0.0,0.0,0.0,0.0,0.0,0.0,0.0,0.0,0.0,0.0,0.0,0.0,0.0,0.0,0.0,0.0,0.0,0.0,0.0,0.0,0.0,0.0,0.0,0.0,0.0,0.0,0.0,0.0,0.0,0.0,0.0,0.0,0.0,0.0,0.0,0.0,0.5186,0.5287,0.5517,0.5713,0.5867,0.5854,0.5825,0.5785,0.5822,0.5745,0.0,0.0,0.0,0.0,0.0,0.0,0.0,0.0,0.0,0.0,0.0,0.0,0.0,0.0,0.0,0.0,0.0,0.0,0.0,0.0,0.0,0.0,0.0,0.0,0.0,0.0,0.0,0.0,-1.54,-1.546,-1.5598,0.0,0.0,0.0,0.0,0.0,0.0,0.0,0.0,0.0,0.0,-1.9159,-1.9582,-1.9878,-2.0057,-2.0131,-1.9888,-1.955,-1.917,-1.9233,-1.9201,-1.881,0.0,0.0,0.0,0.0,0.0,0.0,0.0,0.0,0.0,0.0,0.0,0.0,0.0,0.0,0.0,0.0,0.0,0.0,0.0,0.0,0.0,0.0,0.0,0.0,0.0,0.0,0.0,0.0,0.0,0.0,0.0,0.0,0.0,0.0,0.0,0.0,0.0,0.0,0.0,0.0,0.0,0.0,0.0,0.0,0.0,0.0,0.0,0.0,0.0,0.0,0.0,0.0,0.0,0.5072,0.5167,0.5422,0.5636,0.5801,0.5788,0.5748,0.5692,0.5727,0.5605,0.0,0.0,0.0,0.0,0.0,0.0,0.0,0.0,0.0,0.0,0.0,0.0,0.0,0.0,0.0,0.0,0.0,0.0,0.0,0.0,0.0,0.0,0.0,0.0,0.0,0.0,0.0,0.0,-1.434,-1.4541,-1.4626,0.0,0.0,0.0,0.0,0.0,0.0,0.0,0.0,0.0,0.0,-1.8567,-1.9053,-1.9307,0.0,0.0,-1.9339,-1.8979,-1.8705,-1.8705,-1.8599,-1.824,-1.8219,0.0,0.0,0.0,0.0,0.0,0.0,0.0,0.0,0.0,0.0,0.0,0.0,0.0,0.0,0.0,0.0,0.0,0.0,0.0,0.0,0.0,0.0,0.0,0.0,0.0,0.0,0.0,0.0,0.0,0.0,0.0,0.0,0.0,0.0,0.0,0.0,0.0,0.0,0.0,0.0,0.0,0.0,0.0,0.0,0.0,0.0,0.0,0.0,0.0,0.0,0.0,0.0,0.5,0.5064,0.5348,0.5581,0.5742,0.5697,0.5642,0.5583,0.5581,0.5393,0.0,0.0,0.0,0.0,0.0,0.0,0.0,0.0,0.0,0.0,0.0,0.0,0.0,0.0,0.0,0.0,0.0,0.0,0.0,0.0,0.0,0.0,0.0,0.0,0.0,0.0,0.0,0.0,0.0,0.0,0.0,0.0,0.0,0.0,0.0,0.0,0.0,0.0,0.0,0.0,0.0,-1.8018,-1.8927,-1.8895,-1.8927,0.0,-1.8831,-1.8388,-1.8324,-1.8458,-1.8254,-1.7701,0.0,0.0,0.0,0.0,0.0,0.0,0.0,0.0,0.0,0.0,0.0,0.0,0.0,0.0,0.0,0.0,0.0,0.0,0.0,0.0,0.0,0.0,0.0,0.0,0.0,0.0,0.0,0.0,0.0,0.0,0.0,0.0,0.0,0.0,0.0,0.0,0.0,0.0,0.0,0.0,0.0,0.0,0.0,0.0,0.0,0.0,0.0,0.0,0.0,0.0,0.0,0.0,0.0,0.0,0.5061,0.5348,0.5562,0.5689,0.5682,0.5623,0.5525,0.552,0.0,0.0,0.0,0.0,0.0,0.0,0.0,0.0,0.0,0.0,0.0,0.0,0.0,0.0,0.0,0.0,0.0,0.0,0.0,0.0,0.0,0.0,0.0,0.0,0.0,0.0,0.0,-1.1985,0.0,0.0,0.0,0.0,0.0,0.0,0.0,0.0,0.0,0.0,0.0,0.0,0.0,0.0,-1.7289,-1.8219,-1.8451,-1.8504,0.0,0.0,-1.7933,-1.7246,-1.7521,-1.7584,0.0,0.0,0.0,0.0,0.0,0.0,0.0,0.0,0.0,0.0,0.0,0.0,0.0,0.0,0.0,0.0,0.0,0.0,0.0,0.0,0.0,0.0,0.0,0.0,0.0,0.0,0.0,0.0,0.0,0.0,0.0,0.0,0.0,0.0,0.0,0.0,0.0,0.0,0.0,0.0,0.0,0.0,0.0,0.0,0.0,0.0,0.0,0.0,0.0,0.0,0.0,0.0,0.0,0.0,0.4564,0.4364,0.5273,0.5491,0.4573,0.4226,0.4184,0.4438,0.3412,0.2965,0.0,0.0,0.0,0.0,0.0,0.0,0.0,0.0,0.0,0.0,0.0,0.0,0.0,0.0,0.0,0.0,0.0,0.0,0.0,0.0,0.0,0.0,0.0,0.0,0.0,0.0,0.0,0.0,0.0,0.0,0.0,0.0,0.0,0.0,0.0,0.0,0.0,0.0,0.0,0.0,0.0,0.0,-1.7574,-1.8007,0.0,0.0,0.0,-1.7447,-1.7088,0.0,0.0,0.0,0.0,0.0,0.0,0.0,0.0,0.0,0.0,0.0,0.0,0.0,0.0,0.0,0.0,0.0,0.0,0.0,0.0,0.0,0.0,0.0,0.0,0.0,0.0,0.0,0.0,0.0,0.0,0.0,0.0,0.0,0.0,0.0,0.0,0.0,0.0,0.0,0.0,0.0,0.0,0.0,0.0,0.0,0.0,0.0,0.0,0.0,0.0,0.0,0.0,0.0,0.0,0.0,0.0,0.0,0.3356,0.4517,0.4045,0.243,0.2437,0.2415,0.2368,0.0675,0.0648,0.0,0.0,0.0,0.0,0.0,0.0,0.0,0.0,0.0,0.0,0.0,0.0,0.0,0.0,0.0,0.0,0.0,0.0,0.0,0.0,0.0,0.0,0.0,0.0,0.0,0.0,0.0,0.0,0.0,0.0,0.0,0.0,0.0,0.0,0.0,0.0,0.0,0.0,0.0,0.0,0.0,-1.7204,-1.7098,-1.7616,-1.7859,0.0,0.0,-1.728,-1.7352,-1.6812,0.0,0.0,0.0,0.0,0.0,0.0,0.0,0.0,0.0,0.0,0.0,0.0,0.0,0.0,0.0,0.0,0.0,0.0,0.0,0.0,0.0,0.0,0.0,0.0,0.0,0.0,0.0,0.0,0.0,0.0,0.0,0.0,0.0,0.0,0.0,0.0,0.0,0.0,0.0,0.0,0.0,0.0,0.0,0.0,0.0,0.0,0.0,0.0,0.0,0.0,0.0,0.0,0.0,0.0,0.0,0.0,0.3013,0.1595,0.0997,0.068,0.0686,0.0685,0.0338,0.0335,0.0,0.0,0.0,0.0,0.0,0.0,0.0,0.0,0.0,0.0,0.0,0.0,0.0,0.0,0.0,0.0,0.0,0.0,0.0,0.0,0.0,0.0,0.0,0.0,0.0,0.0,0.0,0.0,0.0,0.0,0.0,0.0,0.0,0.0,0.0,0.0,0.0,0.0,0.0,0.0,0.0,0.0,-1.6549,-1.7225,-1.7447,0.0,0.0,0.0,0.0,-1.6845,-1.6327,0.0,0.0,0.0,0.0,0.0,0.0,0.0,0.0,0.0,0.0,0.0,0.0,0.0,0.0,0.0,0.0,0.0,0.0,0.0,0.0,0.0,0.0,0.0,0.0,0.0,0.0,0.0,0.0,0.0,0.0,0.0,0.0,0.0,0.0,0.0,0.0,0.0,0.0,0.0,0.0,0.0,0.0,0.0,0.0,0.0,0.0,0.0,0.0,0.0,0.0,0.0,0.0,0.0,0.0,0.0,0.0,0.1513,0.0317,0.0,0.0,0.0,0.0,0.0,0.0,0.0,0.0,0.0,0.0,0.0,0.0,0.0,0.0,0.0,0.0,0.0,0.0,0.0,0.0,0.0,0.0,0.0,0.0,0.0,0.0,0.0,0.0,0.0,0.0,0.0,0.0,0.0,0.0,0.0,0.0,0.0,0.0,0.0,0.0,0.0,0.0,0.0,0.0,0.0,0.0,0.0,-1.5841,-1.601,-1.6496,0.0,0.0,0.0,0.0,0.0,0.0,-1.6291,-1.5904,0.0,0.0,0.0,0.0,0.0,0.0,0.0,0.0,0.0,0.0,0.0,0.0,0.0,0.0,0.0,0.0,0.0,0.0,0.0,0.0,0.0,0.0,0.0,0.0,0.0,0.0,0.0,0.0,0.0,0.0,0.0,0.0,0.0,0.0,0.0,0.0,0.0,0.0,0.0,0.0,0.0,0.0,0.0,0.0,0.0,0.0,0.0,0.0,0.0,0.0,0.0,0.0,0.0,0.0,0.0,0.0,0.0,0.0,0.0,0.0,0.0,0.0,0.0,0.0,0.0,0.0,0.0,0.0,0.0,0.0,0.0,0.0,0.0,0.0,0.0,0.0,0.0,0.0,0.0,0.0,0.0,0.0,0.0,0.0,0.0,0.0,0.0,0.0,0.0,0.0,0.0,0.0,0.0,0.0,0.0,0.0,0.0,0.0,0.0,0.0,0.0,0.0,0.0,0.0,-1.5376,-1.545,0.0,0.0,0.0,0.0,0.0,0.0,0.0,0.0,-1.5853,0.0,0.0,0.0,0.0,0.0,0.0,0.0,0.0,0.0,0.0,0.0,0.0,0.0,0.0,0.0,0.0,0.0,0.0,0.0,0.0,0.0,0.0,0.0,0.0,0.0,0.0,0.0,0.0,0.0,0.0,0.0,0.0,0.0,0.0,0.0,0.0,0.0,0.0,0.0,0.0,0.0,0.0,0.0,0.0,0.0,0.0,0.0,0.0,0.0,0.0,0.0,0.0,0.0,0.0,0.0,0.0,0.0,0.0,0.0,0.0,0.0,0.0,0.0,0.0,0.0,0.0,0.0,0.0,0.0,0.0,0.0,0.0,0.0,0.0,0.0,0.0,0.0,0.0,0.0,0.0,0.0,0.0,0.0,0.0,0.0,0.0,0.0,0.0,0.0,0.0,0.0,0.0,0.0,0.0,0.0,0.0,0.0,0.0,0.0,0.0,0.0,0.0,0.0,-1.3983,-1.4235,0.0,0.0,0.0,0.0,0.0,0.0,0.0,0.0,-1.4615,0.0,0.0,0.0,0.0,0.0,0.0,0.0,0.0,0.0,0.0,0.0,0.0,0.0,0.0,0.0,0.0,0.0,0.0,0.0,0.0,0.0,0.0,0.0,0.0,0.0,0.0,0.0,0.0,0.0,0.0,0.0,0.0,0.0,0.0,0.0,0.0,0.0,0.0,0.0,0.0,0.0,0.0,0.0,0.0,0.0,0.0,0.0,0.0,0.0,0.0,0.0,0.0,0.0,0.0,0.0,0.0,0.0,0.0,0.0,0.0,0.0,0.0,0.0,0.0,0.0,0.0,0.0,0.0,0.0,0.0,0.0,0.0,0.0,0.0,0.0,0.0,0.0,0.0,0.0,0.0,0.0,0.0,0.0,0.0,0.0,0.0,0.0,0.0,0.0,0.0,0.0,0.0,0.0,0.0,0.0,0.0,0.0,0.0,0.0,0.0,0.0,0.0,0.0,0.0,0.0,0.0,0.0,0.0,0.0,0.0,0.0,0.0,0.0,0.0,0.0,0.0,0.0,0.0,0.0,0.0,0.0,0.0,0.0,0.0,0.0,0.0,0.0,0.0,0.0,0.0,0.0,0.0,0.0,0.0,0.0,0.0,0.0,0.0,0.0,0.0,0.0,0.0,0.0,0.0,0.0,0.0,0.0,0.0,0.0,0.0,0.0,0.0,0.0,0.0,0.0,0.0,0.0,0.0,0.0,0.0,0.0,0.0,0.0,0.0,0.0,0.0,0.0,0.0,0.0,0.0,0.0,0.0,0.0,0.0,0.0,0.0,0.0,0.0,0.0,0.0,0.0,0.0,0.0,0.0,0.0,0.0,0.0,0.0,0.0,0.0,0.0,0.0,0.0,0.0,0.0,0.0,0.0,0.0,0.0,0.0,0.0,0.0,0.0,0.0,0.0,0.0,0.0,0.0,0.0,0.0,0.0,0.0,0.0,0.0,0.0,0.0,0.0,0.0,0.0,0.0,0.0,0.0,0.0,0.0,0.0,0.0,0.0,0.0,-1.3949,0.0,0.0,0.0,0.0,0.0,0.0,0.0,0.0,0.0,0.0,0.0,0.0,0.0,0.0,0.0,0.0,0.0,0.0,0.0,0.0,0.0,0.0,0.0,0.0,0.0,0.0,0.0,0.0,0.0,0.0,0.0,0.0,0.0,0.0,0.0,0.0,0.0,0.0,0.0,0.0,0.0,0.0,0.0,0.0,0.0,0.0,0.0,0.0,0.0,0.0,0.0,0.0,0.0,0.0,0.0,0.0,0.0,0.0,0.0,0.0,0.0,0.0,0.0,0.0,0.0,0.0,0.0,0.0,0.0,0.0,0.0,0.0,0.0,0.0,0.0,0.0,0.0,0.0,0.0,0.0,0.0,0.0,0.0,0.0,0.0,0.0,0.0,0.0,0.0,0.0,0.0,0.0,0.0,0.0,0.0,0.0,0.0,0.0,0.0,0.0,0.0,0.0,0.0,0.0,0.0,0.0,0.0,0.0,0.0,0.0,0.0,0.0,0.0,0.0,0.0,0.0,0.0,0.0,0.0,0.0,0.0,0.0,0.0,0.0,0.0,0.0,0.0,0.0,0.0,0.0,0.0,0.0,0.0,0.0,0.0,0.0,0.0,0.0,0.0,0.0,0.0,0.0,0.0,0.0,0.0,0.0,0.0,0.0,0.0,0.0,0.0,0.0,0.0,0.0,0.0,0.0,0.0,0.0,0.0,0.0,0.0,0.0,0.0,0.0,0.0,0.0,0.0,0.0,0.0,0.0,0.0,0.0,0.0,0.0,0.0,0.0,0.0,0.0,0.0,0.0,0.0,0.0,0.0,0.0,0.0,0.0,0.0,0.0,0.0,0.0,0.0,0.0,0.0,0.0,0.0,0.0,0.0,0.0,0.0,0.0,0.0,0.0,0.0,0.0,0.0,0.0,0.0,0.0,0.0,0.0,0.0,0.0,0.0,0.0,0.0,0.0,0.0,0.0,0.0,0.0,0.0,0.0,0.0,0.0,0.0,0.0,0.0,0.0,0.0,0.0,0.0,0.0,0.0,0.0,0.0,0.0,0.0,0.0,0.0,0.0,0.0,0.0,0.0,0.0,0.0,0.0,0.0,0.0,0.0,0.0,0.0,0.0,0.0,0.0,0.0,0.0,0.0,0.0,0.0,0.0,0.0,0.0,0.0,0.0,0.0,0.0,0.0,0.0,0.0,0.0,0.0,0.0,0.0,0.0,0.0,0.0,0.0,0.0,0.0,0.0,0.0,0.0,0.0,0.0,0.0,0.0,0.0,0.0,0.0,0.0,0.0,0.0,0.0,0.0,0.0,0.0,0.0,0.0,0.0,0.0,0.0,0.0,0.0,0.0,0.0,0.0,0.0,0.0,0.0,0.0,0.0,0.0,0.0,0.0,0.0,0.0,0.0,0.0,0.0,0.0,0.0,0.0,0.0,0.0,0.0,0.0,0.0,0.0,0.0,0.0,0.0,0.0,0.0,0.0,0.0,0.0,0.0,0.0,0.0,0.0,0.0,0.0,0.0,0.0,0.0,0.0,0.0,0.0,0.0,0.0,0.0,0.0,0.0,0.0,0.0,0.0,0.0,0.0,0.0,0.0,0.0,0.0,0.0,0.0,0.0,0.0,0.0,0.0,0.0,0.0,0.0,0.0,0.0,0.0,0.0,0.0,0.0,0.0,0.0,0.0,0.0,0.0,0.0,0.0,0.0,0.0,0.0,0.0,0.0,0.0,0.0,0.0,0.0,0.0,0.0,0.0,0.0,0.0,0.0,0.0,0.0,0.0,0.0,0.0,0.0,0.0,0.0,0.0,0.0,0.0,0.0,0.0,0.0,0.0,0.0,0.0,0.0,0.0,0.0,0.0,0.0,0.0,0.0,0.0,0.0,0.0,0.0,0.0,0.0,0.0,0.0,0.0,0.0,0.0,0.0,0.0,0.0,0.0,0.0,0.0,0.0,0.0,0.0,0.0,0.0,0.0,0.0,0.0,0.0,0.0,0.0,0.0,0.0,0.0,0.0,0.0,0.0,0.0,0.0,0.0,0.0,0.0,0.0,0.0,0.0,0.0,0.0,0.0,0.0,0.0,0.0,0.0,0.0,0.0,0.0,0.0,0.0,0.0,0.0,0.0,0.0,0.0,0.0,0.0,0.0,0.0,0.0,0.0,0.0,0.0,0.0,0.0,0.0,0.0,0.0,0.0,0.0,0.0,0.0,0.0,0.0,0.0,0.0,0.0,0.0,0.0,0.0,0.0,0.0,0.0,0.0,0.0,0.0,0.0,0.0,0.0,0.0,0.0,0.0,0.0,0.0,0.0,0.0,0.0,0.0,0.0,0.0,0.0,0.0,0.0,0.0,0.0,0.0,0.0,0.0,0.0,0.0,0.0,0.0,0.0,0.0,0.0,0.0,0.0,0.0,0.0,0.0,0.0,0.0,0.0,0.0,0.0,0.0,0.0,0.0,0.0,0.0,0.0,0.0,0.0,0.0,0.0,0.0,0.0,0.0,0.0,0.0,0.0,0.0,0.0,0.0,0.0,0.0,0.0,0.0,0.0,0.0,0.0,0.0,0.0,0.0,0.0,0.0,0.0,0.0,0.0,0.0,0.0,0.0,0.0,0.0,0.0,0.0,0.0,0.0,0.0,0.0,0.0,0.0,0.0,0.0,0.0,0.0,0.0,0.0,0.0,0.0,0.0,0.0,0.0,0.0,0.0,0.0,0.0,0.0,0.0,0.0,0.0,0.0,0.0,0.0,0.0,0.0,0.0,0.0,0.0,0.0,0.0,0.0,0.0,0.0,0.0,0.0,0.0,0.0,-0.1919,-0.2278,-0.233,-0.2306,-0.2241,-0.2666,0.0,0.0,0.0,0.0,0.0,0.0,0.0,0.0,0.0,0.0,0.0,0.0,0.0,0.0,0.0,0.0,0.0,0.0,0.0,0.0,0.0,0.0,0.0,0.0,0.0,0.0,0.0,0.0,0.0,0.0,0.0,0.0,0.0,0.0,0.0,0.0,0.0,0.0,0.0,0.0,0.0,0.0,0.0,0.0,0.0,0.0,0.0,0.0,0.0,0.0,0.0,0.0,0.0,0.0,0.0,0.0,0.0,0.0,0.0,0.0,0.0,0.0,0.0,0.0,0.0,0.0,0.0,0.0,0.0,0.0,0.0,0.0,0.0,0.0,0.0,0.0,0.0,0.0,0.0,0.0,0.0,0.0,0.0,0.0,0.0,0.0,0.0,0.0,0.0,0.0,0.0,0.0,0.0,0.0,0.0,0.0,0.0,0.0,0.0,0.0,0.0,0.0,0.0,0.0,0.0,0.0,0.0,0.0,-0.2178,-0.5944,-0.7038,-0.736,-0.7584,-0.7146,-0.8944,0.0,0.0,0.0,0.0,0.0,0.0,0.0,0.0,0.0,0.0,0.0,0.0,0.0,0.0,0.0,0.0,0.0,0.0,0.0,0.0,0.0,0.0,0.0,0.0,0.0,0.0,0.0,0.0,0.0,0.0,0.0,0.0,0.0,0.0,0.0,0.0,0.0,0.0,0.0,0.0,0.0,0.0,0.0,0.0,0.0,0.0,0.0,0.0,0.0,0.0,0.0,0.0,0.0,0.0,0.0,0.0,0.0,0.0,0.0,0.0,0.0,0.0,0.0,0.0,0.0,0.0,0.0,0.0,0.0,0.0,0.0,0.0,0.0,0.0,0.0,0.0,0.0,0.0,0.0,0.0,0.0,0.0,0.0,0.0,0.0,0.0,0.0,0.0,0.0,0.0,0.0,0.0,0.0,0.0,0.0,0.0,0.0,0.0,0.0,0.0,0.0,0.0,0.0,0.0,0.0,0.0,0.0,0.0,0.0,-1.0429,0.0,-1.1904,-1.1895,-1.1888,-1.2452,0.0,0.0,0.0,0.0,0.0,0.0,0.0,0.0,0.0,0.0,0.0,0.0,0.0,0.0,0.0,0.0,0.0,0.0,0.0,0.0,0.0,0.0,0.0,0.0,0.0,0.0,0.0,0.0,0.0,0.0,0.0,0.0,0.0,0.0,0.0,0.0,0.0,0.0,0.0,0.0,0.0,0.0,0.0,0.0,0.0,0.0,0.0,0.0,0.0,0.0,0.0,0.0,0.0,0.0,0.0,0.0,0.0,0.0,0.0,0.0,0.0,0.0,0.0,0.0,0.0,0.0,0.0,0.0,0.0,0.0,0.0,0.0,0.0,0.0,0.0,0.0,0.0,0.0,0.0,0.0,0.0,0.0,0.0,0.0,0.0,0.0,0.0,0.0,0.0,0.0,0.0,0.0,0.0,0.0,0.0,0.0,0.0,0.0,0.0,0.0,0.0,0.0,0.0,0.0,0.0,0.0,0.0,0.0,0.0,-1.2735,-1.3299,-1.3702,-1.3924,-1.3854,-1.3733,0.0,0.0,0.0,0.0,0.0,0.0,0.0,0.0,0.0,0.0,0.0,0.0,0.0,0.0,0.0,0.0,0.0,0.0,0.0,0.0,0.0,0.0,0.0,0.0,0.0,0.0,0.0,0.0,0.0,0.0,0.0,0.0,0.0,0.0,0.0,0.0,0.0,0.0,0.0,0.0,0.0,0.0,0.0,0.0,0.0,0.0,0.0,0.0,0.0,0.0,0.0,0.0,0.0,0.0,0.0,0.0,0.0,0.0,0.0,0.0,0.0,0.0,0.0,0.0,0.0,0.0,0.0,0.0,0.0,0.0,0.0,0.0,0.0,0.0,0.0,0.0,0.0,0.0,0.0,0.0,0.0,0.0,0.0,0.0,0.0,0.0,0.0,0.0,0.0,0.0,0.0,0.0,0.0,0.0,0.0,0.0,0.0,0.0,0.0,0.0,0.0,0.0,0.0,0.0,0.0,0.0,0.0,0.0,0.0,-1.3025,-1.29,-1.3188,-1.3854,-1.3442,-1.3083,0.0,0.0,0.0,0.0,0.0,0.0,0.0,0.0,0.0,0.0,0.0,0.0,0.0,0.0,0.0,0.0,0.0,0.0,0.0,0.0,0.0,0.0,0.0,0.0,0.0,0.0,0.0,0.0,0.0,0.0,0.0,0.0,0.0,0.0,0.0,0.0,0.0,0.0,0.0,0.0,0.0,0.0,0.0,0.0,0.0,0.0,0.0,0.0,0.0,0.0,0.0,0.0,0.0,0.0,0.0,0.0,0.0,0.0,0.0,0.0,0.0,0.0,0.0,0.0,0.0,0.0,0.0,0.0,0.0,0.0,0.0,0.0,0.0,0.0,0.0,0.0,0.0,0.0,0.0,0.0,0.0,0.0,0.0,0.0,0.0,0.0,0.0,0.0,0.0,0.0,0.0,0.0,0.0,0.0,0.0,0.0,0.0,0.0,0.0,0.0,0.0,0.0,0.0,0.0,0.0,0.0,0.0,0.0,0.0,0.0,-1.2618,-1.2882,-1.3357,-1.3125,-1.2692,-1.2132,0.0,0.0,0.0,0.0,0.0,0.0,0.0,0.0,0.0,0.0,0.0,0.0,0.0,0.0,0.0,0.0,0.0,0.0,0.0,0.0,0.0,0.0,0.0,0.0,0.0,0.0,0.0,0.0,0.0,0.0,0.0,0.0,0.0,0.0,0.0,0.0,0.0,0.0,0.0,0.0,0.0,0.0,0.0,0.0,0.0,0.0,0.0,0.0,0.0,0.0,0.0,0.0,0.0,0.0,0.0,0.0,0.0,0.0,0.0,0.0,0.0,0.0,0.0,0.0,0.0,0.0,0.0,0.0,0.0,0.0,0.0,0.0,0.0,0.0,0.0,0.0,0.0,0.0,0.0,0.0,0.0,0.0,0.0,0.0,0.0,0.0,0.0,0.0,0.0,0.0,0.0,0.0,0.0,0.0,0.0,0.0,0.0,0.0,0.0,0.0,0.0,0.0,0.0,0.0,0.0,0.0,0.0,0.0,0.0,0.0,-1.2375,-1.2924,-1.2797,-1.248,0.0,0.0,0.0,0.0,0.0,0.0,0.0,0.0,0.0,0.0,0.0,0.0,0.0,0.0,0.0,0.0,0.0,0.0,0.0,0.0,0.0,0.0,0.0,0.0,0.0,0.0,0.0,0.0,0.0,0.0,0.0,0.0,0.0,0.0,0.0,0.0,0.0,0.0,0.0,0.0,0.0,0.0,0.0,0.0,0.0,0.0,0.0,0.0,0.0,0.0,0.0,0.0,0.0,0.0,0.0,0.0,0.0,0.0,0.0,0.0,0.0,0.0,0.0,0.0,0.0,0.0,0.0,0.0,0.0,0.0,0.0,0.0,0.0,0.0,0.0,0.0,0.0,0.0,0.0,0.0,0.0,0.0,0.0,0.0,0.0,0.0,0.0,0.0,0.0,0.0,0.0,0.0,0.0,0.0,0.0,0.0,0.0,0.0,0.0,0.0,0.0,0.0,0.0,0.0,0.0,0.0,0.0,0.0,0.0,0.0,0.0,-1.1804,-1.2427,-1.247,0.0,-1.21,0.0,0.0,0.0,0.0,0.0,0.0,0.0,0.0,0.0,0.0,0.0,0.0,0.0,0.0,0.0,0.0,0.0,0.0,0.0,0.0,0.0,0.0,0.0,0.0,0.0,0.0,0.0,0.0,0.0,0.0,0.0,0.0,0.0,0.0,0.0,0.0,0.0,0.0,0.0,0.0,0.0,0.0,0.0,0.0,0.0,0.0,0.0,0.0,0.0,0.0,0.0,0.0,0.0,0.0,0.0,0.0,0.0,0.0,0.0,0.0,0.0,0.0,0.0,0.0,0.0,0.0,0.0,0.0,0.0,0.0,0.0,0.0,0.0,0.0,0.0,0.0,0.0,0.0,0.0,0.0,0.0,0.0,0.0,0.0,0.0,0.0,0.0,0.0,0.0,0.0,0.0,0.0,0.0,0.0,0.0,0.0,0.0,0.0,0.0,0.0,0.0,0.0,0.0,0.0,0.0,0.0,0.0,0.0,0.0,0.0,0.0,0.0,-1.2163,-1.2068,-1.1645,0.0,0.0,0.0,0.0,0.0,0.0,0.0,0.0,0.0,0.0,0.0,0.0,0.0,0.0,0.0,0.0,0.0,0.0,0.0,0.0,0.0,0.0,0.0,0.0,0.0,0.0,0.0,0.0,0.0,0.0,0.0,0.0,0.0,0.0,0.0,0.0,0.0,0.0,0.0,0.0,0.0,0.0,0.0,0.0,0.0,0.0,0.0,0.0,0.0,0.0,0.0,0.0,0.0,0.0,0.0,0.0,0.0,0.0,0.0,0.0,0.0,0.0,0.0,0.0,0.0,0.0,0.0,0.0,0.0,0.0,0.0,0.0,0.0,0.0,0.0,0.0,0.0,0.0,0.0,0.0,0.0,0.0,0.0,0.0,0.0,0.0,0.0,0.0,0.0,0.0,0.0,0.0,0.0,0.0,0.0,0.0,0.0,0.0,0.0,0.0,0.0,0.0,0.0,0.0,0.0,0.0,0.0,0.0,0.0,0.0,-1.1572,-1.1371,-1.1688,-1.1698,-1.1339,0.0,0.0,0.0,0.0,0.0,0.0,0.0,0.0,0.0,0.0,0.0,0.0,0.0,0.0,0.0,0.0,0.0,0.0,0.0,0.0,0.0,0.0,0.0,0.0,0.0,0.0,0.0,0.0,0.0,0.0,0.0,0.0,0.0,0.0,0.0,0.0,0.0,0.0,0.0,0.0,0.0,0.0,0.0,0.0,0.0,0.0,0.0,0.0,0.0,0.0,0.0,0.0,0.0,0.0,0.0,0.0,0.0,0.0,0.0,0.0,0.0,0.0,0.0,0.0,0.0,0.0,0.0,0.0,0.0,0.0,0.0,0.0,0.0,0.0,0.0,0.0,0.0,0.0,0.0,0.0,0.0,0.0,0.0,0.0,0.0,0.0,0.0,0.0,0.0,0.0,0.0,0.0,0.0,0.0,0.0,0.0,0.0,0.0,0.0,0.0,0.0,0.0,0.0,0.0,0.0,0.0,0.0,0.0,0.0,0.0,0.0,0.0,0.0,0.0,-1.1159,0.0,0.0,0.0,0.0,0.0,0.0,0.0,0.0,0.0,0.0,0.0,0.0,0.0,0.0,0.0,0.0,0.0,0.0,0.0,0.0,0.0,0.0,0.0,0.0,0.0,0.0,0.0,0.0,0.0,0.0,0.0,0.0,0.0,0.0,0.0,0.0,0.0,0.0,0.0,0.0,0.0,0.0,0.0,0.0,0.0,0.0,0.0,0.0,0.0,0.0,0.0,0.0,0.0,0.0,0.0,0.0,0.0,0.0,0.0,0.0,0.0,0.0,0.0,0.0,0.0,0.0,0.0,0.0,0.0,0.0,0.0,0.0,0.0,0.0,0.0,0.0,0.0,0.0,0.0,0.0,0.0,0.0,0.0,0.0,0.0,0.0,0.0,0.0,0.0,0.0,0.0,0.0,0.0,0.0,0.0,0.0,0.0,0.0,0.0,0.0,0.0,0.0,0.0,0.0,0.0,0.0,0.0,0.0,0.0,0.0,0.0,0.0,0.0,0.0,0.0,0.0,0.0,0.0,0.0,0.0,0.0,0.0,0.0,0.0,0.0,0.0,0.0,0.0,0.0,0.0,0.0,0.0,0.0,0.0,0.0,0.0,0.0,0.0,0.0,0.0,0.0,0.0,0.0,0.0,0.0,0.0,0.0,0.0,0.0,0.0,0.0,0.0,0.0,0.0,0.0,0.0,0.0,0.0,0.0,0.0,0.0,0.0,0.0,0.0,0.0,0.0,0.0,0.0,0.0,0.0,0.0,0.0,0.0,0.0,0.0,0.0,0.0,0.0,0.0,0.0,0.0,0.0,0.0,0.0,0.0,0.0,0.0,0.0,0.0,0.0,0.0,0.0,0.0,0.0,0.0,0.0,0.0,0.0,0.0,0.0,0.0,0.0,0.0,0.0,0.0,0.0,0.0,0.0,0.0,0.0,0.0,0.0,0.0,0.0,0.0,0.0,0.0,0.0,0.0,0.0,0.0,0.0,0.0,0.0,0.0,0.0,0.0,0.0,0.0,0.0,0.0,0.0,0.0,0.0,0.0,0.0,0.0,0.0,0.0,0.0,0.0,0.0,0.0,0.0,0.0,0.0,0.0,0.0,0.0,0.0,0.0,0.0,0.0,0.0,0.0,0.0,0.0,0.0,0.0,0.0,0.0,0.0,0.0,0.0,0.0,0.0,0.0,0.0,0.0,0.0,0.0,0.0,0.0,0.0,0.0,0.0,0.0,0.0,0.0,0.0,0.0,0.0,0.0,0.0,0.0,0.0,0.0,0.0,0.0,0.0,0.0,0.0,0.0,0.0,0.0,0.0,0.0,0.0,0.0,0.0,0.0,0.0,0.0,0.0,0.0,0.0,0.0,0.0,0.0,0.0,0.0,0.0,0.0,0.0,0.0,0.0,0.0,0.0,0.0,0.0,0.0,0.0,0.0,0.0,0.0,0.0,0.0,0.0,0.0,0.0,0.0,0.0,0.0,0.0,0.0,0.0,0.0,0.0,0.0,0.0,0.0,0.0,0.0,0.0,0.0,0.0,0.0,0.0,0.0,0.0,0.0,0.0,0.0,0.0,0.0,0.0,0.0,0.0,0.0,0.0,0.0,0.0,0.0,0.0,0.0,0.0,0.0,0.0,0.0,0.0,0.0,0.0,0.0,0.0,0.0,0.0,0.0,0.0,0.0,0.0,0.0,0.0,0.0,0.0,0.0,0.0,0.0,0.0,0.0,0.0,0.0,0.0,0.0,0.0,0.0,0.0,0.0,0.0,0.0,0.0,0.0,0.0,0.0,0.0,0.0,0.0,0.0,0.0,0.0,0.0,0.0,0.0,0.0,0.0,0.0,0.0,0.0,0.0,0.0,0.0,0.0,0.0,0.0,0.0,0.0,0.0,0.0,0.0,0.0,0.0,0.0,0.0,0.0,0.0,0.0,0.0,0.0,0.0,0.0,0.0,0.0,0.0,0.0,0.0,0.0,0.0,0.0,0.0,0.0,0.0,0.0,0.0,0.0,0.0,0.0,0.0,0.0,0.0,0.0,0.0,0.0,0.0,0.0,0.0,0.0,0.0,0.0,0.0,0.0,0.0,0.0,0.0,0.0,0.0,0.0,0.0,0.0,0.0,0.0,0.0,0.0,0.0,0.0,0.0,0.0,0.0,0.0,0.0,0.0,0.0,0.0,0.0,0.0,0.0,0.0,0.0,0.0,0.0,0.0,0.0,0.0,0.0,0.0,0.0,0.0,0.0,0.0,0.0,0.0,0.0,0.0,0.0,0.0,0.0,0.0,0.0,0.0,0.0,0.0,0.0,0.0,0.0,0.0,0.0,0.0,0.0,0.0,0.0,0.0,0.0,0.0,0.0,0.0,0.0,0.0,0.0,0.0,0.0,0.0,0.0,0.0,0.0,0.0,0.0,0.0,0.0,0.0,0.0,0.0,0.0,0.0,0.0,0.0,0.0,0.0,0.0,0.0,0.0,0.0,0.0,0.0,0.0,0.0,0.0,0.0,0.0,0.0,0.0,0.0,0.0,0.0,0.0,0.0,0.0,0.0,0.0,0.0,0.0,0.0,0.0,0.0,0.0,0.0,0.0,0.0,0.0,0.0,0.0,0.0,0.0,0.0,0.0,0.0,0.0,0.0,0.0,0.0,0.0,0.0,0.0,0.0,0.0,0.0,0.0,0.0,0.0,0.0,0.0,0.0,0.0,0.0,0.0,0.0,0.0,0.0,0.0,0.0,0.0,0.0,0.0,0.0,0.0,0.0,0.0,0.0,0.0,0.0,0.0,0.0,0.0,0.0,0.0,0.0,0.0,0.0,0.0,0.0,0.0,0.0,0.0,0.0,0.0,0.0,0.0,0.0,0.0,0.0,0.0,0.0,0.0,0.0,0.0,0.0,0.0,0.0,0.0,0.0,0.0,0.0,0.0,0.0,0.0,0.0,0.0,0.0,0.0,0.0,0.0,0.0,0.0,0.0,0.0,0.0,0.0,0.0,0.0,0.0,0.0,0.0,0.0,0.0,0.0,0.0,0.0,0.0,0.0,0.0,0.0,0.0,0.0,0.0,0.0,0.0,0.0,0.0,0.0,0.0,0.0,0.0,0.0,0.0,0.0,0.0,0.0,0.0,0.0,0.0,0.0,0.0,0.0,0.0,0.0,0.0,0.0,0.0,0.0,0.0,0.0,0.0,0.0,0.0,0.0,0.0,0.0,0.0,0.0,0.0,0.0,0.0,0.0,0.0,0.0,0.0,0.0,0.0,0.0,0.0,0.0,0.0,0.0,0.0,0.0,0.0,0.0,0.0,0.0,0.0,0.0,0.0,0.0,0.0,0.0,0.0,0.0,0.0,0.0,0.0,0.0,0.0,0.0,0.0,0.0,0.0,0.0,0.0,0.0,0.0,0.0,0.0,0.0,0.0,0.0,0.0,0.0,0.0,0.0,0.0,0.0,0.0,0.0,0.0,0.0,0.0,0.0,0.0,0.0,0.0,0.0,0.0,0.0,0.0,0.0,0.0,0.0,0.0,0.0,0.0,0.0,0.0,0.0,0.0,0.0,0.0,0.0,0.0,0.0,0.0,0.0,0.0,0.0,0.0,0.0,0.0,0.0,0.0,0.0,0.0,0.0,0.0,0.0,0.0,0.0,0.0,0.0,0.0,0.0,0.0,0.0,0.0,0.0,0.0,0.0,0.0,0.0,0.0,0.0,0.0,0.0,0.0,0.0,0.0,0.0,0.0,0.0,0.0,0.0,0.0,0.0,0.0,0.0,0.0,0.0,0.0,0.0,0.0,0.0,0.0,0.0,0.0,0.0,0.0,0.0,0.0,0.0,0.0,0.0,0.0,0.0,0.0,0.0,0.0,0.0,0.0,0.0,0.0,0.0,0.0,0.0,0.0,0.0,0.0,0.0,0.0,0.0,0.0,0.0,0.0,0.0,0.0,0.0,0.0,0.0,0.0,0.0,0.0,0.0,0.0,0.0,0.0,0.0,0.0,0.0,0.0,0.0,0.0,0.0,0.0,0.0,0.0,0.0,0.0,0.0,0.0,0.0,0.0,0.0,0.0,0.0,0.0,0.0,0.0,0.0,0.0,0.0,0.0,0.0,0.0,0.0,0.0,0.0,0.0,0.0,0.0,0.0,0.0,0.0,0.0,0.0,0.0,0.0,0.0,0.0,0.0,0.0,0.0,0.0,0.0,0.0,0.0,0.0,0.0,0.0,0.0,0.0,0.0,0.0,0.0,0.0,0.0,0.0,0.0,0.0,0.0,0.0,0.0,0.0,0.0,0.0,0.0,0.0,0.0,0.0,0.0,0.0,0.0,0.0,0.0,0.0,0.0,0.0,0.0,0.0,0.0,0.0,0.0,0.0,0.0,0.0]}]]]